Time,TemperatureF,DewpointF,PressureIn,WindDirection,WindDirectionDegrees,WindSpeedMPH,WindSpeedGustMPH,Humidity,HourlyPrecipIn,Conditions,Clouds,dailyrainin,SoftwareType,DateUTC
2013-02-08 00:00:00,28.0,27.0,29.88,NW,321,4.0,7.0,96,0.00,,---,0.00,VWS V14.01,2013-02-08 05:00:00,
2013-02-08 00:01:00,28.0,27.0,29.88,NE,39,5.0,6.0,96,0.00,,---,0.00,VWS V14.01,2013-02-08 05:01:00,
2013-02-08 00:02:00,28.0,27.0,29.88,ENE,72,2.0,6.0,96,0.00,,---,0.00,VWS V14.01,2013-02-08 05:02:00,
2013-02-08 00:03:00,28.0,27.0,29.88,East,80,1.0,6.0,96,0.00,,---,0.00,VWS V14.01,2013-02-08 05:03:00,
2013-02-08 00:04:00,28.0,27.0,29.88,East,89,1.0,6.0,96,0.00,,---,0.00,VWS V14.01,2013-02-08 05:04:00,
2013-02-08 00:05:00,28.0,27.0,29.88,NE,44,2.0,6.0,96,0.00,,---,0.00,VWS V14.01,2013-02-08 05:05:00,
2013-02-08 00:06:00,28.0,27.0,29.88,NE,46,0.0,3.0,96,0.00,,---,0.00,VWS V14.01,2013-02-08 05:06:00,
2013-02-08 00:07:00,27.9,26.9,29.88,East,82,5.0,5.0,96,0.00,,---,0.00,VWS V14.01,2013-02-08 05:07:00,
2013-02-08 00:08:00,27.9,26.9,29.88,NE,45,5.0,6.0,96,0.00,,---,0.00,VWS V14.01,2013-02-08 05:08:00,
2013-02-08 00:09:00,27.9,26.9,29.88,East,89,1.0,6.0,96,0.00,,---,0.00,VWS V14.01,2013-02-08 05:09:00,
2013-02-08 00:10:00,28.3,27.0,29.88,ENE,68,5.0,7.0,96,0.00,,,0.00,weatherlink.com 1.10,2013-02-08 05:10:00,
2013-02-08 00:11:00,27.9,26.9,29.88,NE,49,3.0,5.0,96,0.00,,---,0.00,VWS V14.01,2013-02-08 05:11:00,
2013-02-08 00:12:00,27.9,26.9,29.88,North,349,1.0,5.0,96,0.00,,---,0.00,VWS V14.01,2013-02-08 05:12:00,
2013-02-08 00:13:00,27.8,26.8,29.88,NE,46,4.0,5.0,96,0.00,,---,0.00,VWS V14.01,2013-02-08 05:13:00,
2013-02-08 00:14:00,27.8,26.8,29.88,ENE,68,3.0,5.0,96,0.00,,---,0.00,VWS V14.01,2013-02-08 05:14:00,
2013-02-08 00:15:00,27.9,26.9,29.87,East,87,3.0,5.0,96,0.00,,---,0.00,VWS V14.01,2013-02-08 05:15:00,
2013-02-08 00:16:00,27.8,26.8,29.87,East,83,3.0,3.0,96,0.00,,---,0.00,VWS V14.01,2013-02-08 05:16:00,
2013-02-08 00:17:00,27.8,26.8,29.87,NE,51,1.0,3.0,96,0.00,,---,0.00,VWS V14.01,2013-02-08 05:17:00,
2013-02-08 00:18:00,27.8,26.8,29.87,North,9,2.0,4.0,96,0.00,,---,0.00,VWS V14.01,2013-02-08 05:18:00,
2013-02-08 00:19:00,27.8,26.8,29.87,ENE,67,2.0,4.0,96,0.00,,---,0.00,VWS V14.01,2013-02-08 05:19:00,
2013-02-08 00:20:00,27.8,26.8,29.87,East,80,2.0,4.0,96,0.00,,---,0.00,VWS V14.01,2013-02-08 05:20:00,
2013-02-08 00:21:00,27.8,26.8,29.87,NNE,27,0.0,4.0,96,0.00,,---,0.00,VWS V14.01,2013-02-08 05:21:00,
2013-02-08 00:22:00,27.8,26.8,29.88,North,11,4.0,4.0,96,0.00,,---,0.00,VWS V14.01,2013-02-08 05:22:00,
2013-02-08 00:23:00,27.7,26.7,29.88,NW,318,1.0,4.0,96,0.00,,---,0.00,VWS V14.01,2013-02-08 05:23:00,
2013-02-08 00:24:00,27.7,26.7,29.88,ENE,68,2.0,4.0,96,0.00,,---,0.00,VWS V14.01,2013-02-08 05:24:00,
2013-02-08 00:25:00,27.7,26.7,29.87,NE,50,1.0,4.0,96,0.00,,---,0.00,VWS V14.01,2013-02-08 05:25:00,
2013-02-08 00:26:00,27.7,26.7,29.88,NE,43,2.0,4.0,96,0.00,,---,0.00,VWS V14.01,2013-02-08 05:26:00,
2013-02-08 00:27:00,27.7,26.7,29.88,ENE,57,2.0,4.0,96,0.00,,---,0.00,VWS V14.01,2013-02-08 05:27:00,
2013-02-08 00:28:00,28.0,27.0,29.88,East,80,3.0,7.0,96,0.00,,,0.00,weatherlink.com 1.10,2013-02-08 05:28:00,
2013-02-08 00:29:00,27.7,26.7,29.88,NE,38,2.0,6.0,96,0.00,,---,0.00,VWS V14.01,2013-02-08 05:29:00,
2013-02-08 00:30:00,27.7,26.7,29.88,NNE,23,3.0,6.0,96,0.00,,---,0.00,VWS V14.01,2013-02-08 05:30:00,
2013-02-08 00:31:00,27.6,26.6,29.88,North,11,2.0,4.0,96,0.00,,---,0.00,VWS V14.01,2013-02-08 05:31:00,
2013-02-08 00:32:00,27.6,26.6,29.88,ENE,68,3.0,4.0,96,0.00,,---,0.00,VWS V14.01,2013-02-08 05:32:00,
2013-02-08 00:33:00,27.6,26.6,29.88,NE,53,5.0,7.0,96,0.00,,---,0.00,VWS V14.01,2013-02-08 05:33:00,
2013-02-08 00:34:00,27.6,26.6,29.88,NE,50,4.0,7.0,96,0.00,,---,0.00,VWS V14.01,2013-02-08 05:34:00,
2013-02-08 00:35:00,27.6,26.6,29.88,ENE,68,3.0,7.0,96,0.00,,---,0.00,VWS V14.01,2013-02-08 05:35:00,
2013-02-08 00:36:00,27.6,26.6,29.88,NNE,23,2.0,3.0,96,0.00,,---,0.00,VWS V14.01,2013-02-08 05:36:00,
2013-02-08 00:37:00,27.5,26.5,29.88,NNE,20,3.0,4.0,96,0.00,,---,0.00,VWS V14.01,2013-02-08 05:37:00,
2013-02-08 00:38:00,27.5,26.5,29.88,North,4,6.0,8.0,96,0.00,,---,0.00,VWS V14.01,2013-02-08 05:38:00,
2013-02-08 00:39:00,27.5,26.5,29.88,East,89,4.0,8.0,96,0.00,,---,0.00,VWS V14.01,2013-02-08 05:39:00,
2013-02-08 00:40:00,27.5,26.5,29.88,NE,37,3.0,8.0,96,0.00,,---,0.00,VWS V14.01,2013-02-08 05:40:00,
2013-02-08 00:41:00,27.5,26.5,29.88,NE,42,3.0,6.0,96,0.00,,---,0.00,VWS V14.01,2013-02-08 05:41:00,
2013-02-08 00:42:00,27.5,26.5,29.88,ENE,61,4.0,10.0,96,0.00,,---,0.00,VWS V14.01,2013-02-08 05:42:00,
2013-02-08 00:43:00,27.4,26.4,29.88,NNE,32,2.0,10.0,96,0.00,,---,0.00,VWS V14.01,2013-02-08 05:43:00,
2013-02-08 00:44:00,27.4,26.4,29.88,ENE,71,4.0,10.0,96,0.00,,---,0.00,VWS V14.01,2013-02-08 05:44:00,
2013-02-08 00:45:00,27.4,26.4,29.88,NE,48,4.0,10.0,96,0.00,,---,0.00,VWS V14.01,2013-02-08 05:45:00,
2013-02-08 00:46:00,27.8,27.0,29.87,NNW,329,3.0,4.0,96,0.00,,,0.00,weatherlink.com 1.10,2013-02-08 05:46:00,
2013-02-08 00:47:00,27.3,26.3,29.88,NE,53,2.0,7.0,96,0.00,,---,0.00,VWS V14.01,2013-02-08 05:47:00,
2013-02-08 00:48:00,27.3,26.3,29.88,NE,51,2.0,7.0,96,0.00,,---,0.00,VWS V14.01,2013-02-08 05:48:00,
2013-02-08 00:49:00,27.3,26.3,29.88,NE,54,2.0,7.0,96,0.00,,---,0.00,VWS V14.01,2013-02-08 05:49:00,
2013-02-08 00:50:00,27.3,26.3,29.88,NE,46,3.0,7.0,96,0.00,,---,0.00,VWS V14.01,2013-02-08 05:50:00,
2013-02-08 00:51:00,27.3,26.3,29.88,ENE,68,4.0,11.0,96,0.00,,---,0.00,VWS V14.01,2013-02-08 05:51:00,
2013-02-08 00:52:00,27.3,26.3,29.88,East,90,1.0,11.0,96,0.00,,---,0.00,VWS V14.01,2013-02-08 05:52:00,
2013-02-08 00:53:00,27.3,26.3,29.88,NNW,347,5.0,11.0,96,0.00,,---,0.00,VWS V14.01,2013-02-08 05:53:00,
2013-02-08 00:54:00,27.3,26.3,29.88,NE,34,3.0,11.0,96,0.00,,---,0.00,VWS V14.01,2013-02-08 05:54:00,
2013-02-08 00:55:00,27.3,26.3,29.88,ENE,71,2.0,11.0,96,0.00,,---,0.00,VWS V14.01,2013-02-08 05:55:00,
2013-02-08 00:56:00,27.2,26.2,29.88,ENE,67,3.0,4.0,96,0.00,,---,0.00,VWS V14.01,2013-02-08 05:56:00,
2013-02-08 00:57:00,27.2,26.2,29.88,East,80,3.0,5.0,96,0.00,,---,0.00,VWS V14.01,2013-02-08 05:57:00,
2013-02-08 00:58:00,27.2,26.2,29.88,NE,56,1.0,5.0,96,0.00,,---,0.00,VWS V14.01,2013-02-08 05:58:00,
2013-02-08 00:59:00,27.2,26.2,29.88,NNE,27,3.0,5.0,96,0.00,,---,0.00,VWS V14.01,2013-02-08 05:59:00,
2013-02-08 01:00:00,27.2,26.2,29.88,ENE,61,4.0,6.0,96,0.00,,---,0.00,VWS V14.01,2013-02-08 06:00:00,
2013-02-08 01:01:00,27.1,26.1,29.88,NE,46,1.0,4.0,96,0.00,,---,0.00,VWS V14.01,2013-02-08 06:01:00,
2013-02-08 01:02:00,27.5,27.0,29.88,NE,37,4.0,6.0,96,0.00,,,0.00,weatherlink.com 1.10,2013-02-08 06:02:00,
2013-02-08 01:03:00,27.1,26.1,29.88,North,351,2.0,4.0,96,0.00,,---,0.00,VWS V14.01,2013-02-08 06:03:00,
2013-02-08 01:04:00,27.1,26.1,29.88,NNE,30,1.0,4.0,96,0.00,,---,0.00,VWS V14.01,2013-02-08 06:04:00,
2013-02-08 01:05:00,27.1,26.1,29.88,NW,326,3.0,4.0,96,0.00,,---,0.00,VWS V14.01,2013-02-08 06:05:00,
2013-02-08 01:06:00,27.1,26.1,29.88,NE,53,3.0,5.0,96,0.00,,---,0.00,VWS V14.01,2013-02-08 06:06:00,
2013-02-08 01:07:00,27.1,26.1,29.89,North,356,4.0,5.0,96,0.00,,---,0.00,VWS V14.01,2013-02-08 06:07:00,
2013-02-08 01:08:00,27.1,26.1,29.88,NNW,343,5.0,5.0,96,0.00,,---,0.00,VWS V14.01,2013-02-08 06:08:00,
2013-02-08 01:09:00,27.1,26.1,29.89,ENE,65,2.0,5.0,96,0.00,,---,0.00,VWS V14.01,2013-02-08 06:09:00,
2013-02-08 01:10:00,27.1,26.1,29.89,NNW,335,2.0,5.0,96,0.00,,---,0.00,VWS V14.01,2013-02-08 06:10:00,
2013-02-08 01:11:00,27.1,26.1,29.89,NNW,340,4.0,4.0,96,0.00,,---,0.00,VWS V14.01,2013-02-08 06:11:00,
2013-02-08 01:12:00,27.0,26.0,29.89,ENE,71,3.0,4.0,96,0.00,,---,0.00,VWS V14.01,2013-02-08 06:12:00,
2013-02-08 01:13:00,27.0,26.0,29.89,NE,50,2.0,4.0,96,0.00,,---,0.00,VWS V14.01,2013-02-08 06:13:00,
2013-02-08 01:14:00,27.0,26.0,29.89,ENE,57,4.0,4.0,96,0.00,,---,0.00,VWS V14.01,2013-02-08 06:14:00,
2013-02-08 01:15:00,27.0,26.0,29.89,NE,44,3.0,4.0,96,0.00,,---,0.00,VWS V14.01,2013-02-08 06:15:00,
2013-02-08 01:16:00,27.0,26.0,29.89,North,11,3.0,4.0,96,0.00,,---,0.00,VWS V14.01,2013-02-08 06:16:00,
2013-02-08 01:17:00,27.0,26.0,29.89,NNW,339,1.0,5.0,96,0.00,,---,0.00,VWS V14.01,2013-02-08 06:17:00,
2013-02-08 01:18:00,27.0,26.0,29.89,North,349,4.0,7.0,96,0.00,,---,0.00,VWS V14.01,2013-02-08 06:18:00,
2013-02-08 01:19:00,27.0,26.0,29.89,NNW,346,3.0,7.0,96,0.00,,---,0.00,VWS V14.01,2013-02-08 06:19:00,
2013-02-08 01:20:00,27.3,26.0,29.88,East,85,2.0,10.0,96,0.00,,,0.00,weatherlink.com 1.10,2013-02-08 06:20:00,
2013-02-08 01:21:00,26.9,25.9,29.89,NE,46,2.0,2.0,96,0.00,,---,0.00,VWS V14.01,2013-02-08 06:21:00,
2013-02-08 01:22:00,26.9,25.9,29.89,NE,44,3.0,5.0,96,0.00,,---,0.00,VWS V14.01,2013-02-08 06:22:00,
2013-02-08 01:23:00,26.9,25.9,29.89,NE,40,2.0,5.0,96,0.00,,---,0.00,VWS V14.01,2013-02-08 06:23:00,
2013-02-08 01:24:00,26.9,25.9,29.89,NNW,340,2.0,5.0,96,0.00,,---,0.00,VWS V14.01,2013-02-08 06:24:00,
2013-02-08 01:25:00,27.0,26.0,29.89,NNE,25,4.0,5.0,96,0.00,,---,0.00,VWS V14.01,2013-02-08 06:25:00,
2013-02-08 01:26:00,26.9,25.9,29.89,NW,321,1.0,3.0,96,0.00,,---,0.00,VWS V14.01,2013-02-08 06:26:00,
2013-02-08 01:27:00,26.9,25.9,29.89,NNW,345,1.0,3.0,96,0.00,,---,0.00,VWS V14.01,2013-02-08 06:27:00,
2013-02-08 01:28:00,27.0,26.0,29.89,NNW,348,5.0,5.0,96,0.00,,---,0.00,VWS V14.01,2013-02-08 06:28:00,
2013-02-08 01:29:00,26.9,25.9,29.89,North,8,3.0,6.0,96,0.00,,---,0.00,VWS V14.01,2013-02-08 06:29:00,
2013-02-08 01:30:00,26.9,25.9,29.89,North,349,5.0,6.0,96,0.00,,---,0.00,VWS V14.01,2013-02-08 06:30:00,
2013-02-08 01:31:00,26.9,25.9,29.89,NE,52,6.0,7.0,96,0.00,,---,0.00,VWS V14.01,2013-02-08 06:31:00,
2013-02-08 01:32:00,26.9,25.7,29.89,NNE,12,2.0,7.0,95,0.00,,---,0.00,VWS V14.01,2013-02-08 06:32:00,
2013-02-08 01:33:00,26.9,25.7,29.89,North,359,1.0,7.0,95,0.00,,---,0.00,VWS V14.01,2013-02-08 06:33:00,
2013-02-08 01:34:00,26.9,25.9,29.89,ENE,63,3.0,7.0,96,0.00,,---,0.00,VWS V14.01,2013-02-08 06:34:00,
2013-02-08 01:35:00,26.9,25.9,29.89,NE,36,2.0,7.0,96,0.00,,---,0.00,VWS V14.01,2013-02-08 06:35:00,
2013-02-08 01:36:00,26.9,25.9,29.89,East,92,3.0,6.0,96,0.00,,---,0.00,VWS V14.01,2013-02-08 06:36:00,
2013-02-08 01:37:00,27.0,26.0,29.89,North,356,3.0,5.0,96,0.00,,,0.00,weatherlink.com 1.10,2013-02-08 06:37:00,
2013-02-08 01:38:00,26.9,25.7,29.89,North,4,4.0,6.0,95,0.00,,---,0.00,VWS V14.01,2013-02-08 06:38:00,
2013-02-08 01:39:00,27.0,25.8,29.89,NNE,22,4.0,6.0,95,0.00,,---,0.00,VWS V14.01,2013-02-08 06:39:00,
2013-02-08 01:40:00,26.9,25.7,29.89,NNE,25,6.0,6.0,95,0.00,,---,0.00,VWS V14.01,2013-02-08 06:40:00,
2013-02-08 01:41:00,26.9,25.7,29.89,North,11,5.0,5.0,95,0.00,,---,0.00,VWS V14.01,2013-02-08 06:41:00,
2013-02-08 01:42:00,27.0,25.8,29.89,NNE,33,3.0,6.0,95,0.00,,---,0.00,VWS V14.01,2013-02-08 06:42:00,
2013-02-08 01:43:00,27.0,25.8,29.89,ENE,77,1.0,6.0,95,0.00,,---,0.00,VWS V14.01,2013-02-08 06:43:00,
2013-02-08 01:44:00,26.9,25.9,29.89,SE,142,0.0,6.0,96,0.00,,---,0.00,VWS V14.01,2013-02-08 06:44:00,
2013-02-08 01:45:00,26.9,25.9,29.89,North,4,2.0,6.0,96,0.00,,---,0.00,VWS V14.01,2013-02-08 06:45:00,
2013-02-08 01:46:00,27.0,26.0,29.89,North,9,0.0,2.0,96,0.00,,---,0.00,VWS V14.01,2013-02-08 06:46:00,
2013-02-08 01:47:00,26.9,25.9,29.89,North,6,4.0,5.0,96,0.00,,---,0.00,VWS V14.01,2013-02-08 06:47:00,
2013-02-08 01:48:00,26.9,25.9,29.89,NE,53,2.0,5.0,96,0.00,,---,0.00,VWS V14.01,2013-02-08 06:48:00,
2013-02-08 01:49:00,26.9,25.9,29.89,ENE,61,2.0,5.0,96,0.00,,---,0.00,VWS V14.01,2013-02-08 06:49:00,
2013-02-08 01:50:00,26.9,25.7,29.89,NNE,16,5.0,5.0,95,0.00,,---,0.00,VWS V14.01,2013-02-08 06:50:00,
2013-02-08 01:51:00,26.9,25.7,29.89,NNE,13,4.0,5.0,95,0.00,,---,0.00,VWS V14.01,2013-02-08 06:51:00,
2013-02-08 01:52:00,26.9,25.7,29.89,NNE,16,2.0,5.0,95,0.00,,---,0.00,VWS V14.01,2013-02-08 06:52:00,
2013-02-08 01:53:00,26.9,25.7,29.89,North,7,6.0,6.0,95,0.00,,---,0.00,VWS V14.01,2013-02-08 06:53:00,
2013-02-08 01:54:00,26.9,26.0,29.89,NNE,16,5.0,6.0,96,0.00,,,0.00,weatherlink.com 1.10,2013-02-08 06:54:00,
2013-02-08 01:55:00,26.9,25.7,29.89,NNE,25,4.0,7.0,95,0.00,,---,0.00,VWS V14.01,2013-02-08 06:55:00,
2013-02-08 01:56:00,26.9,25.7,29.89,NE,44,6.0,6.0,95,0.00,,---,0.00,VWS V14.01,2013-02-08 06:56:00,
2013-02-08 01:57:00,26.9,25.7,29.89,NNE,23,3.0,8.0,95,0.00,,---,0.00,VWS V14.01,2013-02-08 06:57:00,
2013-02-08 01:58:00,26.9,25.7,29.89,NNE,18,6.0,8.0,95,0.00,,---,0.00,VWS V14.01,2013-02-08 06:58:00,
2013-02-08 01:59:00,26.9,25.7,29.89,NNE,25,3.0,8.0,95,0.00,,---,0.00,VWS V14.01,2013-02-08 06:59:00,
2013-02-08 02:00:00,26.9,25.7,29.89,NE,50,3.0,8.0,95,0.00,,---,0.00,VWS V14.01,2013-02-08 07:00:00,
2013-02-08 02:01:00,26.9,25.7,29.89,NNE,20,3.0,4.0,95,0.00,,---,0.00,VWS V14.01,2013-02-08 07:01:00,
2013-02-08 02:02:00,26.9,25.7,29.89,NE,36,2.0,7.0,95,0.00,,---,0.00,VWS V14.01,2013-02-08 07:02:00,
2013-02-08 02:03:00,26.9,25.7,29.89,NNE,20,5.0,7.0,95,0.00,,---,0.00,VWS V14.01,2013-02-08 07:03:00,
2013-02-08 02:04:00,26.9,25.7,29.89,North,9,3.0,7.0,95,0.00,,---,0.00,VWS V14.01,2013-02-08 07:04:00,
2013-02-08 02:05:00,26.9,25.7,29.89,ENE,61,2.0,7.0,95,0.00,,---,0.00,VWS V14.01,2013-02-08 07:05:00,
2013-02-08 02:06:00,26.9,25.7,29.89,NE,52,1.0,2.0,95,0.00,,---,0.00,VWS V14.01,2013-02-08 07:06:00,
2013-02-08 02:07:00,26.9,25.7,29.89,NNE,27,1.0,2.0,95,0.00,,---,0.00,VWS V14.01,2013-02-08 07:07:00,
2013-02-08 02:08:00,26.9,25.7,29.89,NE,46,5.0,5.0,95,0.00,,---,0.00,VWS V14.01,2013-02-08 07:08:00,
2013-02-08 02:09:00,26.9,25.7,29.89,NNE,16,3.0,6.0,95,0.00,,---,0.00,VWS V14.01,2013-02-08 07:09:00,
2013-02-08 02:10:00,26.9,25.7,29.89,NE,50,2.0,6.0,95,0.00,,---,0.00,VWS V14.01,2013-02-08 07:10:00,
2013-02-08 02:11:00,26.9,26.0,29.89,North,1,3.0,6.0,96,0.00,,,0.00,weatherlink.com 1.10,2013-02-08 07:11:00,
2013-02-08 02:12:00,26.9,25.7,29.89,North,356,7.0,7.0,95,0.00,,---,0.00,VWS V14.01,2013-02-08 07:12:00,
2013-02-08 02:13:00,26.9,25.7,29.89,NE,56,3.0,7.0,95,0.00,,---,0.00,VWS V14.01,2013-02-08 07:13:00,
2013-02-08 02:14:00,26.9,25.7,29.89,NNE,27,2.0,7.0,95,0.00,,---,0.00,VWS V14.01,2013-02-08 07:14:00,
2013-02-08 02:15:00,26.9,25.7,29.89,West,261,3.0,7.0,95,0.00,,---,0.00,VWS V14.01,2013-02-08 07:15:00,
2013-02-08 02:16:00,26.9,25.7,29.89,NNE,19,4.0,5.0,95,0.00,,---,0.00,VWS V14.01,2013-02-08 07:16:00,
2013-02-08 02:17:00,26.9,25.7,29.89,NE,39,6.0,6.0,95,0.00,,---,0.00,VWS V14.01,2013-02-08 07:17:00,
2013-02-08 02:18:00,26.9,25.7,29.89,NE,41,5.0,7.0,95,0.00,,---,0.00,VWS V14.01,2013-02-08 07:18:00,
2013-02-08 02:19:00,26.9,25.7,29.89,ENE,62,3.0,7.0,95,0.00,,---,0.00,VWS V14.01,2013-02-08 07:19:00,
2013-02-08 02:20:00,26.9,25.7,29.89,NNE,20,4.0,7.0,95,0.00,,---,0.00,VWS V14.01,2013-02-08 07:20:00,
2013-02-08 02:21:00,26.9,25.7,29.89,NNE,12,3.0,4.0,95,0.00,,---,0.00,VWS V14.01,2013-02-08 07:21:00,
2013-02-08 02:22:00,26.9,25.7,29.89,NE,47,2.0,7.0,95,0.00,,---,0.00,VWS V14.01,2013-02-08 07:22:00,
2013-02-08 02:23:00,26.9,25.7,29.89,North,360,6.0,7.0,95,0.00,,---,0.00,VWS V14.01,2013-02-08 07:23:00,
2013-02-08 02:24:00,26.9,25.7,29.89,ENE,63,2.0,7.0,95,0.00,,---,0.00,VWS V14.01,2013-02-08 07:24:00,
2013-02-08 02:25:00,26.9,25.7,29.89,NE,42,4.0,8.0,95,0.00,,---,0.00,VWS V14.01,2013-02-08 07:25:00,
2013-02-08 02:26:00,26.9,25.7,29.89,NE,50,4.0,5.0,95,0.00,,---,0.00,VWS V14.01,2013-02-08 07:26:00,
2013-02-08 02:27:00,26.9,25.7,29.89,NE,39,2.0,5.0,95,0.00,,---,0.00,VWS V14.01,2013-02-08 07:27:00,
2013-02-08 02:28:00,26.9,25.7,29.89,East,82,3.0,5.0,95,0.00,,---,0.00,VWS V14.01,2013-02-08 07:28:00,
2013-02-08 02:29:00,26.9,26.0,29.89,NNE,19,5.0,7.0,95,0.00,,,0.00,weatherlink.com 1.10,2013-02-08 07:29:00,
2013-02-08 02:30:00,26.9,25.7,29.89,NE,37,3.0,7.0,95,0.00,,---,0.00,VWS V14.01,2013-02-08 07:30:00,
2013-02-08 02:31:00,26.9,25.7,29.89,North,352,4.0,5.0,95,0.00,,---,0.00,VWS V14.01,2013-02-08 07:31:00,
2013-02-08 02:32:00,26.9,25.7,29.89,NE,42,3.0,5.0,95,0.00,,---,0.00,VWS V14.01,2013-02-08 07:32:00,
2013-02-08 02:33:00,26.9,25.7,29.89,NE,51,6.0,8.0,95,0.00,,---,0.00,VWS V14.01,2013-02-08 07:33:00,
2013-02-08 02:34:00,26.9,25.7,29.89,NNW,344,4.0,8.0,95,0.00,,---,0.00,VWS V14.01,2013-02-08 07:34:00,
2013-02-08 02:35:00,26.9,25.7,29.89,North,5,4.0,8.0,95,0.00,,---,0.00,VWS V14.01,2013-02-08 07:35:00,
2013-02-08 02:36:00,26.9,25.7,29.89,North,354,2.0,4.0,95,0.00,,---,0.00,VWS V14.01,2013-02-08 07:36:00,
2013-02-08 02:37:00,26.9,25.7,29.89,North,356,6.0,9.0,95,0.00,,---,0.00,VWS V14.01,2013-02-08 07:37:00,
2013-02-08 02:38:00,26.9,25.7,29.89,ENE,60,3.0,9.0,95,0.00,,---,0.00,VWS V14.01,2013-02-08 07:38:00,
2013-02-08 02:39:00,26.9,25.7,29.89,NNE,17,3.0,9.0,95,0.00,,---,0.00,VWS V14.01,2013-02-08 07:39:00,
2013-02-08 02:40:00,26.9,25.7,29.89,North,11,5.0,9.0,95,0.00,,---,0.00,VWS V14.01,2013-02-08 07:40:00,
2013-02-08 02:41:00,26.9,25.7,29.89,North,359,2.0,6.0,95,0.00,,---,0.00,VWS V14.01,2013-02-08 07:41:00,
2013-02-08 02:42:00,26.9,25.7,29.89,North,352,3.0,6.0,95,0.00,,---,0.00,VWS V14.01,2013-02-08 07:42:00,
2013-02-08 02:43:00,26.9,25.7,29.89,ENE,58,2.0,6.0,95,0.00,,---,0.00,VWS V14.01,2013-02-08 07:43:00,
2013-02-08 02:44:00,26.9,25.7,29.89,NNW,332,2.0,6.0,95,0.00,,---,0.00,VWS V14.01,2013-02-08 07:44:00,
2013-02-08 02:45:00,26.9,25.7,29.89,NE,36,4.0,6.0,95,0.00,,---,0.00,VWS V14.01,2013-02-08 07:45:00,
2013-02-08 02:46:00,26.9,26.0,29.89,NNE,15,4.0,7.0,95,0.00,,,0.00,weatherlink.com 1.10,2013-02-08 07:46:00,
2013-02-08 02:47:00,26.9,25.7,29.89,North,352,2.0,5.0,95,0.00,,---,0.00,VWS V14.01,2013-02-08 07:47:00,
2013-02-08 02:48:00,26.9,25.7,29.89,NE,39,3.0,5.0,95,0.00,,---,0.00,VWS V14.01,2013-02-08 07:48:00,
2013-02-08 02:49:00,26.9,25.7,29.89,NNW,346,3.0,5.0,95,0.00,,---,0.00,VWS V14.01,2013-02-08 07:49:00,
2013-02-08 02:50:00,26.9,25.7,29.89,North,350,6.0,6.0,95,0.00,,---,0.00,VWS V14.01,2013-02-08 07:50:00,
2013-02-08 02:51:00,26.9,25.7,29.89,ENE,61,2.0,4.0,95,0.00,,---,0.00,VWS V14.01,2013-02-08 07:51:00,
2013-02-08 02:52:00,26.9,25.9,29.89,NW,321,3.0,5.0,96,0.00,,---,0.00,VWS V14.01,2013-02-08 07:52:00,
2013-02-08 02:53:00,26.9,25.9,29.89,NNE,25,4.0,6.0,96,0.00,,---,0.00,VWS V14.01,2013-02-08 07:53:00,
2013-02-08 02:54:00,26.9,25.7,29.89,North,357,4.0,6.0,95,0.00,,---,0.00,VWS V14.01,2013-02-08 07:54:00,
2013-02-08 02:55:00,26.9,25.9,29.89,North,11,5.0,6.0,96,0.00,,---,0.00,VWS V14.01,2013-02-08 07:55:00,
2013-02-08 02:56:00,27.0,26.0,29.90,North,351,3.0,5.0,96,0.00,,---,0.00,VWS V14.01,2013-02-08 07:56:00,
2013-02-08 02:57:00,27.0,26.0,29.90,NNE,27,5.0,5.0,96,0.00,,---,0.00,VWS V14.01,2013-02-08 07:57:00,
2013-02-08 02:58:00,26.9,25.9,29.90,NNE,27,2.0,6.0,96,0.00,,---,0.00,VWS V14.01,2013-02-08 07:58:00,
2013-02-08 02:59:00,27.0,26.0,29.90,North,1,2.0,6.0,96,0.00,,---,0.00,VWS V14.01,2013-02-08 07:59:00,
2013-02-08 03:00:00,27.0,26.0,29.89,East,81,3.0,6.0,96,0.00,,---,0.00,VWS V14.01,2013-02-08 08:00:00,
2013-02-08 03:01:00,27.0,26.0,29.90,NNW,341,4.0,5.0,96,0.00,,---,0.00,VWS V14.01,2013-02-08 08:01:00,
2013-02-08 03:02:00,27.0,26.0,29.89,North,11,2.0,5.0,96,0.00,,---,0.00,VWS V14.01,2013-02-08 08:02:00,
2013-02-08 03:03:00,27.0,26.0,29.89,NNE,26,4.0,5.0,96,0.00,,---,0.00,VWS V14.01,2013-02-08 08:03:00,
2013-02-08 03:04:00,26.9,26.0,29.89,NE,52,2.0,9.0,95,0.00,,,0.00,weatherlink.com 1.10,2013-02-08 08:04:00,
2013-02-08 03:05:00,27.0,26.0,29.89,NNE,25,2.0,7.0,96,0.00,,---,0.00,VWS V14.01,2013-02-08 08:05:00,
2013-02-08 03:06:00,27.0,26.0,29.89,ENE,68,3.0,4.0,96,0.00,,---,0.00,VWS V14.01,2013-02-08 08:06:00,
2013-02-08 03:07:00,27.0,26.0,29.89,NNW,344,3.0,4.0,96,0.00,,---,0.00,VWS V14.01,2013-02-08 08:07:00,
2013-02-08 03:08:00,27.0,26.0,29.90,North,359,3.0,5.0,96,0.00,,---,0.00,VWS V14.01,2013-02-08 08:08:00,
2013-02-08 03:09:00,27.0,26.0,29.90,NNE,27,1.0,5.0,96,0.00,,---,0.00,VWS V14.01,2013-02-08 08:09:00,
2013-02-08 03:10:00,27.0,26.0,29.90,North,5,2.0,5.0,96,0.00,,---,0.00,VWS V14.01,2013-02-08 08:10:00,
2013-02-08 03:11:00,27.0,26.0,29.90,NNW,341,2.0,4.0,96,0.00,,---,0.00,VWS V14.01,2013-02-08 08:11:00,
2013-02-08 03:12:00,27.1,26.1,29.90,NNE,32,3.0,6.0,96,0.00,,---,0.00,VWS V14.01,2013-02-08 08:12:00,
2013-02-08 03:13:00,27.1,26.1,29.90,NNW,335,3.0,6.0,96,0.00,,---,0.00,VWS V14.01,2013-02-08 08:13:00,
2013-02-08 03:14:00,27.0,26.0,29.90,NNE,20,3.0,6.0,96,0.00,,---,0.00,VWS V14.01,2013-02-08 08:14:00,
2013-02-08 03:15:00,27.1,26.1,29.90,NNW,329,3.0,6.0,96,0.00,,---,0.00,VWS V14.01,2013-02-08 08:15:00,
2013-02-08 03:16:00,27.1,26.1,29.90,NNE,19,3.0,5.0,96,0.00,,---,0.00,VWS V14.01,2013-02-08 08:16:00,
2013-02-08 03:17:00,27.1,26.1,29.90,NE,42,3.0,5.0,96,0.00,,---,0.00,VWS V14.01,2013-02-08 08:17:00,
2013-02-08 03:18:00,27.1,26.1,29.90,NE,53,2.0,5.0,96,0.00,,---,0.00,VWS V14.01,2013-02-08 08:18:00,
2013-02-08 03:19:00,27.1,26.1,29.90,NNE,20,2.0,5.0,96,0.00,,---,0.00,VWS V14.01,2013-02-08 08:19:00,
2013-02-08 03:20:00,26.9,26.0,29.89,North,356,2.0,6.0,95,0.00,,,0.00,weatherlink.com 1.10,2013-02-08 08:20:00,
2013-02-08 03:21:00,27.1,26.1,29.90,ENE,58,0.0,3.0,96,0.00,,---,0.00,VWS V14.01,2013-02-08 08:21:00,
2013-02-08 03:22:00,27.1,26.1,29.90,NNE,18,3.0,4.0,96,0.00,,---,0.00,VWS V14.01,2013-02-08 08:22:00,
2013-02-08 03:23:00,27.1,26.1,29.90,North,9,4.0,5.0,96,0.00,,---,0.00,VWS V14.01,2013-02-08 08:23:00,
2013-02-08 03:24:00,27.1,26.1,29.90,NE,34,6.0,7.0,96,0.00,,---,0.00,VWS V14.01,2013-02-08 08:24:00,
2013-02-08 03:25:00,27.1,26.1,29.90,NNW,341,3.0,7.0,96,0.00,,---,0.00,VWS V14.01,2013-02-08 08:25:00,
2013-02-08 03:26:00,27.1,26.1,29.90,North,6,2.0,4.0,96,0.00,,---,0.00,VWS V14.01,2013-02-08 08:26:00,
2013-02-08 03:27:00,27.1,26.1,29.90,ENE,74,3.0,5.0,96,0.00,,---,0.00,VWS V14.01,2013-02-08 08:27:00,
2013-02-08 03:28:00,27.2,26.2,29.90,North,359,5.0,5.0,96,0.00,,---,0.00,VWS V14.01,2013-02-08 08:28:00,
2013-02-08 03:29:00,27.2,26.2,29.90,North,352,3.0,6.0,96,0.00,,---,0.00,VWS V14.01,2013-02-08 08:29:00,
2013-02-08 03:30:00,27.2,26.2,29.90,North,349,4.0,6.0,96,0.00,,---,0.00,VWS V14.01,2013-02-08 08:30:00,
2013-02-08 03:31:00,27.2,26.2,29.90,NNE,26,2.0,4.0,96,0.00,,---,0.00,VWS V14.01,2013-02-08 08:31:00,
2013-02-08 03:32:00,27.2,26.2,29.90,NNE,22,2.0,4.0,96,0.00,,---,0.00,VWS V14.01,2013-02-08 08:32:00,
2013-02-08 03:33:00,27.2,26.2,29.90,NE,36,5.0,7.0,96,0.00,,---,0.00,VWS V14.01,2013-02-08 08:33:00,
2013-02-08 03:34:00,27.3,26.3,29.90,NE,51,3.0,8.0,96,0.00,,---,0.00,VWS V14.01,2013-02-08 08:34:00,
2013-02-08 03:35:00,27.3,26.3,29.91,ENE,73,3.0,8.0,96,0.00,,---,0.00,VWS V14.01,2013-02-08 08:35:00,
2013-02-08 03:36:00,27.3,26.3,29.91,NNE,19,4.0,6.0,96,0.00,,---,0.00,VWS V14.01,2013-02-08 08:36:00,
2013-02-08 03:37:00,27.3,26.3,29.91,NNE,18,5.0,6.0,96,0.00,,---,0.00,VWS V14.01,2013-02-08 08:37:00,
2013-02-08 03:38:00,27.0,26.0,29.90,North,359,2.0,7.0,96,0.00,,,0.00,weatherlink.com 1.10,2013-02-08 08:38:00,
2013-02-08 03:39:00,27.3,26.3,29.91,NNE,13,4.0,8.0,96,0.00,,---,0.00,VWS V14.01,2013-02-08 08:39:00,
2013-02-08 03:40:00,27.3,26.3,29.91,NNE,18,3.0,8.0,96,0.00,,---,0.00,VWS V14.01,2013-02-08 08:40:00,
2013-02-08 03:41:00,27.3,26.3,29.91,NNE,20,6.0,8.0,96,0.00,,---,0.00,VWS V14.01,2013-02-08 08:41:00,
2013-02-08 03:42:00,27.4,26.4,29.91,NNE,25,2.0,8.0,96,0.00,,---,0.00,VWS V14.01,2013-02-08 08:42:00,
2013-02-08 03:43:00,27.4,26.4,29.91,North,11,3.0,8.0,96,0.00,,---,0.00,VWS V14.01,2013-02-08 08:43:00,
2013-02-08 03:44:00,27.4,26.4,29.91,NNW,345,5.0,8.0,96,0.00,,---,0.00,VWS V14.01,2013-02-08 08:44:00,
2013-02-08 03:45:00,27.4,26.4,29.90,NE,36,3.0,8.0,96,0.00,,---,0.00,VWS V14.01,2013-02-08 08:45:00,
2013-02-08 03:46:00,27.4,26.4,29.90,North,353,3.0,5.0,96,0.00,,---,0.00,VWS V14.01,2013-02-08 08:46:00,
2013-02-08 03:47:00,27.4,26.4,29.91,ENE,57,1.0,5.0,96,0.00,,---,0.00,VWS V14.01,2013-02-08 08:47:00,
2013-02-08 03:48:00,27.4,26.4,29.91,NNE,24,4.0,5.0,96,0.00,,---,0.00,VWS V14.01,2013-02-08 08:48:00,
2013-02-08 03:49:00,27.4,26.4,29.91,NE,34,7.0,8.0,96,0.00,,---,0.00,VWS V14.01,2013-02-08 08:49:00,
2013-02-08 03:50:00,27.5,26.5,29.91,NE,34,7.0,8.0,96,0.00,,---,0.00,VWS V14.01,2013-02-08 08:50:00,
2013-02-08 03:51:00,27.5,26.5,29.91,NNE,25,3.0,7.0,96,0.00,,---,0.00,VWS V14.01,2013-02-08 08:51:00,
2013-02-08 03:52:00,27.5,26.5,29.91,North,5,4.0,7.0,96,0.00,,---,0.00,VWS V14.01,2013-02-08 08:52:00,
2013-02-08 03:53:00,27.5,26.5,29.91,NNE,20,1.0,8.0,96,0.00,,---,0.00,VWS V14.01,2013-02-08 08:53:00,
2013-02-08 03:54:00,27.2,26.0,29.90,NNE,23,4.0,7.0,96,0.00,,,0.00,weatherlink.com 1.10,2013-02-08 08:54:00,
2013-02-08 03:55:00,27.5,26.5,29.91,NE,42,2.0,8.0,96,0.00,,---,0.00,VWS V14.01,2013-02-08 08:55:00,
2013-02-08 03:56:00,27.5,26.5,29.91,NNW,331,2.0,5.0,96,0.00,,---,0.00,VWS V14.01,2013-02-08 08:56:00,
2013-02-08 03:57:00,27.6,26.6,29.91,NE,34,2.0,5.0,96,0.00,,---,0.00,VWS V14.01,2013-02-08 08:57:00,
2013-02-08 03:58:00,27.5,26.5,29.91,NNW,348,4.0,6.0,96,0.00,,---,0.00,VWS V14.01,2013-02-08 08:58:00,
2013-02-08 03:59:00,27.6,26.6,29.91,NNW,327,2.0,6.0,96,0.00,,---,0.00,VWS V14.01,2013-02-08 08:59:00,
2013-02-08 04:00:00,27.6,26.6,29.91,NNW,341,3.0,6.0,96,0.00,,---,0.00,VWS V14.01,2013-02-08 09:00:00,
2013-02-08 04:01:00,27.6,26.6,29.91,North,6,4.0,6.0,96,0.00,,---,0.00,VWS V14.01,2013-02-08 09:01:00,
2013-02-08 04:02:00,27.6,26.6,29.91,NNE,18,6.0,6.0,96,0.00,,---,0.00,VWS V14.01,2013-02-08 09:02:00,
2013-02-08 04:03:00,27.6,26.6,29.91,NNE,23,2.0,7.0,96,0.00,,---,0.00,VWS V14.01,2013-02-08 09:03:00,
2013-02-08 04:04:00,27.6,26.6,29.91,NNW,329,3.0,7.0,96,0.00,,---,0.00,VWS V14.01,2013-02-08 09:04:00,
2013-02-08 04:05:00,27.7,26.7,29.91,NE,40,5.0,7.0,96,0.00,,---,0.00,VWS V14.01,2013-02-08 09:05:00,
2013-02-08 04:06:00,27.7,26.7,29.91,NW,323,3.0,6.0,96,0.00,,---,0.00,VWS V14.01,2013-02-08 09:06:00,
2013-02-08 04:07:00,27.7,26.7,29.91,North,354,3.0,6.0,96,0.00,,---,0.00,VWS V14.01,2013-02-08 09:07:00,
2013-02-08 04:08:00,27.7,26.7,29.92,NNE,20,1.0,6.0,96,0.00,,---,0.00,VWS V14.01,2013-02-08 09:08:00,
2013-02-08 04:09:00,27.7,26.7,29.91,North,9,5.0,6.0,96,0.00,,---,0.00,VWS V14.01,2013-02-08 09:09:00,
2013-02-08 04:10:00,27.7,26.7,29.91,ENE,71,2.0,6.0,96,0.00,,---,0.00,VWS V14.01,2013-02-08 09:10:00,
2013-02-08 04:11:00,27.7,26.7,29.91,North,5,3.0,3.0,96,0.00,,---,0.00,VWS V14.01,2013-02-08 09:11:00,
2013-02-08 04:12:00,27.4,26.0,29.91,North,349,5.0,7.0,96,0.00,,,0.00,weatherlink.com 1.10,2013-02-08 09:12:00,
2013-02-08 04:13:00,27.7,26.7,29.92,NE,41,3.0,7.0,96,0.00,,---,0.00,VWS V14.01,2013-02-08 09:13:00,
2013-02-08 04:14:00,27.7,26.7,29.92,North,358,3.0,7.0,96,0.00,,---,0.00,VWS V14.01,2013-02-08 09:14:00,
2013-02-08 04:15:00,27.8,26.8,29.92,NNE,32,4.0,7.0,96,0.00,,---,0.00,VWS V14.01,2013-02-08 09:15:00,
2013-02-08 04:16:00,27.8,26.8,29.92,NE,39,4.0,7.0,96,0.00,,---,0.00,VWS V14.01,2013-02-08 09:16:00,
2013-02-08 04:17:00,27.8,26.8,29.92,NNE,18,2.0,7.0,96,0.00,,---,0.00,VWS V14.01,2013-02-08 09:17:00,
2013-02-08 04:18:00,27.8,26.8,29.92,North,356,5.0,7.0,96,0.00,,---,0.00,VWS V14.01,2013-02-08 09:18:00,
2013-02-08 04:19:00,27.8,26.8,29.92,NE,36,4.0,7.0,96,0.00,,---,0.00,VWS V14.01,2013-02-08 09:19:00,
2013-02-08 04:20:00,27.8,26.8,29.92,ENE,60,2.0,7.0,96,0.00,,---,0.00,VWS V14.01,2013-02-08 09:20:00,
2013-02-08 04:21:00,27.8,26.8,29.92,North,4,2.0,4.0,96,0.00,,---,0.00,VWS V14.01,2013-02-08 09:21:00,
2013-02-08 04:22:00,27.8,26.8,29.92,North,359,5.0,5.0,96,0.00,,---,0.00,VWS V14.01,2013-02-08 09:22:00,
2013-02-08 04:23:00,27.9,27.2,29.92,NNW,329,3.0,6.0,97,0.00,,---,0.00,VWS V14.01,2013-02-08 09:23:00,
2013-02-08 04:24:00,27.8,27.1,29.92,NNW,341,6.0,6.0,97,0.00,,---,0.00,VWS V14.01,2013-02-08 09:24:00,
2013-02-08 04:25:00,27.9,27.2,29.92,NNE,18,2.0,6.0,97,0.00,,---,0.00,VWS V14.01,2013-02-08 09:25:00,
2013-02-08 04:26:00,27.9,27.2,29.92,North,360,3.0,4.0,97,0.00,,---,0.00,VWS V14.01,2013-02-08 09:26:00,
2013-02-08 04:27:00,27.9,27.2,29.92,NNE,14,2.0,5.0,97,0.00,,---,0.00,VWS V14.01,2013-02-08 09:27:00,
2013-02-08 04:28:00,27.9,27.2,29.93,NNE,16,5.0,7.0,97,0.00,,---,0.00,VWS V14.01,2013-02-08 09:28:00,
2013-02-08 04:29:00,27.6,27.0,29.91,NNW,345,1.0,6.0,96,0.00,,,0.00,weatherlink.com 1.10,2013-02-08 09:29:00,
2013-02-08 04:30:00,27.9,27.2,29.93,WNW,290,3.0,7.0,97,0.00,,---,0.00,VWS V14.01,2013-02-08 09:30:00,
2013-02-08 04:31:00,27.9,27.2,29.93,North,6,3.0,5.0,97,0.00,,---,0.00,VWS V14.01,2013-02-08 09:31:00,
2013-02-08 04:32:00,27.9,27.2,29.93,NNW,345,3.0,7.0,97,0.00,,---,0.00,VWS V14.01,2013-02-08 09:32:00,
2013-02-08 04:33:00,28.0,27.3,29.93,NE,34,2.0,7.0,97,0.00,,---,0.00,VWS V14.01,2013-02-08 09:33:00,
2013-02-08 04:34:00,28.0,27.3,29.93,NNW,339,6.0,7.0,97,0.00,,---,0.00,VWS V14.01,2013-02-08 09:34:00,
2013-02-08 04:35:00,28.0,27.3,29.93,NNW,341,2.0,13.0,97,0.00,,---,0.00,VWS V14.01,2013-02-08 09:35:00,
2013-02-08 04:36:00,28.0,27.3,29.93,ENE,60,4.0,5.0,97,0.00,,---,0.00,VWS V14.01,2013-02-08 09:36:00,
2013-02-08 04:37:00,28.0,27.3,29.93,NNE,15,4.0,5.0,97,0.00,,---,0.00,VWS V14.01,2013-02-08 09:37:00,
2013-02-08 04:38:00,28.0,27.3,29.93,NE,46,4.0,6.0,97,0.00,,---,0.00,VWS V14.01,2013-02-08 09:38:00,
2013-02-08 04:39:00,28.0,27.3,29.93,North,3,3.0,6.0,97,0.00,,---,0.00,VWS V14.01,2013-02-08 09:39:00,
2013-02-08 04:40:00,28.0,27.3,29.93,North,351,5.0,6.0,97,0.00,,---,0.00,VWS V14.01,2013-02-08 09:40:00,
2013-02-08 04:41:00,28.0,27.3,29.93,ENE,62,4.0,6.0,97,0.00,,---,0.00,VWS V14.01,2013-02-08 09:41:00,
2013-02-08 04:42:00,28.0,27.3,29.93,NNW,328,3.0,6.0,97,0.00,,---,0.00,VWS V14.01,2013-02-08 09:42:00,
2013-02-08 04:43:00,28.0,27.3,29.93,North,4,8.0,8.0,97,0.00,,---,0.00,VWS V14.01,2013-02-08 09:43:00,
2013-02-08 04:44:00,28.0,27.3,29.93,NNW,332,3.0,8.0,97,0.00,,---,0.00,VWS V14.01,2013-02-08 09:44:00,
2013-02-08 04:45:00,28.0,27.3,29.93,North,4,4.0,8.0,97,0.00,,---,0.00,VWS V14.01,2013-02-08 09:45:00,
2013-02-08 04:46:00,28.0,27.3,29.93,NNE,27,3.0,6.0,97,0.00,,---,0.00,VWS V14.01,2013-02-08 09:46:00,
2013-02-08 04:47:00,27.8,27.0,29.92,NNE,26,4.0,7.0,96,0.00,,,0.00,weatherlink.com 1.10,2013-02-08 09:47:00,
2013-02-08 04:48:00,28.0,27.3,29.93,North,356,3.0,12.0,97,0.00,,---,0.00,VWS V14.01,2013-02-08 09:48:00,
2013-02-08 04:49:00,28.1,27.4,29.94,North,11,6.0,12.0,97,0.00,,---,0.00,VWS V14.01,2013-02-08 09:49:00,
2013-02-08 04:50:00,28.0,27.3,29.94,North,355,5.0,12.0,97,0.00,,---,0.00,VWS V14.01,2013-02-08 09:50:00,
2013-02-08 04:51:00,28.0,27.3,29.94,ENE,71,4.0,5.0,97,0.00,,---,0.00,VWS V14.01,2013-02-08 09:51:00,
2013-02-08 04:52:00,28.0,27.3,29.94,NE,48,6.0,7.0,97,0.00,,---,0.00,VWS V14.01,2013-02-08 09:52:00,
2013-02-08 04:53:00,28.0,27.0,29.94,NNE,26,4.0,7.0,96,0.00,,---,0.00,VWS V14.01,2013-02-08 09:53:00,
2013-02-08 04:54:00,28.0,27.3,29.94,ENE,65,5.0,7.0,97,0.00,,---,0.00,VWS V14.01,2013-02-08 09:54:00,
2013-02-08 04:55:00,28.0,27.3,29.94,ENE,61,6.0,7.0,97,0.00,,---,0.00,VWS V14.01,2013-02-08 09:55:00,
2013-02-08 04:56:00,28.0,27.0,29.94,NNE,29,6.0,6.0,96,0.00,,---,0.00,VWS V14.01,2013-02-08 09:56:00,
2013-02-08 04:57:00,28.0,27.0,29.94,NNW,341,5.0,8.0,96,0.00,,---,0.00,VWS V14.01,2013-02-08 09:57:00,
2013-02-08 04:58:00,28.0,27.0,29.94,NE,46,4.0,9.0,96,0.00,,---,0.00,VWS V14.01,2013-02-08 09:58:00,
2013-02-08 04:59:00,28.1,27.1,29.94,NNW,338,4.0,9.0,96,0.00,,---,0.00,VWS V14.01,2013-02-08 09:59:00,
2013-02-08 05:00:00,28.0,27.0,29.94,NNE,25,4.0,9.0,96,0.00,,---,0.00,VWS V14.01,2013-02-08 10:00:00,
2013-02-08 05:01:00,28.0,27.0,29.94,NNE,12,7.0,7.0,96,0.00,,---,0.00,VWS V14.01,2013-02-08 10:01:00,
2013-02-08 05:02:00,28.0,27.0,29.95,NNW,345,2.0,7.0,96,0.00,,---,0.00,VWS V14.01,2013-02-08 10:02:00,
2013-02-08 05:03:00,28.0,27.0,29.95,North,6,2.0,7.0,96,0.00,,---,0.00,VWS V14.01,2013-02-08 10:03:00,
2013-02-08 05:04:00,28.0,27.0,29.95,North,351,2.0,7.0,96,0.00,,---,0.00,VWS V14.01,2013-02-08 10:04:00,
2013-02-08 05:05:00,28.0,27.0,29.93,NNE,29,8.0,12.0,97,0.00,,,0.00,weatherlink.com 1.10,2013-02-08 10:05:00,
2013-02-08 05:06:00,28.0,27.0,29.95,NNE,26,5.0,11.0,96,0.00,,---,0.00,VWS V14.01,2013-02-08 10:06:00,
2013-02-08 05:07:00,28.0,27.0,29.95,North,354,2.0,11.0,96,0.00,,---,0.00,VWS V14.01,2013-02-08 10:07:00,
2013-02-08 05:08:00,28.0,27.0,29.95,NE,50,3.0,11.0,96,0.00,,---,0.00,VWS V14.01,2013-02-08 10:08:00,
2013-02-08 05:09:00,28.0,27.0,29.95,North,360,9.0,11.0,96,0.00,,---,0.00,VWS V14.01,2013-02-08 10:09:00,
2013-02-08 05:10:00,28.0,27.0,29.95,NNW,346,6.0,11.0,96,0.00,,---,0.00,VWS V14.01,2013-02-08 10:10:00,
2013-02-08 05:11:00,28.0,27.0,29.96,NE,46,5.0,7.0,96,0.00,,---,0.00,VWS V14.01,2013-02-08 10:11:00,
2013-02-08 05:12:00,28.0,27.0,29.95,NNE,25,6.0,8.0,96,0.00,,---,0.00,VWS V14.01,2013-02-08 10:12:00,
2013-02-08 05:13:00,28.0,27.0,29.96,NNW,333,5.0,8.0,96,0.00,,---,0.00,VWS V14.01,2013-02-08 10:13:00,
2013-02-08 05:14:00,28.0,27.0,29.96,NNW,335,3.0,8.0,96,0.00,,---,0.00,VWS V14.01,2013-02-08 10:14:00,
2013-02-08 05:15:00,28.0,27.0,29.96,ENE,65,11.0,11.0,96,0.00,,---,0.00,VWS V14.01,2013-02-08 10:15:00,
2013-02-08 05:16:00,27.9,26.9,29.96,NNW,335,4.0,11.0,96,0.00,,---,0.00,VWS V14.01,2013-02-08 10:16:00,
2013-02-08 05:17:00,28.0,27.0,29.96,NNW,330,4.0,11.0,96,0.00,,---,0.00,VWS V14.01,2013-02-08 10:17:00,
2013-02-08 05:18:00,27.9,26.9,29.96,NE,42,1.0,11.0,96,0.00,,---,0.00,VWS V14.01,2013-02-08 10:18:00,
2013-02-08 05:19:00,27.9,26.9,29.96,ENE,63,8.0,11.0,96,0.00,,---,0.00,VWS V14.01,2013-02-08 10:19:00,
2013-02-08 05:20:00,27.9,26.9,29.96,NE,44,8.0,11.0,96,0.00,,---,0.00,VWS V14.01,2013-02-08 10:20:00,
2013-02-08 05:21:00,28.0,27.0,29.94,NNW,339,3.0,11.0,97,0.00,,,0.00,weatherlink.com 1.10,2013-02-08 10:21:00,
2013-02-08 05:22:00,27.9,26.9,29.96,NNE,28,8.0,8.0,96,0.00,,---,0.00,VWS V14.01,2013-02-08 10:22:00,
2013-02-08 05:23:00,27.9,26.9,29.96,North,6,6.0,10.0,96,0.00,,---,0.00,VWS V14.01,2013-02-08 10:23:00,
2013-02-08 05:24:00,27.9,26.9,29.97,NNE,30,10.0,10.0,96,0.00,,---,0.00,VWS V14.01,2013-02-08 10:24:00,
2013-02-08 05:25:00,27.8,26.8,29.97,North,354,5.0,10.0,96,0.00,,---,0.00,VWS V14.01,2013-02-08 10:25:00,
2013-02-08 05:26:00,27.9,26.9,29.97,NNE,30,5.0,7.0,96,0.00,,---,0.00,VWS V14.01,2013-02-08 10:26:00,
2013-02-08 05:27:00,27.8,26.8,29.97,North,352,8.0,8.0,96,0.00,,---,0.00,VWS V14.01,2013-02-08 10:27:00,
2013-02-08 05:28:00,27.8,26.8,29.97,NNW,332,7.0,10.0,96,0.00,,---,0.00,VWS V14.01,2013-02-08 10:28:00,
2013-02-08 05:29:00,27.8,26.8,29.97,NNE,26,3.0,10.0,96,0.00,,---,0.00,VWS V14.01,2013-02-08 10:29:00,
2013-02-08 05:30:00,27.8,26.8,29.97,NNE,15,2.0,10.0,96,0.00,,---,0.00,VWS V14.01,2013-02-08 10:30:00,
2013-02-08 05:31:00,27.8,26.8,29.97,North,349,2.0,5.0,96,0.00,,---,0.00,VWS V14.01,2013-02-08 10:31:00,
2013-02-08 05:32:00,27.8,26.8,29.97,ESE,102,3.0,5.0,96,0.00,,---,0.00,VWS V14.01,2013-02-08 10:32:00,
2013-02-08 05:33:00,27.8,26.8,29.97,North,6,4.0,9.0,96,0.00,,---,0.00,VWS V14.01,2013-02-08 10:33:00,
2013-02-08 05:34:00,27.8,26.8,29.97,ESE,108,6.0,9.0,96,0.00,,---,0.00,VWS V14.01,2013-02-08 10:34:00,
2013-02-08 05:35:00,27.8,26.8,29.97,NE,39,4.0,10.0,96,0.00,,---,0.00,VWS V14.01,2013-02-08 10:35:00,
2013-02-08 05:36:00,27.8,26.8,29.98,ENE,71,5.0,10.0,96,0.00,,---,0.00,VWS V14.01,2013-02-08 10:36:00,
2013-02-08 05:37:00,27.8,26.8,29.97,NE,44,5.0,10.0,96,0.00,,---,0.00,VWS V14.01,2013-02-08 10:37:00,
2013-02-08 05:38:00,27.7,26.7,29.98,NNW,335,5.0,10.0,96,0.00,,---,0.00,VWS V14.01,2013-02-08 10:38:00,
2013-02-08 05:39:00,28.0,27.0,29.96,North,11,6.0,11.0,96,0.00,,,0.00,weatherlink.com 1.10,2013-02-08 10:39:00,
2013-02-08 05:40:00,27.7,26.7,29.98,NE,36,9.0,10.0,96,0.00,,---,0.00,VWS V14.01,2013-02-08 10:40:00,
2013-02-08 05:41:00,27.7,26.7,29.97,North,11,7.0,10.0,96,0.00,,---,0.00,VWS V14.01,2013-02-08 10:41:00,
2013-02-08 05:42:00,27.7,26.7,29.98,North,6,2.0,10.0,96,0.00,,---,0.00,VWS V14.01,2013-02-08 10:42:00,
2013-02-08 05:43:00,27.7,26.7,29.98,NNE,15,8.0,10.0,96,0.00,,---,0.00,VWS V14.01,2013-02-08 10:43:00,
2013-02-08 05:44:00,27.7,26.7,29.98,North,351,8.0,13.0,96,0.00,,---,0.00,VWS V14.01,2013-02-08 10:44:00,
2013-02-08 05:45:00,27.7,26.7,29.98,NE,34,5.0,13.0,96,0.00,,---,0.00,VWS V14.01,2013-02-08 10:45:00,
2013-02-08 05:46:00,27.7,26.7,29.98,North,8,9.0,11.0,96,0.00,,---,0.00,VWS V14.01,2013-02-08 10:46:00,
2013-02-08 05:47:00,27.6,26.6,29.98,North,6,8.0,11.0,96,0.00,,---,0.00,VWS V14.01,2013-02-08 10:47:00,
2013-02-08 05:48:00,27.6,26.6,29.98,NNE,25,7.0,14.0,96,0.00,,---,0.00,VWS V14.01,2013-02-08 10:48:00,
2013-02-08 05:49:00,27.6,26.6,29.98,North,352,7.0,14.0,96,0.00,,---,0.00,VWS V14.01,2013-02-08 10:49:00,
2013-02-08 05:50:00,27.6,26.6,29.98,NE,34,11.0,14.0,96,0.00,,---,0.00,VWS V14.01,2013-02-08 10:50:00,
2013-02-08 05:51:00,27.5,26.5,29.98,NNE,18,7.0,13.0,96,0.00,,---,0.00,VWS V14.01,2013-02-08 10:51:00,
2013-02-08 05:52:00,27.5,26.5,29.98,North,9,5.0,13.0,96,0.00,,---,0.00,VWS V14.01,2013-02-08 10:52:00,
2013-02-08 05:53:00,27.5,26.5,29.98,NNE,15,4.0,13.0,96,0.00,,---,0.00,VWS V14.01,2013-02-08 10:53:00,
2013-02-08 05:54:00,27.5,26.5,29.98,NW,314,4.0,13.0,96,0.00,,---,0.00,VWS V14.01,2013-02-08 10:54:00,
2013-02-08 05:55:00,27.8,27.0,29.97,NNE,32,2.0,9.0,96,0.00,,,0.00,weatherlink.com 1.10,2013-02-08 10:55:00,
2013-02-08 05:56:00,27.5,26.5,29.99,NW,320,5.0,5.0,96,0.00,,---,0.00,VWS V14.01,2013-02-08 10:56:00,
2013-02-08 05:57:00,27.5,26.5,29.99,NNE,25,4.0,10.0,96,0.00,,---,0.00,VWS V14.01,2013-02-08 10:57:00,
2013-02-08 05:58:00,27.5,26.5,29.99,NE,50,5.0,10.0,96,0.00,,---,0.00,VWS V14.01,2013-02-08 10:58:00,
2013-02-08 05:59:00,27.5,26.5,29.99,NNW,327,2.0,10.0,96,0.00,,---,0.00,VWS V14.01,2013-02-08 10:59:00,
2013-02-08 06:00:00,27.5,26.5,29.99,NNW,336,9.0,10.0,96,0.00,,---,0.00,VWS V14.01,2013-02-08 11:00:00,
2013-02-08 06:01:00,27.4,26.4,29.99,NNW,346,7.0,9.0,96,0.00,,---,0.00,VWS V14.01,2013-02-08 11:01:00,
2013-02-08 06:02:00,27.4,26.4,29.99,NNW,342,3.0,9.0,96,0.00,,---,0.00,VWS V14.01,2013-02-08 11:02:00,
2013-02-08 06:03:00,27.4,26.4,29.99,NNE,13,7.0,9.0,96,0.00,,---,0.00,VWS V14.01,2013-02-08 11:03:00,
2013-02-08 06:04:00,27.4,26.4,29.99,NNE,26,4.0,9.0,96,0.00,,---,0.00,VWS V14.01,2013-02-08 11:04:00,
2013-02-08 06:05:00,27.4,26.4,29.99,NE,41,3.0,9.0,96,0.00,,---,0.00,VWS V14.01,2013-02-08 11:05:00,
2013-02-08 06:06:00,27.4,26.4,29.99,NW,325,9.0,9.0,96,0.00,,---,0.00,VWS V14.01,2013-02-08 11:06:00,
2013-02-08 06:07:00,27.4,26.4,29.99,NNW,348,7.0,10.0,96,0.00,,---,0.00,VWS V14.01,2013-02-08 11:07:00,
2013-02-08 06:08:00,27.4,26.4,29.99,NNE,29,7.0,10.0,96,0.00,,---,0.00,VWS V14.01,2013-02-08 11:08:00,
2013-02-08 06:09:00,27.4,26.4,29.99,NE,39,3.0,11.0,96,0.00,,---,0.00,VWS V14.01,2013-02-08 11:09:00,
2013-02-08 06:10:00,27.3,26.3,29.99,NNE,23,1.0,11.0,96,0.00,,---,0.00,VWS V14.01,2013-02-08 11:10:00,
2013-02-08 06:11:00,27.3,26.3,29.99,NNE,16,7.0,9.0,96,0.00,,---,0.00,VWS V14.01,2013-02-08 11:11:00,
2013-02-08 06:12:00,27.3,26.3,29.99,NNE,16,5.0,11.0,96,0.00,,---,0.00,VWS V14.01,2013-02-08 11:12:00,
2013-02-08 06:13:00,27.6,27.0,29.98,NE,56,9.0,12.0,96,0.00,,,0.00,weatherlink.com 1.10,2013-02-08 11:13:00,
2013-02-08 06:14:00,27.3,26.3,29.99,ENE,58,3.0,14.0,96,0.00,,---,0.00,VWS V14.01,2013-02-08 11:14:00,
2013-02-08 06:15:00,27.2,26.2,30.00,East,82,6.0,14.0,96,0.00,,---,0.00,VWS V14.01,2013-02-08 11:15:00,
2013-02-08 06:16:00,27.3,26.3,30.00,North,6,3.0,6.0,96,0.00,,---,0.00,VWS V14.01,2013-02-08 11:16:00,
2013-02-08 06:17:00,27.2,26.2,30.00,North,351,4.0,10.0,96,0.00,,---,0.00,VWS V14.01,2013-02-08 11:17:00,
2013-02-08 06:18:00,27.2,26.2,30.00,North,5,7.0,10.0,96,0.00,,---,0.00,VWS V14.01,2013-02-08 11:18:00,
2013-02-08 06:19:00,27.2,26.2,29.99,North,357,5.0,10.0,96,0.00,,---,0.00,VWS V14.01,2013-02-08 11:19:00,
2013-02-08 06:20:00,27.2,26.2,30.00,NE,50,5.0,10.0,96,0.00,,---,0.00,VWS V14.01,2013-02-08 11:20:00,
2013-02-08 06:21:00,27.2,26.2,30.00,East,92,3.0,6.0,96,0.00,,---,0.00,VWS V14.01,2013-02-08 11:21:00,
2013-02-08 06:22:00,27.2,26.2,30.00,ENE,60,3.0,6.0,96,0.00,,---,0.00,VWS V14.01,2013-02-08 11:22:00,
2013-02-08 06:23:00,27.2,26.2,30.00,NNE,16,2.0,6.0,96,0.00,,---,0.00,VWS V14.01,2013-02-08 11:23:00,
2013-02-08 06:24:00,27.2,26.2,30.00,NW,304,3.0,6.0,96,0.00,,---,0.00,VWS V14.01,2013-02-08 11:24:00,
2013-02-08 06:25:00,27.2,26.2,30.00,NE,51,4.0,6.0,96,0.00,,---,0.00,VWS V14.01,2013-02-08 11:25:00,
2013-02-08 06:26:00,27.2,26.2,30.00,West,271,4.0,8.0,96,0.00,,---,0.00,VWS V14.01,2013-02-08 11:26:00,
2013-02-08 06:27:00,27.2,26.2,30.00,NNE,15,2.0,8.0,96,0.00,,---,0.00,VWS V14.01,2013-02-08 11:27:00,
2013-02-08 06:28:00,27.2,26.2,30.00,NW,311,4.0,8.0,96,0.00,,---,0.00,VWS V14.01,2013-02-08 11:28:00,
2013-02-08 06:29:00,27.2,26.2,30.00,NNE,16,3.0,8.0,96,0.00,,---,0.00,VWS V14.01,2013-02-08 11:29:00,
2013-02-08 06:30:00,27.2,26.2,30.00,NNE,15,6.0,11.0,96,0.00,,---,0.00,VWS V14.01,2013-02-08 11:30:00,
2013-02-08 06:31:00,27.4,26.0,29.99,NNE,29,3.0,10.0,96,0.00,,,0.00,weatherlink.com 1.10,2013-02-08 11:31:00,
2013-02-08 06:32:00,27.1,26.1,30.00,NE,50,4.0,12.0,96,0.00,,---,0.00,VWS V14.01,2013-02-08 11:32:00,
2013-02-08 06:33:00,27.1,26.1,30.01,North,349,7.0,12.0,96,0.00,,---,0.00,VWS V14.01,2013-02-08 11:33:00,
2013-02-08 06:34:00,27.1,26.1,30.01,NE,38,6.0,12.0,96,0.00,,---,0.00,VWS V14.01,2013-02-08 11:34:00,
2013-02-08 06:35:00,27.1,26.1,30.01,NW,322,4.0,12.0,96,0.00,,---,0.00,VWS V14.01,2013-02-08 11:35:00,
2013-02-08 06:36:00,27.0,25.8,30.01,North,6,6.0,6.0,95,0.00,,---,0.00,VWS V14.01,2013-02-08 11:36:00,
2013-02-08 06:37:00,27.0,25.8,30.01,NE,42,7.0,7.0,95,0.00,,---,0.00,VWS V14.01,2013-02-08 11:37:00,
2013-02-08 06:38:00,27.0,25.8,30.01,NE,46,6.0,7.0,95,0.00,,---,0.00,VWS V14.01,2013-02-08 11:38:00,
2013-02-08 06:39:00,26.9,25.7,30.01,North,356,5.0,9.0,95,0.00,,---,0.00,VWS V14.01,2013-02-08 11:39:00,
2013-02-08 06:40:00,26.9,25.7,30.01,NE,52,6.0,11.0,95,0.00,,---,0.00,VWS V14.01,2013-02-08 11:40:00,
2013-02-08 06:41:00,26.9,25.7,30.01,NNE,32,10.0,10.0,95,0.00,,---,0.00,VWS V14.01,2013-02-08 11:41:00,
2013-02-08 06:42:00,26.9,25.7,30.01,NNE,32,3.0,10.0,95,0.00,,---,0.00,VWS V14.01,2013-02-08 11:42:00,
2013-02-08 06:43:00,26.8,25.6,30.01,NE,54,4.0,10.0,95,0.00,,---,0.00,VWS V14.01,2013-02-08 11:43:00,
2013-02-08 06:44:00,26.8,25.6,30.01,ENE,62,10.0,10.0,95,0.00,,---,0.00,VWS V14.01,2013-02-08 11:44:00,
2013-02-08 06:45:00,26.8,25.6,30.01,NE,50,4.0,12.0,95,0.00,,---,0.00,VWS V14.01,2013-02-08 11:45:00,
2013-02-08 06:46:00,26.8,25.6,30.02,NNE,13,5.0,7.0,95,0.00,,---,0.00,VWS V14.01,2013-02-08 11:46:00,
2013-02-08 06:47:00,27.2,26.0,30.00,NNE,12,3.0,13.0,96,0.00,,,0.00,weatherlink.com 1.10,2013-02-08 11:47:00,
2013-02-08 06:48:00,26.7,25.5,30.02,NNE,32,4.0,8.0,95,0.00,,---,0.00,VWS V14.01,2013-02-08 11:48:00,
2013-02-08 06:49:00,26.7,25.5,30.02,NNE,25,5.0,8.0,95,0.00,,---,0.00,VWS V14.01,2013-02-08 11:49:00,
2013-02-08 06:50:00,26.7,25.5,30.02,NE,49,2.0,8.0,95,0.00,,---,0.00,VWS V14.01,2013-02-08 11:50:00,
2013-02-08 06:51:00,26.7,25.5,30.02,ENE,59,7.0,8.0,95,0.00,,---,0.00,VWS V14.01,2013-02-08 11:51:00,
2013-02-08 06:52:00,26.7,25.5,30.02,North,356,4.0,8.0,95,0.00,,---,0.00,VWS V14.01,2013-02-08 11:52:00,
2013-02-08 06:53:00,26.7,25.5,30.02,NNE,32,3.0,11.0,95,0.00,,---,0.00,VWS V14.01,2013-02-08 11:53:00,
2013-02-08 06:54:00,26.6,25.4,30.02,North,1,3.0,11.0,95,0.00,,---,0.00,VWS V14.01,2013-02-08 11:54:00,
2013-02-08 06:55:00,26.6,25.4,30.02,NNE,25,3.0,11.0,95,0.00,,---,0.00,VWS V14.01,2013-02-08 11:55:00,
2013-02-08 06:56:00,26.6,25.4,30.02,NE,44,8.0,8.0,95,0.00,,---,0.00,VWS V14.01,2013-02-08 11:56:00,
2013-02-08 06:57:00,26.6,25.4,30.02,NW,325,1.0,8.0,95,0.00,,---,0.00,VWS V14.01,2013-02-08 11:57:00,
2013-02-08 06:58:00,26.6,25.4,30.02,NNE,16,8.0,8.0,95,0.00,,---,0.00,VWS V14.01,2013-02-08 11:58:00,
2013-02-08 06:59:00,26.6,25.4,30.02,NE,41,1.0,8.0,95,0.00,,---,0.00,VWS V14.01,2013-02-08 11:59:00,
2013-02-08 07:00:00,26.6,25.4,30.02,NNE,25,4.0,8.0,95,0.00,,---,0.00,VWS V14.01,2013-02-08 12:00:00,
2013-02-08 07:01:00,26.6,25.4,30.02,NNW,328,4.0,7.0,95,0.00,,---,0.00,VWS V14.01,2013-02-08 12:01:00,
2013-02-08 07:02:00,26.5,25.3,30.02,NW,325,3.0,7.0,95,0.00,,---,0.00,VWS V14.01,2013-02-08 12:02:00,
2013-02-08 07:03:00,26.6,25.4,30.02,NNE,29,2.0,7.0,95,0.00,,---,0.00,VWS V14.01,2013-02-08 12:03:00,
2013-02-08 07:04:00,26.5,25.3,30.02,North,356,3.0,7.0,95,0.00,,---,0.00,VWS V14.01,2013-02-08 12:04:00,
2013-02-08 07:05:00,26.9,26.0,30.01,East,79,3.0,11.0,95,0.00,,,0.00,weatherlink.com 1.10,2013-02-08 12:05:00,
2013-02-08 07:06:00,26.5,25.3,30.03,NE,51,5.0,5.0,95,0.00,,---,0.00,VWS V14.01,2013-02-08 12:06:00,
2013-02-08 07:07:00,26.6,25.4,30.03,NNE,32,2.0,5.0,95,0.00,,---,0.00,VWS V14.01,2013-02-08 12:07:00,
2013-02-08 07:08:00,26.6,25.4,30.03,NE,54,4.0,5.0,95,0.00,,---,0.00,VWS V14.01,2013-02-08 12:08:00,
2013-02-08 07:09:00,26.6,25.4,30.03,NNE,23,5.0,7.0,95,0.00,,---,0.00,VWS V14.01,2013-02-08 12:09:00,
2013-02-08 07:10:00,26.6,25.4,30.03,NNW,335,2.0,7.0,95,0.00,,---,0.00,VWS V14.01,2013-02-08 12:10:00,
2013-02-08 07:11:00,26.6,25.4,30.03,NE,34,1.0,5.0,95,0.00,,---,0.00,VWS V14.01,2013-02-08 12:11:00,
2013-02-08 07:12:00,26.6,25.4,30.03,NNW,333,8.0,8.0,95,0.00,,---,0.00,VWS V14.01,2013-02-08 12:12:00,
2013-02-08 07:13:00,26.6,25.4,30.03,NE,38,11.0,11.0,95,0.00,,---,0.00,VWS V14.01,2013-02-08 12:13:00,
2013-02-08 07:14:00,26.6,25.4,30.03,NNE,19,4.0,11.0,95,0.00,,---,0.00,VWS V14.01,2013-02-08 12:14:00,
2013-02-08 07:15:00,26.6,25.4,30.03,NE,40,2.0,11.0,95,0.00,,---,0.00,VWS V14.01,2013-02-08 12:15:00,
2013-02-08 07:16:00,26.6,25.4,30.03,NE,54,6.0,10.0,95,0.00,,---,0.00,VWS V14.01,2013-02-08 12:16:00,
2013-02-08 07:17:00,26.6,25.4,30.03,NNE,16,9.0,11.0,95,0.00,,---,0.00,VWS V14.01,2013-02-08 12:17:00,
2013-02-08 07:18:00,26.6,25.4,30.03,NNE,18,5.0,11.0,95,0.00,,---,0.00,VWS V14.01,2013-02-08 12:18:00,
2013-02-08 07:19:00,26.6,25.4,30.04,East,83,2.0,11.0,95,0.00,,---,0.00,VWS V14.01,2013-02-08 12:19:00,
2013-02-08 07:20:00,26.6,25.4,30.04,NNW,346,4.0,11.0,95,0.00,,---,0.00,VWS V14.01,2013-02-08 12:20:00,
2013-02-08 07:21:00,26.5,25.3,30.04,NNW,333,5.0,8.0,95,0.00,,---,0.00,VWS V14.01,2013-02-08 12:21:00,
2013-02-08 07:22:00,26.6,25.0,30.02,NE,52,5.0,10.0,95,0.00,,,0.00,weatherlink.com 1.10,2013-02-08 12:22:00,
2013-02-08 07:23:00,26.5,25.3,30.04,NNE,22,8.0,8.0,95,0.00,,---,0.00,VWS V14.01,2013-02-08 12:23:00,
2013-02-08 07:24:00,26.5,25.0,30.04,NNW,337,5.0,8.0,94,0.00,,---,0.00,VWS V14.01,2013-02-08 12:24:00,
2013-02-08 07:25:00,26.4,24.9,30.04,NNW,342,7.0,11.0,94,0.00,,---,0.00,VWS V14.01,2013-02-08 12:25:00,
2013-02-08 07:26:00,26.3,24.8,30.04,NNE,23,7.0,7.0,94,0.00,,---,0.00,VWS V14.01,2013-02-08 12:26:00,
2013-02-08 07:27:00,26.3,24.8,30.05,North,349,6.0,9.0,94,0.00,,---,0.00,VWS V14.01,2013-02-08 12:27:00,
2013-02-08 07:28:00,26.3,24.8,30.05,ENE,65,6.0,9.0,94,0.00,,---,0.00,VWS V14.01,2013-02-08 12:28:00,
2013-02-08 07:29:00,26.2,24.7,30.05,NE,51,5.0,9.0,94,0.00,,---,0.00,VWS V14.01,2013-02-08 12:29:00,
2013-02-08 07:30:00,26.2,24.7,30.05,NNW,333,4.0,11.0,94,0.00,,---,0.00,VWS V14.01,2013-02-08 12:30:00,
2013-02-08 07:31:00,26.2,24.7,30.05,NNE,12,7.0,9.0,94,0.00,,---,0.00,VWS V14.01,2013-02-08 12:31:00,
2013-02-08 07:32:00,26.2,24.7,30.05,North,349,7.0,10.0,94,0.00,,---,0.00,VWS V14.01,2013-02-08 12:32:00,
2013-02-08 07:33:00,26.1,24.6,30.05,NNW,340,4.0,10.0,94,0.00,,---,0.00,VWS V14.01,2013-02-08 12:33:00,
2013-02-08 07:34:00,26.1,24.6,30.05,NNE,26,3.0,10.0,94,0.00,,---,0.00,VWS V14.01,2013-02-08 12:34:00,
2013-02-08 07:35:00,26.1,24.6,30.05,WNW,297,8.0,10.0,94,0.00,,---,0.00,VWS V14.01,2013-02-08 12:35:00,
2013-02-08 07:36:00,26.1,24.6,30.06,NNE,33,9.0,9.0,94,0.00,,---,0.00,VWS V14.01,2013-02-08 12:36:00,
2013-02-08 07:37:00,26.0,24.5,30.06,North,1,2.0,9.0,94,0.00,,---,0.00,VWS V14.01,2013-02-08 12:37:00,
2013-02-08 07:38:00,26.0,24.5,30.06,NNE,13,4.0,9.0,94,0.00,,---,0.00,VWS V14.01,2013-02-08 12:38:00,
2013-02-08 07:39:00,25.9,24.4,30.06,North,352,9.0,12.0,94,0.00,,---,0.00,VWS V14.01,2013-02-08 12:39:00,
2013-02-08 07:40:00,26.6,25.0,30.03,NNE,13,3.0,10.0,95,0.00,,,0.00,weatherlink.com 1.10,2013-02-08 12:40:00,
2013-02-08 07:41:00,25.8,24.1,30.06,NE,56,6.0,10.0,93,0.00,,---,0.00,VWS V14.01,2013-02-08 12:41:00,
2013-02-08 07:42:00,25.7,24.0,30.06,ENE,67,6.0,10.0,93,0.00,,---,0.00,VWS V14.01,2013-02-08 12:42:00,
2013-02-08 07:43:00,25.7,24.0,30.06,NNE,16,2.0,12.0,93,0.00,,---,0.00,VWS V14.01,2013-02-08 12:43:00,
2013-02-08 07:44:00,25.7,24.0,30.06,ENE,60,4.0,12.0,93,0.00,,---,0.00,VWS V14.01,2013-02-08 12:44:00,
2013-02-08 07:45:00,25.6,23.9,30.06,North,11,7.0,12.0,93,0.00,,---,0.00,VWS V14.01,2013-02-08 12:45:00,
2013-02-08 07:46:00,25.5,23.8,30.06,NNW,337,3.0,10.0,93,0.00,,---,0.00,VWS V14.01,2013-02-08 12:46:00,
2013-02-08 07:47:00,25.5,23.8,30.06,East,90,4.0,10.0,93,0.00,,---,0.00,VWS V14.01,2013-02-08 12:47:00,
2013-02-08 07:48:00,25.4,23.7,30.07,NNW,333,8.0,10.0,93,0.00,,---,0.00,VWS V14.01,2013-02-08 12:48:00,
2013-02-08 07:49:00,25.4,23.7,30.06,NE,34,5.0,10.0,93,0.00,,---,0.00,VWS V14.01,2013-02-08 12:49:00,
2013-02-08 07:50:00,25.3,23.6,30.07,North,6,4.0,10.0,93,0.00,,---,0.00,VWS V14.01,2013-02-08 12:50:00,
2013-02-08 07:51:00,25.3,23.6,30.07,NNE,32,4.0,6.0,93,0.00,,---,0.00,VWS V14.01,2013-02-08 12:51:00,
2013-02-08 07:52:00,25.3,23.6,30.07,NNE,19,5.0,10.0,93,0.00,,---,0.00,VWS V14.01,2013-02-08 12:52:00,
2013-02-08 07:53:00,25.3,23.6,30.07,NNW,338,6.0,10.0,93,0.00,,---,0.00,VWS V14.01,2013-02-08 12:53:00,
2013-02-08 07:54:00,25.2,23.5,30.07,NNW,345,8.0,12.0,93,0.00,,---,0.00,VWS V14.01,2013-02-08 12:54:00,
2013-02-08 07:55:00,25.2,23.5,30.07,NNE,27,6.0,12.0,93,0.00,,---,0.00,VWS V14.01,2013-02-08 12:55:00,
2013-02-08 07:56:00,26.2,25.0,30.05,North,349,2.0,11.0,94,0.00,,,0.00,weatherlink.com 1.10,2013-02-08 12:56:00,
2013-02-08 07:57:00,25.2,23.5,30.07,North,6,3.0,6.0,93,0.00,,---,0.00,VWS V14.01,2013-02-08 12:57:00,
2013-02-08 07:58:00,25.2,23.5,30.07,East,85,1.0,6.0,93,0.00,,---,0.00,VWS V14.01,2013-02-08 12:58:00,
2013-02-08 07:59:00,25.2,23.5,30.07,NNE,13,11.0,11.0,93,0.00,,---,0.00,VWS V14.01,2013-02-08 12:59:00,
2013-02-08 08:00:00,25.1,23.4,30.08,North,359,5.0,13.0,93,0.00,,---,0.00,VWS V14.01,2013-02-08 13:00:00,
2013-02-08 08:01:00,25.1,23.1,30.08,East,90,4.0,10.0,92,0.00,,---,0.00,VWS V14.01,2013-02-08 13:01:00,
2013-02-08 08:02:00,25.0,23.0,30.08,North,360,6.0,10.0,92,0.00,,---,0.00,VWS V14.01,2013-02-08 13:02:00,
2013-02-08 08:03:00,25.0,23.0,30.08,NNE,25,8.0,10.0,92,0.00,,---,0.00,VWS V14.01,2013-02-08 13:03:00,
2013-02-08 08:04:00,25.0,23.0,30.08,North,6,9.0,10.0,92,0.00,,---,0.00,VWS V14.01,2013-02-08 13:04:00,
2013-02-08 08:05:00,24.9,22.9,30.08,NE,46,6.0,11.0,92,0.00,,---,0.00,VWS V14.01,2013-02-08 13:05:00,
2013-02-08 08:06:00,24.8,22.8,30.09,NNE,13,2.0,8.0,92,0.00,,---,0.00,VWS V14.01,2013-02-08 13:06:00,
2013-02-08 08:07:00,24.8,22.8,30.09,North,4,4.0,8.0,92,0.00,,---,0.00,VWS V14.01,2013-02-08 13:07:00,
2013-02-08 08:08:00,24.8,22.8,30.09,NNE,20,7.0,8.0,92,0.00,,---,0.00,VWS V14.01,2013-02-08 13:08:00,
2013-02-08 08:09:00,24.7,22.7,30.09,NE,36,5.0,8.0,92,0.00,,---,0.00,VWS V14.01,2013-02-08 13:09:00,
2013-02-08 08:10:00,24.7,22.7,30.09,NNE,18,6.0,8.0,92,0.00,,---,0.00,VWS V14.01,2013-02-08 13:10:00,
2013-02-08 08:11:00,24.7,22.7,30.09,NNE,33,3.0,7.0,92,0.00,,---,0.00,VWS V14.01,2013-02-08 13:11:00,
2013-02-08 08:12:00,24.7,22.7,30.09,North,354,3.0,7.0,92,0.00,,---,0.00,VWS V14.01,2013-02-08 13:12:00,
2013-02-08 08:13:00,24.7,22.7,30.09,North,351,1.0,7.0,92,0.00,,---,0.00,VWS V14.01,2013-02-08 13:13:00,
2013-02-08 08:14:00,25.4,24.0,30.06,NNE,26,5.0,14.0,93,0.00,,,0.00,weatherlink.com 1.10,2013-02-08 13:14:00,
2013-02-08 08:15:00,24.7,22.7,30.09,NNE,26,4.0,10.0,92,0.00,,---,0.00,VWS V14.01,2013-02-08 13:15:00,
2013-02-08 08:16:00,24.7,22.7,30.10,North,5,6.0,7.0,92,0.00,,---,0.00,VWS V14.01,2013-02-08 13:16:00,
2013-02-08 08:17:00,24.7,23.0,30.10,NNW,348,3.0,7.0,93,0.00,,---,0.00,VWS V14.01,2013-02-08 13:17:00,
2013-02-08 08:18:00,24.7,23.0,30.10,North,5,9.0,9.0,93,0.00,,---,0.00,VWS V14.01,2013-02-08 13:18:00,
2013-02-08 08:19:00,24.7,23.0,30.10,North,351,4.0,9.0,93,0.00,,---,0.00,VWS V14.01,2013-02-08 13:19:00,
2013-02-08 08:20:00,24.7,23.0,30.10,NNE,22,2.0,9.0,93,0.00,,---,0.00,VWS V14.01,2013-02-08 13:20:00,
2013-02-08 08:21:00,24.7,23.0,30.10,NNW,333,3.0,4.0,93,0.00,,---,0.00,VWS V14.01,2013-02-08 13:21:00,
2013-02-08 08:22:00,24.7,23.0,30.10,North,9,2.0,4.0,93,0.00,,---,0.00,VWS V14.01,2013-02-08 13:22:00,
2013-02-08 08:23:00,24.8,23.1,30.10,NNE,23,4.0,4.0,93,0.00,,---,0.00,VWS V14.01,2013-02-08 13:23:00,
2013-02-08 08:24:00,24.8,23.1,30.10,NNW,342,2.0,7.0,93,0.00,,---,0.00,VWS V14.01,2013-02-08 13:24:00,
2013-02-08 08:25:00,24.8,23.1,30.10,NNE,12,6.0,7.0,93,0.00,,---,0.00,VWS V14.01,2013-02-08 13:25:00,
2013-02-08 08:26:00,24.8,23.1,30.10,NNE,22,1.0,7.0,93,0.00,,---,0.00,VWS V14.01,2013-02-08 13:26:00,
2013-02-08 08:27:00,24.8,23.1,30.10,NNW,335,4.0,7.0,93,0.00,,---,0.00,VWS V14.01,2013-02-08 13:27:00,
2013-02-08 08:28:00,24.8,23.1,30.10,North,11,4.0,7.0,93,0.00,,---,0.00,VWS V14.01,2013-02-08 13:28:00,
2013-02-08 08:29:00,24.8,23.1,30.10,NE,41,3.0,7.0,93,0.00,,---,0.00,VWS V14.01,2013-02-08 13:29:00,
2013-02-08 08:30:00,24.8,23.1,30.10,ENE,77,1.0,7.0,93,0.00,,---,0.00,VWS V14.01,2013-02-08 13:30:00,
2013-02-08 08:31:00,24.9,23.2,30.10,NW,304,6.0,7.0,93,0.00,,---,0.00,VWS V14.01,2013-02-08 13:31:00,
2013-02-08 08:32:00,24.8,23.0,30.09,North,352,5.0,12.0,92,0.00,,,0.00,weatherlink.com 1.10,2013-02-08 13:32:00,
2013-02-08 08:33:00,24.8,23.1,30.10,NNW,346,5.0,10.0,93,0.00,,---,0.00,VWS V14.01,2013-02-08 13:33:00,
2013-02-08 08:34:00,24.8,22.8,30.10,NNE,18,6.0,10.0,92,0.00,,---,0.00,VWS V14.01,2013-02-08 13:34:00,
2013-02-08 08:35:00,24.8,22.8,30.10,ENE,68,7.0,14.0,92,0.00,,---,0.00,VWS V14.01,2013-02-08 13:35:00,
2013-02-08 08:36:00,24.7,22.7,30.10,North,359,9.0,10.0,92,0.00,,---,0.00,VWS V14.01,2013-02-08 13:36:00,
2013-02-08 08:37:00,24.7,22.7,30.11,NE,34,6.0,10.0,92,0.00,,---,0.00,VWS V14.01,2013-02-08 13:37:00,
2013-02-08 08:38:00,24.6,22.4,30.11,NE,48,7.0,10.0,91,0.00,,---,0.00,VWS V14.01,2013-02-08 13:38:00,
2013-02-08 08:39:00,24.5,22.2,30.10,North,356,10.0,12.0,91,0.00,,---,0.00,VWS V14.01,2013-02-08 13:39:00,
2013-02-08 08:40:00,24.4,22.2,30.11,NE,53,4.0,12.0,91,0.00,,---,0.00,VWS V14.01,2013-02-08 13:40:00,
2013-02-08 08:41:00,24.3,21.8,30.11,NNE,23,3.0,9.0,90,0.00,,---,0.00,VWS V14.01,2013-02-08 13:41:00,
2013-02-08 08:42:00,24.2,21.7,30.11,NNE,18,12.0,14.0,90,0.00,,---,0.00,VWS V14.01,2013-02-08 13:42:00,
2013-02-08 08:43:00,24.2,21.7,30.11,NE,44,12.0,14.0,90,0.00,,---,0.00,VWS V14.01,2013-02-08 13:43:00,
2013-02-08 08:44:00,24.1,21.6,30.11,North,359,4.0,14.0,90,0.00,,---,0.00,VWS V14.01,2013-02-08 13:44:00,
2013-02-08 08:45:00,24.1,21.6,30.11,ENE,71,2.0,14.0,90,0.00,,---,0.00,VWS V14.01,2013-02-08 13:45:00,
2013-02-08 08:46:00,24.1,21.6,30.11,NE,51,8.0,10.0,90,0.00,,---,0.00,VWS V14.01,2013-02-08 13:46:00,
2013-02-08 08:47:00,24.1,21.6,30.11,NE,48,3.0,10.0,90,0.00,,---,0.00,VWS V14.01,2013-02-08 13:47:00,
2013-02-08 08:48:00,24.2,21.7,30.11,NNW,338,3.0,10.0,90,0.00,,---,0.00,VWS V14.01,2013-02-08 13:48:00,
2013-02-08 08:49:00,24.8,23.0,30.10,NW,326,2.0,10.0,93,0.00,,,0.00,weatherlink.com 1.10,2013-02-08 13:49:00,
2013-02-08 08:50:00,24.2,21.7,30.11,NNE,23,5.0,10.0,90,0.00,,---,0.00,VWS V14.01,2013-02-08 13:50:00,
2013-02-08 08:51:00,24.1,21.6,30.11,NW,309,4.0,5.0,90,0.00,,---,0.00,VWS V14.01,2013-02-08 13:51:00,
2013-02-08 08:52:00,24.2,21.7,30.11,North,358,3.0,6.0,90,0.00,,---,0.00,VWS V14.01,2013-02-08 13:52:00,
2013-02-08 08:53:00,24.2,21.7,30.11,North,356,5.0,7.0,90,0.00,,---,0.00,VWS V14.01,2013-02-08 13:53:00,
2013-02-08 08:54:00,24.2,21.4,30.11,ENE,61,3.0,7.0,89,0.00,,---,0.00,VWS V14.01,2013-02-08 13:54:00,
2013-02-08 08:55:00,24.2,21.7,30.11,ENE,61,2.0,7.0,90,0.00,,---,0.00,VWS V14.01,2013-02-08 13:55:00,
2013-02-08 08:56:00,24.2,21.7,30.11,North,3,2.0,8.0,90,0.00,,---,0.00,VWS V14.01,2013-02-08 13:56:00,
2013-02-08 08:57:00,24.3,21.8,30.11,NW,321,6.0,11.0,90,0.00,,---,0.00,VWS V14.01,2013-02-08 13:57:00,
2013-02-08 08:58:00,24.3,21.5,30.11,NNE,25,4.0,11.0,89,0.00,,---,0.00,VWS V14.01,2013-02-08 13:58:00,
2013-02-08 08:59:00,24.4,21.6,30.11,NE,36,6.0,11.0,89,0.00,,---,0.00,VWS V14.01,2013-02-08 13:59:00,
2013-02-08 09:00:00,24.4,21.6,30.11,NNE,13,3.0,11.0,89,0.00,,---,0.00,VWS V14.01,2013-02-08 14:00:00,
2013-02-08 09:01:00,24.5,21.7,30.11,East,98,4.0,5.0,89,0.00,,---,0.00,VWS V14.01,2013-02-08 14:01:00,
2013-02-08 09:02:00,24.5,21.7,30.11,NNE,33,4.0,6.0,89,0.00,,---,0.00,VWS V14.01,2013-02-08 14:02:00,
2013-02-08 09:03:00,24.6,21.8,30.11,ENE,68,4.0,6.0,89,0.00,,---,0.00,VWS V14.01,2013-02-08 14:03:00,
2013-02-08 09:04:00,24.6,21.8,30.11,NNE,29,3.0,6.0,89,0.00,,---,0.00,VWS V14.01,2013-02-08 14:04:00,
2013-02-08 09:05:00,24.6,21.8,30.11,ENE,61,3.0,6.0,89,0.00,,---,0.00,VWS V14.01,2013-02-08 14:05:00,
2013-02-08 09:06:00,24.6,21.8,30.11,NE,54,3.0,9.0,89,0.00,,---,0.00,VWS V14.01,2013-02-08 14:06:00,
2013-02-08 09:07:00,24.3,22.0,30.11,North,359,7.0,13.0,90,0.00,,,0.00,weatherlink.com 1.10,2013-02-08 14:07:00,
2013-02-08 09:08:00,24.6,21.6,30.11,North,350,6.0,11.0,88,0.00,,---,0.00,VWS V14.01,2013-02-08 14:08:00,
2013-02-08 09:09:00,24.6,21.6,30.11,NE,39,6.0,11.0,88,0.00,,---,0.00,VWS V14.01,2013-02-08 14:09:00,
2013-02-08 09:10:00,24.6,21.6,30.11,North,1,10.0,11.0,88,0.00,,---,0.00,VWS V14.01,2013-02-08 14:10:00,
2013-02-08 09:11:00,24.6,21.3,30.11,NNE,19,5.0,12.0,87,0.00,,---,0.00,VWS V14.01,2013-02-08 14:11:00,
2013-02-08 09:12:00,24.6,21.3,30.11,NNW,329,6.0,12.0,87,0.00,,---,0.00,VWS V14.01,2013-02-08 14:12:00,
2013-02-08 09:13:00,24.6,21.3,30.11,NNE,15,7.0,12.0,87,0.00,,---,0.00,VWS V14.01,2013-02-08 14:13:00,
2013-02-08 09:14:00,24.7,21.4,30.11,NNE,16,9.0,12.0,87,0.00,,---,0.00,VWS V14.01,2013-02-08 14:14:00,
2013-02-08 09:15:00,24.7,21.4,30.11,North,358,5.0,12.0,87,0.00,,---,0.00,VWS V14.01,2013-02-08 14:15:00,
2013-02-08 09:16:00,24.8,21.5,30.11,NNW,329,3.0,9.0,87,0.00,,---,0.00,VWS V14.01,2013-02-08 14:16:00,
2013-02-08 09:17:00,24.8,21.5,30.11,NNE,24,8.0,10.0,87,0.00,,---,0.00,VWS V14.01,2013-02-08 14:17:00,
2013-02-08 09:18:00,24.8,21.2,30.12,North,9,8.0,11.0,86,0.00,,---,0.00,VWS V14.01,2013-02-08 14:18:00,
2013-02-08 09:19:00,24.8,21.2,30.12,NE,47,2.0,11.0,86,0.00,,---,0.00,VWS V14.01,2013-02-08 14:19:00,
2013-02-08 09:20:00,24.9,21.6,30.12,NE,51,3.0,11.0,87,0.00,,---,0.00,VWS V14.01,2013-02-08 14:20:00,
2013-02-08 09:21:00,24.9,21.6,30.12,NNW,330,5.0,7.0,87,0.00,,---,0.00,VWS V14.01,2013-02-08 14:21:00,
2013-02-08 09:22:00,25.0,21.4,30.12,NNE,16,5.0,7.0,86,0.00,,---,0.00,VWS V14.01,2013-02-08 14:22:00,
2013-02-08 09:23:00,24.3,22.0,30.11,NW,314,7.0,10.0,90,0.00,,,0.00,weatherlink.com 1.10,2013-02-08 14:23:00,
2013-02-08 09:24:00,25.1,21.5,30.12,NNW,347,4.0,9.0,86,0.00,,---,0.00,VWS V14.01,2013-02-08 14:24:00,
2013-02-08 09:25:00,25.2,21.6,30.13,WNW,298,6.0,10.0,86,0.00,,---,0.00,VWS V14.01,2013-02-08 14:25:00,
2013-02-08 09:26:00,25.2,21.6,30.13,NNW,340,5.0,7.0,86,0.00,,---,0.00,VWS V14.01,2013-02-08 14:26:00,
2013-02-08 09:27:00,25.2,21.6,30.13,NE,42,5.0,7.0,86,0.00,,---,0.00,VWS V14.01,2013-02-08 14:27:00,
2013-02-08 09:28:00,25.3,21.7,30.13,North,356,3.0,7.0,86,0.00,,---,0.00,VWS V14.01,2013-02-08 14:28:00,
2013-02-08 09:29:00,25.3,21.7,30.13,NNW,339,8.0,8.0,86,0.00,,---,0.00,VWS V14.01,2013-02-08 14:29:00,
2013-02-08 09:30:00,25.3,21.7,30.13,NE,41,3.0,8.0,86,0.00,,---,0.00,VWS V14.01,2013-02-08 14:30:00,
2013-02-08 09:31:00,25.3,21.7,30.13,NNW,338,5.0,5.0,86,0.00,,---,0.00,VWS V14.01,2013-02-08 14:31:00,
2013-02-08 09:32:00,25.2,21.6,30.13,WNW,300,2.0,6.0,86,0.00,,---,0.00,VWS V14.01,2013-02-08 14:32:00,
2013-02-08 09:33:00,25.2,21.6,30.13,NNW,329,8.0,8.0,86,0.00,,---,0.00,VWS V14.01,2013-02-08 14:33:00,
2013-02-08 09:34:00,25.1,21.2,30.13,NNE,25,10.0,13.0,85,0.00,,---,0.00,VWS V14.01,2013-02-08 14:34:00,
2013-02-08 09:35:00,25.1,21.2,30.14,North,349,7.0,13.0,85,0.00,,---,0.00,VWS V14.01,2013-02-08 14:35:00,
2013-02-08 09:36:00,25.0,21.1,30.14,NNW,346,6.0,13.0,85,0.00,,---,0.00,VWS V14.01,2013-02-08 14:36:00,
2013-02-08 09:37:00,25.0,21.1,30.14,North,349,2.0,13.0,85,0.00,,---,0.00,VWS V14.01,2013-02-08 14:37:00,
2013-02-08 09:38:00,25.0,21.1,30.14,NNW,347,5.0,13.0,85,0.00,,---,0.00,VWS V14.01,2013-02-08 14:38:00,
2013-02-08 09:39:00,25.0,21.1,30.14,East,81,5.0,13.0,85,0.00,,---,0.00,VWS V14.01,2013-02-08 14:39:00,
2013-02-08 09:40:00,24.9,20.8,30.14,NNE,21,6.0,13.0,84,0.00,,---,0.00,VWS V14.01,2013-02-08 14:40:00,
2013-02-08 09:41:00,24.7,21.0,30.11,NNE,29,4.0,12.0,87,0.00,,,0.00,weatherlink.com 1.10,2013-02-08 14:41:00,
2013-02-08 09:42:00,24.8,20.7,30.14,NNE,19,8.0,13.0,84,0.00,,---,0.00,VWS V14.01,2013-02-08 14:42:00,
2013-02-08 09:43:00,24.8,20.7,30.14,NE,34,3.0,13.0,84,0.00,,---,0.00,VWS V14.01,2013-02-08 14:43:00,
2013-02-08 09:44:00,24.8,20.7,30.14,NNW,333,7.0,13.0,84,0.00,,---,0.00,VWS V14.01,2013-02-08 14:44:00,
2013-02-08 09:45:00,24.8,20.7,30.14,North,11,5.0,13.0,84,0.00,,---,0.00,VWS V14.01,2013-02-08 14:45:00,
2013-02-08 09:46:00,24.9,20.8,30.14,North,11,9.0,11.0,84,0.00,,---,0.00,VWS V14.01,2013-02-08 14:46:00,
2013-02-08 09:47:00,24.9,20.5,30.14,NNE,27,3.0,11.0,83,0.00,,---,0.00,VWS V14.01,2013-02-08 14:47:00,
2013-02-08 09:48:00,24.9,20.5,30.14,NE,34,5.0,11.0,83,0.00,,---,0.00,VWS V14.01,2013-02-08 14:48:00,
2013-02-08 09:49:00,24.9,20.5,30.14,ENE,60,10.0,11.0,83,0.00,,---,0.00,VWS V14.01,2013-02-08 14:49:00,
2013-02-08 09:50:00,25.0,20.6,30.14,North,11,5.0,11.0,83,0.00,,---,0.00,VWS V14.01,2013-02-08 14:50:00,
2013-02-08 09:51:00,25.0,20.6,30.15,NNW,340,4.0,13.0,83,0.00,,---,0.00,VWS V14.01,2013-02-08 14:51:00,
2013-02-08 09:52:00,25.0,20.6,30.14,NE,39,6.0,13.0,83,0.00,,---,0.00,VWS V14.01,2013-02-08 14:52:00,
2013-02-08 09:53:00,25.1,20.7,30.14,North,354,2.0,13.0,83,0.00,,---,0.00,VWS V14.01,2013-02-08 14:53:00,
2013-02-08 09:54:00,25.2,20.8,30.15,NE,40,6.0,13.0,83,0.00,,---,0.00,VWS V14.01,2013-02-08 14:54:00,
2013-02-08 09:55:00,25.2,20.8,30.14,NE,52,6.0,13.0,83,0.00,,---,0.00,VWS V14.01,2013-02-08 14:55:00,
2013-02-08 09:56:00,25.3,20.9,30.14,SE,132,2.0,7.0,83,0.00,,---,0.00,VWS V14.01,2013-02-08 14:56:00,
2013-02-08 09:57:00,25.3,20.9,30.14,ENE,61,8.0,8.0,83,0.00,,---,0.00,VWS V14.01,2013-02-08 14:57:00,
2013-02-08 09:58:00,25.4,20.7,30.15,North,356,7.0,9.0,82,0.00,,---,0.00,VWS V14.01,2013-02-08 14:58:00,
2013-02-08 09:59:00,25.2,22.0,30.13,NW,315,13.0,13.0,86,0.00,,,0.00,weatherlink.com 1.10,2013-02-08 14:59:00,
2013-02-08 10:00:00,25.4,20.7,30.15,NE,34,5.0,11.0,82,0.00,,---,0.00,VWS V14.01,2013-02-08 15:00:00,
2013-02-08 10:01:00,25.4,20.4,30.15,NW,318,5.0,9.0,81,0.00,,---,0.00,VWS V14.01,2013-02-08 15:01:00,
2013-02-08 10:02:00,25.4,20.4,30.14,North,360,6.0,10.0,81,0.00,,---,0.00,VWS V14.01,2013-02-08 15:02:00,
2013-02-08 10:03:00,25.5,20.8,30.15,North,11,7.0,10.0,82,0.00,,---,0.00,VWS V14.01,2013-02-08 15:03:00,
2013-02-08 10:04:00,25.6,20.6,30.15,NW,310,7.0,12.0,81,0.00,,---,0.00,VWS V14.01,2013-02-08 15:04:00,
2013-02-08 10:05:00,25.6,20.6,30.15,SSE,158,1.0,12.0,81,0.00,,---,0.00,VWS V14.01,2013-02-08 15:05:00,
2013-02-08 10:06:00,25.7,21.0,30.15,NW,316,7.0,8.0,82,0.00,,---,0.00,VWS V14.01,2013-02-08 15:06:00,
2013-02-08 10:07:00,25.7,20.7,30.15,NW,326,10.0,10.0,81,0.00,,---,0.00,VWS V14.01,2013-02-08 15:07:00,
2013-02-08 10:08:00,25.8,20.8,30.15,NNW,335,4.0,10.0,81,0.00,,---,0.00,VWS V14.01,2013-02-08 15:08:00,
2013-02-08 10:09:00,25.8,20.8,30.15,North,5,5.0,10.0,81,0.00,,---,0.00,VWS V14.01,2013-02-08 15:09:00,
2013-02-08 10:10:00,25.9,20.9,30.15,NNE,27,10.0,10.0,81,0.00,,---,0.00,VWS V14.01,2013-02-08 15:10:00,
2013-02-08 10:11:00,25.9,20.9,30.15,North,356,5.0,9.0,81,0.00,,---,0.00,VWS V14.01,2013-02-08 15:11:00,
2013-02-08 10:12:00,26.0,21.3,30.15,NW,315,5.0,9.0,82,0.00,,---,0.00,VWS V14.01,2013-02-08 15:12:00,
2013-02-08 10:13:00,26.1,21.4,30.15,NNE,27,5.0,9.0,82,0.00,,---,0.00,VWS V14.01,2013-02-08 15:13:00,
2013-02-08 10:14:00,26.1,21.1,30.15,NE,48,10.0,10.0,81,0.00,,---,0.00,VWS V14.01,2013-02-08 15:14:00,
2013-02-08 10:15:00,24.9,20.0,30.14,ENE,65,7.0,12.0,83,0.00,,,0.00,weatherlink.com 1.10,2013-02-08 15:15:00,
2013-02-08 10:16:00,26.1,21.1,30.16,NNE,29,5.0,8.0,81,0.00,,---,0.00,VWS V14.01,2013-02-08 15:16:00,
2013-02-08 10:17:00,26.1,21.1,30.16,WNW,295,2.0,8.0,81,0.00,,---,0.00,VWS V14.01,2013-02-08 15:17:00,
2013-02-08 10:18:00,26.2,21.5,30.16,NNW,333,13.0,13.0,82,0.00,,---,0.00,VWS V14.01,2013-02-08 15:18:00,
2013-02-08 10:19:00,26.1,21.1,30.16,NW,315,3.0,14.0,81,0.00,,---,0.00,VWS V14.01,2013-02-08 15:19:00,
2013-02-08 10:20:00,26.1,20.8,30.16,NNW,335,5.0,15.0,80,0.00,,---,0.00,VWS V14.01,2013-02-08 15:20:00,
2013-02-08 10:21:00,26.0,20.7,30.16,West,276,5.0,9.0,80,0.00,,---,0.00,VWS V14.01,2013-02-08 15:21:00,
2013-02-08 10:22:00,25.9,20.6,30.16,NW,311,11.0,11.0,80,0.00,,---,0.00,VWS V14.01,2013-02-08 15:22:00,
2013-02-08 10:23:00,25.9,20.6,30.16,NW,311,6.0,15.0,80,0.00,,---,0.00,VWS V14.01,2013-02-08 15:23:00,
2013-02-08 10:24:00,25.9,20.6,30.17,NNW,331,11.0,15.0,80,0.00,,---,0.00,VWS V14.01,2013-02-08 15:24:00,
2013-02-08 10:25:00,25.8,20.2,30.16,North,350,7.0,15.0,79,0.00,,---,0.00,VWS V14.01,2013-02-08 15:25:00,
2013-02-08 10:26:00,25.8,20.5,30.17,NNE,32,7.0,10.0,80,0.00,,---,0.00,VWS V14.01,2013-02-08 15:26:00,
2013-02-08 10:27:00,25.7,20.4,30.16,NE,44,7.0,12.0,80,0.00,,---,0.00,VWS V14.01,2013-02-08 15:27:00,
2013-02-08 10:28:00,25.7,20.4,30.17,NNE,20,9.0,13.0,80,0.00,,---,0.00,VWS V14.01,2013-02-08 15:28:00,
2013-02-08 10:29:00,25.7,20.4,30.17,North,356,9.0,13.0,80,0.00,,---,0.00,VWS V14.01,2013-02-08 15:29:00,
2013-02-08 10:30:00,25.7,20.4,30.17,NE,56,6.0,13.0,80,0.00,,---,0.00,VWS V14.01,2013-02-08 15:30:00,
2013-02-08 10:31:00,25.7,20.4,30.17,NNW,342,7.0,10.0,80,0.00,,---,0.00,VWS V14.01,2013-02-08 15:31:00,
2013-02-08 10:32:00,25.8,20.5,30.17,NE,47,6.0,12.0,80,0.00,,---,0.00,VWS V14.01,2013-02-08 15:32:00,
2013-02-08 10:33:00,25.7,21.0,30.15,NW,323,8.0,15.0,81,0.00,,,0.00,weatherlink.com 1.10,2013-02-08 15:33:00,
2013-02-08 10:34:00,25.7,20.4,30.17,North,11,6.0,12.0,80,0.00,,---,0.00,VWS V14.01,2013-02-08 15:34:00,
2013-02-08 10:35:00,25.8,20.5,30.17,East,92,7.0,12.0,80,0.00,,---,0.00,VWS V14.01,2013-02-08 15:35:00,
2013-02-08 10:36:00,25.8,20.5,30.17,North,351,5.0,11.0,80,0.00,,---,0.00,VWS V14.01,2013-02-08 15:36:00,
2013-02-08 10:37:00,25.8,20.5,30.17,North,350,4.0,11.0,80,0.00,,---,0.00,VWS V14.01,2013-02-08 15:37:00,
2013-02-08 10:38:00,25.9,20.6,30.17,North,9,8.0,11.0,80,0.00,,---,0.00,VWS V14.01,2013-02-08 15:38:00,
2013-02-08 10:39:00,26.0,20.7,30.17,NNW,346,3.0,11.0,80,0.00,,---,0.00,VWS V14.01,2013-02-08 15:39:00,
2013-02-08 10:40:00,26.1,20.8,30.17,NE,34,6.0,11.0,80,0.00,,---,0.00,VWS V14.01,2013-02-08 15:40:00,
2013-02-08 10:41:00,26.2,20.9,30.17,North,353,5.0,9.0,80,0.00,,---,0.00,VWS V14.01,2013-02-08 15:41:00,
2013-02-08 10:42:00,26.3,21.0,30.17,North,351,7.0,9.0,80,0.00,,---,0.00,VWS V14.01,2013-02-08 15:42:00,
2013-02-08 10:43:00,26.4,21.1,30.17,NNE,20,10.0,10.0,80,0.00,,---,0.00,VWS V14.01,2013-02-08 15:43:00,
2013-02-08 10:44:00,26.5,21.2,30.17,NNW,343,3.0,10.0,80,0.00,,---,0.00,VWS V14.01,2013-02-08 15:44:00,
2013-02-08 10:45:00,26.6,21.3,30.17,WNW,295,8.0,10.0,80,0.00,,---,0.00,VWS V14.01,2013-02-08 15:45:00,
2013-02-08 10:46:00,26.6,21.3,30.17,West,275,7.0,12.0,80,0.00,,---,0.00,VWS V14.01,2013-02-08 15:46:00,
2013-02-08 10:47:00,26.6,21.0,30.17,NW,304,7.0,12.0,79,0.00,,---,0.00,VWS V14.01,2013-02-08 15:47:00,
2013-02-08 10:48:00,26.5,20.9,30.18,NW,319,5.0,12.0,79,0.00,,---,0.00,VWS V14.01,2013-02-08 15:48:00,
2013-02-08 10:49:00,25.9,21.0,30.17,NW,321,9.0,17.0,80,0.00,,,0.00,weatherlink.com 1.10,2013-02-08 15:49:00,
2013-02-08 10:50:00,26.4,20.8,30.18,NNW,344,3.0,12.0,79,0.00,,---,0.00,VWS V14.01,2013-02-08 15:50:00,
2013-02-08 10:51:00,26.4,20.8,30.18,NNW,346,5.0,8.0,79,0.00,,---,0.00,VWS V14.01,2013-02-08 15:51:00,
2013-02-08 10:52:00,26.4,20.8,30.18,NNW,331,5.0,8.0,79,0.00,,---,0.00,VWS V14.01,2013-02-08 15:52:00,
2013-02-08 10:53:00,26.4,20.8,30.18,North,11,7.0,9.0,79,0.00,,---,0.00,VWS V14.01,2013-02-08 15:53:00,
2013-02-08 10:54:00,26.3,20.7,30.18,NE,36,1.0,10.0,79,0.00,,---,0.00,VWS V14.01,2013-02-08 15:54:00,
2013-02-08 10:55:00,26.3,20.7,30.18,NNW,328,5.0,12.0,79,0.00,,---,0.00,VWS V14.01,2013-02-08 15:55:00,
2013-02-08 10:56:00,26.3,20.4,30.18,NNE,23,10.0,10.0,78,0.00,,---,0.00,VWS V14.01,2013-02-08 15:56:00,
2013-02-08 10:57:00,26.3,20.7,30.18,ENE,59,5.0,10.0,79,0.00,,---,0.00,VWS V14.01,2013-02-08 15:57:00,
2013-02-08 10:58:00,26.3,20.7,30.18,NNW,338,6.0,11.0,79,0.00,,---,0.00,VWS V14.01,2013-02-08 15:58:00,
2013-02-08 10:59:00,26.3,20.7,30.18,NNE,19,3.0,11.0,79,0.00,,---,0.00,VWS V14.01,2013-02-08 15:59:00,
2013-02-08 11:00:00,26.3,20.7,30.18,NW,311,6.0,11.0,79,0.00,,---,0.00,VWS V14.01,2013-02-08 16:00:00,
2013-02-08 11:01:00,26.4,20.8,30.18,NNW,343,5.0,7.0,79,0.00,,---,0.00,VWS V14.01,2013-02-08 16:01:00,
2013-02-08 11:02:00,26.4,20.8,30.18,NNW,335,6.0,10.0,79,0.00,,---,0.00,VWS V14.01,2013-02-08 16:02:00,
2013-02-08 11:03:00,26.5,20.9,30.18,NNW,342,4.0,10.0,79,0.00,,---,0.00,VWS V14.01,2013-02-08 16:03:00,
2013-02-08 11:04:00,26.5,20.9,30.19,North,4,10.0,10.0,79,0.00,,---,0.00,VWS V14.01,2013-02-08 16:04:00,
2013-02-08 11:05:00,26.5,20.9,30.19,North,5,10.0,13.0,79,0.00,,---,0.00,VWS V14.01,2013-02-08 16:05:00,
2013-02-08 11:06:00,26.4,20.5,30.19,North,4,9.0,12.0,78,0.00,,---,0.00,VWS V14.01,2013-02-08 16:06:00,
2013-02-08 11:07:00,26.2,21.0,30.17,North,6,6.0,12.0,80,0.00,,,0.00,weatherlink.com 1.10,2013-02-08 16:07:00,
2013-02-08 11:08:00,26.4,20.8,30.19,NE,54,10.0,12.0,79,0.00,,---,0.00,VWS V14.01,2013-02-08 16:08:00,
2013-02-08 11:09:00,26.5,20.9,30.19,NNE,27,10.0,12.0,79,0.00,,---,0.00,VWS V14.01,2013-02-08 16:09:00,
2013-02-08 11:10:00,26.4,20.5,30.18,NNW,342,7.0,12.0,78,0.00,,---,0.00,VWS V14.01,2013-02-08 16:10:00,
2013-02-08 11:11:00,26.4,20.5,30.18,NE,46,7.0,11.0,78,0.00,,---,0.00,VWS V14.01,2013-02-08 16:11:00,
2013-02-08 11:12:00,26.3,20.4,30.19,NW,304,5.0,11.0,78,0.00,,---,0.00,VWS V14.01,2013-02-08 16:12:00,
2013-02-08 11:13:00,26.3,20.4,30.18,NNW,337,4.0,11.0,78,0.00,,---,0.00,VWS V14.01,2013-02-08 16:13:00,
2013-02-08 11:14:00,26.4,20.8,30.18,North,5,2.0,11.0,79,0.00,,---,0.00,VWS V14.01,2013-02-08 16:14:00,
2013-02-08 11:15:00,26.5,20.9,30.18,NNE,29,8.0,11.0,79,0.00,,---,0.00,VWS V14.01,2013-02-08 16:15:00,
2013-02-08 11:16:00,26.5,20.9,30.18,NE,44,3.0,6.0,79,0.00,,---,0.00,VWS V14.01,2013-02-08 16:16:00,
2013-02-08 11:17:00,26.6,20.7,30.18,SE,136,6.0,11.0,78,0.00,,---,0.00,VWS V14.01,2013-02-08 16:17:00,
2013-02-08 11:18:00,26.6,20.7,30.18,NE,41,4.0,11.0,78,0.00,,---,0.00,VWS V14.01,2013-02-08 16:18:00,
2013-02-08 11:19:00,26.6,20.7,30.18,NNE,19,7.0,11.0,78,0.00,,---,0.00,VWS V14.01,2013-02-08 16:19:00,
2013-02-08 11:20:00,26.7,20.8,30.18,North,354,6.0,11.0,78,0.00,,---,0.00,VWS V14.01,2013-02-08 16:20:00,
2013-02-08 11:21:00,26.6,20.4,30.18,NNE,25,11.0,15.0,77,0.00,,---,0.00,VWS V14.01,2013-02-08 16:21:00,
2013-02-08 11:22:00,26.6,20.4,30.18,NNE,21,13.0,15.0,77,0.00,,---,0.00,VWS V14.01,2013-02-08 16:22:00,
2013-02-08 11:23:00,26.6,20.4,30.18,NNE,13,5.0,15.0,77,0.00,,---,0.00,VWS V14.01,2013-02-08 16:23:00,
2013-02-08 11:24:00,26.3,21.0,30.18,NNE,15,5.0,11.0,79,0.00,,,0.00,weatherlink.com 1.10,2013-02-08 16:24:00,
2013-02-08 11:25:00,26.6,20.4,30.18,NNE,12,5.0,15.0,77,0.00,,---,0.00,VWS V14.01,2013-02-08 16:25:00,
2013-02-08 11:26:00,26.6,20.7,30.18,NNW,338,6.0,10.0,78,0.00,,---,0.00,VWS V14.01,2013-02-08 16:26:00,
2013-02-08 11:27:00,26.7,20.8,30.18,NNE,26,4.0,10.0,78,0.00,,---,0.00,VWS V14.01,2013-02-08 16:27:00,
2013-02-08 11:28:00,26.7,20.8,30.18,NNE,32,4.0,10.0,78,0.00,,---,0.00,VWS V14.01,2013-02-08 16:28:00,
2013-02-08 11:29:00,26.7,20.8,30.18,North,354,4.0,10.0,78,0.00,,---,0.00,VWS V14.01,2013-02-08 16:29:00,
2013-02-08 11:30:00,26.8,20.6,30.18,ENE,58,9.0,10.0,77,0.00,,---,0.00,VWS V14.01,2013-02-08 16:30:00,
2013-02-08 11:31:00,26.8,20.6,30.18,ENE,58,9.0,12.0,77,0.00,,---,0.00,VWS V14.01,2013-02-08 16:31:00,
2013-02-08 11:32:00,26.8,20.6,30.18,North,6,5.0,12.0,77,0.00,,---,0.00,VWS V14.01,2013-02-08 16:32:00,
2013-02-08 11:33:00,26.8,20.6,30.18,NNE,26,6.0,13.0,77,0.00,,---,0.00,VWS V14.01,2013-02-08 16:33:00,
2013-02-08 11:34:00,26.8,20.6,30.18,North,351,8.0,13.0,77,0.00,,---,0.00,VWS V14.01,2013-02-08 16:34:00,
2013-02-08 11:35:00,26.8,20.6,30.18,NE,56,6.0,13.0,77,0.00,,---,0.00,VWS V14.01,2013-02-08 16:35:00,
2013-02-08 11:36:00,26.9,20.7,30.18,NE,53,4.0,6.0,77,0.00,,---,0.00,VWS V14.01,2013-02-08 16:36:00,
2013-02-08 11:37:00,26.9,20.7,30.18,North,350,6.0,12.0,77,0.00,,---,0.00,VWS V14.01,2013-02-08 16:37:00,
2013-02-08 11:38:00,27.0,20.8,30.18,NNW,342,7.0,12.0,77,0.00,,---,0.00,VWS V14.01,2013-02-08 16:38:00,
2013-02-08 11:39:00,27.1,20.9,30.18,NNW,343,10.0,12.0,77,0.00,,---,0.00,VWS V14.01,2013-02-08 16:39:00,
2013-02-08 11:40:00,27.1,20.9,30.18,ENE,60,11.0,15.0,77,0.00,,---,0.00,VWS V14.01,2013-02-08 16:40:00,
2013-02-08 11:41:00,27.1,20.9,30.18,NNE,18,4.0,11.0,77,0.00,,---,0.00,VWS V14.01,2013-02-08 16:41:00,
2013-02-08 11:42:00,26.5,21.0,30.18,NNE,17,4.0,11.0,79,0.00,,,0.00,weatherlink.com 1.10,2013-02-08 16:42:00,
2013-02-08 11:43:00,27.2,20.6,30.18,NE,36,5.0,16.0,76,0.00,,---,0.00,VWS V14.01,2013-02-08 16:43:00,
2013-02-08 11:44:00,27.2,20.6,30.18,ENE,58,8.0,16.0,76,0.00,,---,0.00,VWS V14.01,2013-02-08 16:44:00,
2013-02-08 11:45:00,27.2,20.6,30.18,NNE,16,10.0,16.0,76,0.00,,---,0.00,VWS V14.01,2013-02-08 16:45:00,
2013-02-08 11:46:00,27.2,20.6,30.18,NE,53,7.0,10.0,76,0.00,,---,0.00,VWS V14.01,2013-02-08 16:46:00,
2013-02-08 11:47:00,27.3,20.8,30.18,NE,46,2.0,10.0,76,0.00,,---,0.00,VWS V14.01,2013-02-08 16:47:00,
2013-02-08 11:48:00,27.4,21.1,30.18,NNW,347,8.0,13.0,77,0.00,,---,0.00,VWS V14.01,2013-02-08 16:48:00,
2013-02-08 11:49:00,27.5,20.9,30.19,North,360,9.0,13.0,76,0.00,,---,0.00,VWS V14.01,2013-02-08 16:49:00,
2013-02-08 11:50:00,27.5,20.9,30.19,NE,39,11.0,13.0,76,0.00,,---,0.00,VWS V14.01,2013-02-08 16:50:00,
2013-02-08 11:51:00,27.6,21.0,30.19,NE,37,11.0,11.0,76,0.00,,---,0.00,VWS V14.01,2013-02-08 16:51:00,
2013-02-08 11:52:00,27.6,20.7,30.19,North,4,8.0,13.0,75,0.00,,---,0.00,VWS V14.01,2013-02-08 16:52:00,
2013-02-08 11:53:00,27.5,20.6,30.19,NNW,328,5.0,13.0,75,0.00,,---,0.00,VWS V14.01,2013-02-08 16:53:00,
2013-02-08 11:54:00,27.6,20.7,30.19,ENE,61,4.0,13.0,75,0.00,,---,0.00,VWS V14.01,2013-02-08 16:54:00,
2013-02-08 11:55:00,27.6,20.7,30.19,North,4,5.0,13.0,75,0.00,,---,0.00,VWS V14.01,2013-02-08 16:55:00,
2013-02-08 11:56:00,27.6,20.7,30.19,NE,44,3.0,9.0,75,0.00,,---,0.00,VWS V14.01,2013-02-08 16:56:00,
2013-02-08 11:57:00,27.7,20.8,30.19,NNE,23,5.0,9.0,75,0.00,,---,0.00,VWS V14.01,2013-02-08 16:57:00,
2013-02-08 11:58:00,27.7,20.8,30.19,North,354,11.0,17.0,75,0.00,,---,0.00,VWS V14.01,2013-02-08 16:58:00,
2013-02-08 11:59:00,26.8,21.0,30.18,NNE,19,10.0,13.0,77,0.00,,,0.00,weatherlink.com 1.10,2013-02-08 16:59:00,
2013-02-08 12:00:00,27.7,20.5,30.19,NNW,345,13.0,17.0,74,0.00,,---,0.00,VWS V14.01,2013-02-08 17:00:00,
2013-02-08 12:01:00,27.7,20.5,30.19,NNW,345,5.0,13.0,74,0.00,,---,0.00,VWS V14.01,2013-02-08 17:01:00,
2013-02-08 12:02:00,27.8,20.6,30.19,North,11,12.0,13.0,74,0.00,,---,0.00,VWS V14.01,2013-02-08 17:02:00,
2013-02-08 12:03:00,27.8,20.6,30.19,NNE,29,5.0,13.0,74,0.00,,---,0.00,VWS V14.01,2013-02-08 17:03:00,
2013-02-08 12:04:00,27.8,20.6,30.19,NNE,17,6.0,13.0,74,0.00,,---,0.00,VWS V14.01,2013-02-08 17:04:00,
2013-02-08 12:05:00,28.0,21.1,30.19,North,11,11.0,13.0,75,0.00,,---,0.00,VWS V14.01,2013-02-08 17:05:00,
2013-02-08 12:06:00,28.0,21.1,30.19,NNW,328,5.0,11.0,75,0.00,,---,0.00,VWS V14.01,2013-02-08 17:06:00,
2013-02-08 12:07:00,28.0,20.8,30.19,NNW,343,6.0,11.0,74,0.00,,---,0.00,VWS V14.01,2013-02-08 17:07:00,
2013-02-08 12:08:00,28.1,20.9,30.19,NNE,13,7.0,11.0,74,0.00,,---,0.00,VWS V14.01,2013-02-08 17:08:00,
2013-02-08 12:09:00,28.1,20.9,30.19,East,79,5.0,11.0,74,0.00,,---,0.00,VWS V14.01,2013-02-08 17:09:00,
2013-02-08 12:10:00,28.1,20.9,30.19,NNE,12,6.0,11.0,74,0.00,,---,0.00,VWS V14.01,2013-02-08 17:10:00,
2013-02-08 12:11:00,28.1,20.9,30.19,NW,326,12.0,16.0,74,0.00,,---,0.00,VWS V14.01,2013-02-08 17:11:00,
2013-02-08 12:12:00,28.2,20.7,30.19,ENE,57,4.0,16.0,73,0.00,,---,0.00,VWS V14.01,2013-02-08 17:12:00,
2013-02-08 12:13:00,28.2,20.7,30.18,NNE,32,3.0,16.0,73,0.00,,---,0.00,VWS V14.01,2013-02-08 17:13:00,
2013-02-08 12:14:00,28.2,21.0,30.19,NNW,346,4.0,16.0,74,0.00,,---,0.00,VWS V14.01,2013-02-08 17:14:00,
2013-02-08 12:15:00,28.3,21.1,30.19,NE,50,5.0,16.0,74,0.00,,---,0.00,VWS V14.01,2013-02-08 17:15:00,
2013-02-08 12:16:00,27.5,21.0,30.19,NNE,32,11.0,14.0,76,0.00,,,0.00,weatherlink.com 1.10,2013-02-08 17:16:00,
2013-02-08 12:17:00,28.4,20.9,30.19,North,8,7.0,12.0,73,0.00,,---,0.00,VWS V14.01,2013-02-08 17:17:00,
2013-02-08 12:18:00,28.4,20.9,30.19,East,85,7.0,14.0,73,0.00,,---,0.00,VWS V14.01,2013-02-08 17:18:00,
2013-02-08 12:19:00,28.4,20.9,30.19,NE,34,3.0,14.0,73,0.00,,---,0.00,VWS V14.01,2013-02-08 17:19:00,
2013-02-08 12:20:00,28.5,21.0,30.19,NNW,340,6.0,14.0,73,0.00,,---,0.00,VWS V14.01,2013-02-08 17:20:00,
2013-02-08 12:21:00,28.6,21.1,30.19,NNW,346,2.0,10.0,73,0.00,,---,0.00,VWS V14.01,2013-02-08 17:21:00,
2013-02-08 12:22:00,28.6,21.1,30.19,NNW,340,2.0,10.0,73,0.00,,---,0.00,VWS V14.01,2013-02-08 17:22:00,
2013-02-08 12:23:00,28.8,21.6,30.19,NE,46,11.0,11.0,74,0.00,,---,0.00,VWS V14.01,2013-02-08 17:23:00,
2013-02-08 12:24:00,28.8,21.2,30.19,NE,39,3.0,11.0,73,0.00,,---,0.00,VWS V14.01,2013-02-08 17:24:00,
2013-02-08 12:25:00,28.9,21.4,30.19,NE,50,5.0,11.0,73,0.00,,---,0.00,VWS V14.01,2013-02-08 17:25:00,
2013-02-08 12:26:00,28.9,21.4,30.19,NNE,17,4.0,7.0,73,0.00,,---,0.00,VWS V14.01,2013-02-08 17:26:00,
2013-02-08 12:27:00,29.0,21.4,30.19,NW,325,6.0,10.0,73,0.00,,---,0.00,VWS V14.01,2013-02-08 17:27:00,
2013-02-08 12:28:00,29.1,21.5,30.19,NNE,23,4.0,10.0,73,0.00,,---,0.00,VWS V14.01,2013-02-08 17:28:00,
2013-02-08 12:29:00,29.2,21.6,30.19,NE,36,4.0,10.0,73,0.00,,---,0.00,VWS V14.01,2013-02-08 17:29:00,
2013-02-08 12:30:00,29.3,21.7,30.19,NE,41,6.0,10.0,73,0.00,,---,0.00,VWS V14.01,2013-02-08 17:30:00,
2013-02-08 12:31:00,29.4,21.8,30.19,NNE,26,8.0,8.0,73,0.00,,---,0.00,VWS V14.01,2013-02-08 17:31:00,
2013-02-08 12:32:00,29.4,21.8,30.19,NNE,29,4.0,8.0,73,0.00,,---,0.00,VWS V14.01,2013-02-08 17:32:00,
2013-02-08 12:33:00,29.5,21.9,30.19,NNW,335,3.0,8.0,73,0.00,,---,0.00,VWS V14.01,2013-02-08 17:33:00,
2013-02-08 12:34:00,29.5,21.9,30.19,NNE,18,7.0,8.0,73,0.00,,---,0.00,VWS V14.01,2013-02-08 17:34:00,
2013-02-08 12:35:00,29.6,21.7,30.19,North,354,3.0,11.0,72,0.00,,---,0.00,VWS V14.01,2013-02-08 17:35:00,
2013-02-08 12:36:00,29.6,21.7,30.19,NNE,28,2.0,4.0,72,0.00,,---,0.00,VWS V14.01,2013-02-08 17:36:00,
2013-02-08 12:37:00,29.7,21.8,30.19,ENE,68,4.0,6.0,72,0.00,,---,0.00,VWS V14.01,2013-02-08 17:37:00,
2013-02-08 12:38:00,29.7,21.5,30.19,NE,38,4.0,8.0,71,0.00,,---,0.00,VWS V14.01,2013-02-08 17:38:00,
2013-02-08 12:39:00,29.7,21.5,30.19,NNE,15,8.0,9.0,71,0.00,,---,0.00,VWS V14.01,2013-02-08 17:39:00,
2013-02-08 12:40:00,29.7,21.5,30.19,NNE,19,9.0,10.0,71,0.00,,---,0.00,VWS V14.01,2013-02-08 17:40:00,
2013-02-08 12:41:00,29.6,21.0,30.19,ENE,73,8.0,10.0,70,0.00,,---,0.00,VWS V14.01,2013-02-08 17:41:00,
2013-02-08 12:42:00,29.6,21.0,30.19,NW,321,8.0,11.0,70,0.00,,---,0.00,VWS V14.01,2013-02-08 17:42:00,
2013-02-08 12:43:00,29.6,20.7,30.19,North,1,11.0,11.0,69,0.00,,---,0.00,VWS V14.01,2013-02-08 17:43:00,
2013-02-08 12:44:00,29.5,20.6,30.19,North,6,5.0,11.0,69,0.00,,---,0.00,VWS V14.01,2013-02-08 17:44:00,
2013-02-08 12:45:00,29.5,20.6,30.19,NNE,31,4.0,12.0,69,0.00,,---,0.00,VWS V14.01,2013-02-08 17:45:00,
2013-02-08 12:46:00,29.5,20.9,30.19,NNW,327,2.0,5.0,70,0.00,,---,0.00,VWS V14.01,2013-02-08 17:46:00,
2013-02-08 12:47:00,29.5,21.3,30.19,NNE,12,3.0,5.0,71,0.00,,---,0.00,VWS V14.01,2013-02-08 17:47:00,
2013-02-08 12:48:00,29.6,21.4,30.19,NNE,27,6.0,6.0,71,0.00,,---,0.00,VWS V14.01,2013-02-08 17:48:00,
2013-02-08 12:49:00,29.7,21.5,30.19,North,351,4.0,6.0,71,0.00,,---,0.00,VWS V14.01,2013-02-08 17:49:00,
2013-02-08 12:50:00,28.8,21.0,30.19,NW,322,7.0,13.0,73,0.00,,,0.00,weatherlink.com 1.10,2013-02-08 17:50:00,
2013-02-08 12:51:00,29.9,21.7,30.19,NNE,25,14.0,14.0,71,0.00,,---,0.00,VWS V14.01,2013-02-08 17:51:00,
2013-02-08 12:52:00,29.9,21.3,30.19,NNW,335,6.0,14.0,70,0.00,,---,0.00,VWS V14.01,2013-02-08 17:52:00,
2013-02-08 12:53:00,29.8,20.9,30.19,NNW,342,4.0,14.0,69,0.00,,---,0.00,VWS V14.01,2013-02-08 17:53:00,
2013-02-08 12:54:00,29.9,21.3,30.19,NNW,337,3.0,14.0,70,0.00,,---,0.00,VWS V14.01,2013-02-08 17:54:00,
2013-02-08 12:55:00,29.9,21.3,30.19,North,11,7.0,14.0,70,0.00,,---,0.00,VWS V14.01,2013-02-08 17:55:00,
2013-02-08 12:56:00,29.9,21.0,30.19,NW,321,4.0,9.0,69,0.00,,---,0.00,VWS V14.01,2013-02-08 17:56:00,
2013-02-08 12:57:00,30.0,21.1,30.19,NNW,339,7.0,9.0,69,0.00,,---,0.00,VWS V14.01,2013-02-08 17:57:00,
2013-02-08 12:58:00,30.0,21.1,30.19,NNE,22,5.0,9.0,69,0.00,,---,0.00,VWS V14.01,2013-02-08 17:58:00,
2013-02-08 12:59:00,30.0,21.1,30.19,North,7,9.0,9.0,69,0.00,,---,0.00,VWS V14.01,2013-02-08 17:59:00,
2013-02-08 13:00:00,30.0,20.7,30.19,NNE,21,7.0,9.0,68,0.00,,---,0.00,VWS V14.01,2013-02-08 18:00:00,
2013-02-08 13:01:00,29.9,20.6,30.19,ESE,120,5.0,10.0,68,0.00,,---,0.00,VWS V14.01,2013-02-08 18:01:00,
2013-02-08 13:02:00,29.9,21.0,30.19,NE,34,7.0,11.0,69,0.00,,---,0.00,VWS V14.01,2013-02-08 18:02:00,
2013-02-08 13:03:00,29.9,21.0,30.19,NNE,18,5.0,11.0,69,0.00,,---,0.00,VWS V14.01,2013-02-08 18:03:00,
2013-02-08 13:04:00,29.9,21.0,30.20,NNE,29,7.0,11.0,69,0.00,,---,0.00,VWS V14.01,2013-02-08 18:04:00,
2013-02-08 13:05:00,29.9,21.0,30.19,NNE,18,4.0,11.0,69,0.00,,---,0.00,VWS V14.01,2013-02-08 18:05:00,
2013-02-08 13:06:00,30.0,21.1,30.20,NNW,339,5.0,7.0,69,0.00,,---,0.00,VWS V14.01,2013-02-08 18:06:00,
2013-02-08 13:07:00,30.0,21.1,30.19,North,356,8.0,8.0,69,0.00,,---,0.00,VWS V14.01,2013-02-08 18:07:00,
2013-02-08 13:08:00,29.6,21.0,30.19,NW,309,7.0,12.0,70,0.00,,,0.00,weatherlink.com 1.10,2013-02-08 18:08:00,
2013-02-08 13:09:00,30.0,21.1,30.20,NNE,13,5.0,10.0,69,0.00,,---,0.00,VWS V14.01,2013-02-08 18:09:00,
2013-02-08 13:10:00,30.1,21.2,30.20,North,1,3.0,10.0,69,0.00,,---,0.00,VWS V14.01,2013-02-08 18:10:00,
2013-02-08 13:11:00,30.1,21.5,30.19,NNW,347,2.0,5.0,70,0.00,,---,0.00,VWS V14.01,2013-02-08 18:11:00,
2013-02-08 13:12:00,30.2,21.6,30.19,NE,42,2.0,6.0,70,0.00,,---,0.00,VWS V14.01,2013-02-08 18:12:00,
2013-02-08 13:13:00,30.3,21.7,30.20,North,1,4.0,6.0,70,0.00,,---,0.00,VWS V14.01,2013-02-08 18:13:00,
2013-02-08 13:14:00,30.4,21.8,30.20,NNW,335,1.0,6.0,70,0.00,,---,0.00,VWS V14.01,2013-02-08 18:14:00,
2013-02-08 13:15:00,30.5,21.9,30.20,WNW,293,8.0,10.0,70,0.00,,---,0.00,VWS V14.01,2013-02-08 18:15:00,
2013-02-08 13:16:00,30.6,22.0,30.20,ENE,67,2.0,8.0,70,0.00,,---,0.00,VWS V14.01,2013-02-08 18:16:00,
2013-02-08 13:17:00,30.6,22.0,30.20,NE,34,3.0,8.0,70,0.00,,---,0.00,VWS V14.01,2013-02-08 18:17:00,
2013-02-08 13:18:00,30.7,22.1,30.20,North,4,2.0,8.0,70,0.00,,---,0.00,VWS V14.01,2013-02-08 18:18:00,
2013-02-08 13:19:00,30.8,22.2,30.19,West,263,2.0,8.0,70,0.00,,---,0.00,VWS V14.01,2013-02-08 18:19:00,
2013-02-08 13:20:00,30.9,22.3,30.20,NNW,333,7.0,8.0,70,0.00,,---,0.00,VWS V14.01,2013-02-08 18:20:00,
2013-02-08 13:21:00,31.0,22.0,30.20,NNW,339,5.0,8.0,69,0.00,,---,0.00,VWS V14.01,2013-02-08 18:21:00,
2013-02-08 13:22:00,31.0,22.0,30.20,NNE,22,8.0,9.0,69,0.00,,---,0.00,VWS V14.01,2013-02-08 18:22:00,
2013-02-08 13:23:00,31.0,21.3,30.20,NNW,329,4.0,9.0,67,0.00,,---,0.00,VWS V14.01,2013-02-08 18:23:00,
2013-02-08 13:24:00,30.9,21.2,30.20,NW,307,4.0,9.0,67,0.00,,---,0.00,VWS V14.01,2013-02-08 18:24:00,
2013-02-08 13:25:00,30.0,21.0,30.19,NNE,33,8.0,13.0,69,0.00,,,0.00,weatherlink.com 1.10,2013-02-08 18:25:00,
2013-02-08 13:26:00,30.9,21.2,30.20,NNE,12,6.0,8.0,67,0.00,,---,0.00,VWS V14.01,2013-02-08 18:26:00,
2013-02-08 13:27:00,30.8,20.8,30.20,NNE,16,5.0,10.0,66,0.00,,---,0.00,VWS V14.01,2013-02-08 18:27:00,
2013-02-08 13:28:00,30.8,21.1,30.20,North,1,4.0,10.0,67,0.00,,---,0.00,VWS V14.01,2013-02-08 18:28:00,
2013-02-08 13:29:00,30.9,21.6,30.20,North,11,1.0,10.0,68,0.00,,---,0.00,VWS V14.01,2013-02-08 18:29:00,
2013-02-08 13:30:00,31.0,21.7,30.20,NNW,327,2.0,10.0,68,0.00,,---,0.00,VWS V14.01,2013-02-08 18:30:00,
2013-02-08 13:31:00,31.1,21.8,30.20,NNW,335,1.0,2.0,68,0.00,,---,0.00,VWS V14.01,2013-02-08 18:31:00,
2013-02-08 13:32:00,31.2,21.9,30.20,NW,311,5.0,7.0,68,0.00,,---,0.00,VWS V14.01,2013-02-08 18:32:00,
2013-02-08 13:33:00,31.2,21.5,30.20,NNE,26,3.0,8.0,67,0.00,,---,0.00,VWS V14.01,2013-02-08 18:33:00,
2013-02-08 13:34:00,31.2,21.5,30.20,North,11,6.0,8.0,67,0.00,,---,0.00,VWS V14.01,2013-02-08 18:34:00,
2013-02-08 13:35:00,31.2,21.5,30.20,NE,46,10.0,11.0,67,0.00,,---,0.00,VWS V14.01,2013-02-08 18:35:00,
2013-02-08 13:36:00,31.2,21.5,30.20,NW,325,1.0,9.0,67,0.00,,---,0.00,VWS V14.01,2013-02-08 18:36:00,
2013-02-08 13:37:00,31.2,21.5,30.20,NNW,340,0.0,9.0,67,0.00,,---,0.00,VWS V14.01,2013-02-08 18:37:00,
2013-02-08 13:38:00,31.2,21.9,30.20,NNE,13,5.0,9.0,68,0.00,,---,0.00,VWS V14.01,2013-02-08 18:38:00,
2013-02-08 13:39:00,31.3,22.0,30.20,NNE,19,7.0,10.0,68,0.00,,---,0.00,VWS V14.01,2013-02-08 18:39:00,
2013-02-08 13:40:00,31.2,21.2,30.20,WNW,300,10.0,10.0,66,0.00,,---,0.00,VWS V14.01,2013-02-08 18:40:00,
2013-02-08 13:41:00,31.3,21.3,30.20,North,356,11.0,11.0,66,0.00,,---,0.00,VWS V14.01,2013-02-08 18:41:00,
2013-02-08 13:42:00,31.3,21.6,30.20,NNW,339,11.0,11.0,67,0.00,,---,0.00,VWS V14.01,2013-02-08 18:42:00,
2013-02-08 13:43:00,30.6,22.0,30.20,ENE,73,1.0,11.0,70,0.00,,,0.00,weatherlink.com 1.10,2013-02-08 18:43:00,
2013-02-08 13:44:00,31.3,20.9,30.20,NNE,27,6.0,11.0,65,0.00,,---,0.00,VWS V14.01,2013-02-08 18:44:00,
2013-02-08 13:45:00,31.3,20.9,30.20,ENE,60,9.0,12.0,65,0.00,,---,0.00,VWS V14.01,2013-02-08 18:45:00,
2013-02-08 13:46:00,31.2,20.8,30.20,NE,44,5.0,10.0,65,0.00,,---,0.00,VWS V14.01,2013-02-08 18:46:00,
2013-02-08 13:47:00,31.2,20.5,30.20,NNE,21,6.0,10.0,64,0.00,,---,0.00,VWS V14.01,2013-02-08 18:47:00,
2013-02-08 13:48:00,31.2,20.8,30.20,NNE,29,5.0,10.0,65,0.00,,---,0.00,VWS V14.01,2013-02-08 18:48:00,
2013-02-08 13:49:00,31.2,20.8,30.20,North,6,6.0,10.0,65,0.00,,---,0.00,VWS V14.01,2013-02-08 18:49:00,
2013-02-08 13:50:00,31.2,20.8,30.20,ENE,75,3.0,11.0,65,0.00,,---,0.00,VWS V14.01,2013-02-08 18:50:00,
2013-02-08 13:51:00,31.2,20.8,30.20,NNW,328,9.0,11.0,65,0.00,,---,0.00,VWS V14.01,2013-02-08 18:51:00,
2013-02-08 13:52:00,31.1,21.1,30.20,NE,55,7.0,11.0,66,0.00,,---,0.00,VWS V14.01,2013-02-08 18:52:00,
2013-02-08 13:53:00,31.2,21.2,30.20,North,6,3.0,11.0,66,0.00,,---,0.00,VWS V14.01,2013-02-08 18:53:00,
2013-02-08 13:54:00,31.2,21.5,30.20,NNW,328,6.0,11.0,67,0.00,,---,0.00,VWS V14.01,2013-02-08 18:54:00,
2013-02-08 13:55:00,31.2,21.2,30.20,NNW,346,4.0,11.0,66,0.00,,---,0.00,VWS V14.01,2013-02-08 18:55:00,
2013-02-08 13:56:00,31.2,21.2,30.20,NNE,32,4.0,7.0,66,0.00,,---,0.00,VWS V14.01,2013-02-08 18:56:00,
2013-02-08 13:57:00,31.3,21.3,30.20,NW,315,4.0,9.0,66,0.00,,---,0.00,VWS V14.01,2013-02-08 18:57:00,
2013-02-08 13:58:00,31.2,21.2,30.20,ENE,57,2.0,11.0,66,0.00,,---,0.00,VWS V14.01,2013-02-08 18:58:00,
2013-02-08 13:59:00,31.2,22.0,30.20,NW,309,2.0,10.0,68,0.00,,,0.00,weatherlink.com 1.10,2013-02-08 18:59:00,
2013-02-08 14:00:00,31.3,21.6,30.20,North,356,6.0,11.0,67,0.00,,---,0.00,VWS V14.01,2013-02-08 19:00:00,
2013-02-08 14:01:00,31.3,21.3,30.20,NNE,18,11.0,11.0,66,0.00,,---,0.00,VWS V14.01,2013-02-08 19:01:00,
2013-02-08 14:02:00,31.3,20.9,30.20,NNE,22,6.0,11.0,65,0.00,,---,0.00,VWS V14.01,2013-02-08 19:02:00,
2013-02-08 14:03:00,31.2,20.8,30.20,NE,38,9.0,11.0,65,0.00,,---,0.00,VWS V14.01,2013-02-08 19:03:00,
2013-02-08 14:04:00,31.2,21.2,30.20,NNE,17,7.0,11.0,66,0.00,,---,0.00,VWS V14.01,2013-02-08 19:04:00,
2013-02-08 14:05:00,31.3,21.3,30.20,NNE,19,10.0,13.0,66,0.00,,---,0.00,VWS V14.01,2013-02-08 19:05:00,
2013-02-08 14:06:00,31.3,21.3,30.20,North,5,4.0,10.0,66,0.00,,---,0.00,VWS V14.01,2013-02-08 19:06:00,
2013-02-08 14:07:00,31.3,21.3,30.20,NNE,15,5.0,10.0,66,0.00,,---,0.00,VWS V14.01,2013-02-08 19:07:00,
2013-02-08 14:08:00,31.4,21.4,30.20,NNE,17,6.0,10.0,66,0.00,,---,0.00,VWS V14.01,2013-02-08 19:08:00,
2013-02-08 14:09:00,31.4,21.4,30.20,NNW,347,5.0,10.0,66,0.00,,---,0.00,VWS V14.01,2013-02-08 19:09:00,
2013-02-08 14:10:00,31.4,21.4,30.20,North,360,12.0,12.0,66,0.00,,---,0.00,VWS V14.01,2013-02-08 19:10:00,
2013-02-08 14:11:00,31.4,21.0,30.20,NE,42,3.0,12.0,65,0.00,,---,0.00,VWS V14.01,2013-02-08 19:11:00,
2013-02-08 14:12:00,31.4,21.0,30.20,NNW,340,4.0,12.0,65,0.00,,---,0.00,VWS V14.01,2013-02-08 19:12:00,
2013-02-08 14:13:00,31.4,21.0,30.20,North,356,4.0,12.0,65,0.00,,---,0.00,VWS V14.01,2013-02-08 19:13:00,
2013-02-08 14:14:00,31.3,20.9,30.20,North,6,6.0,12.0,65,0.00,,---,0.00,VWS V14.01,2013-02-08 19:14:00,
2013-02-08 14:15:00,31.4,21.0,30.20,NW,321,5.0,12.0,65,0.00,,---,0.00,VWS V14.01,2013-02-08 19:15:00,
2013-02-08 14:16:00,31.4,21.4,30.20,NE,53,3.0,6.0,66,0.00,,---,0.00,VWS V14.01,2013-02-08 19:16:00,
2013-02-08 14:17:00,31.2,21.0,30.20,North,6,12.0,12.0,65,0.00,,,0.00,weatherlink.com 1.10,2013-02-08 19:17:00,
2013-02-08 14:18:00,31.6,21.6,30.20,NW,307,9.0,9.0,66,0.00,,---,0.00,VWS V14.01,2013-02-08 19:18:00,
2013-02-08 14:19:00,31.6,21.6,30.20,NNE,28,2.0,9.0,66,0.00,,---,0.00,VWS V14.01,2013-02-08 19:19:00,
2013-02-08 14:20:00,31.7,22.0,30.20,WNW,300,7.0,13.0,67,0.00,,---,0.00,VWS V14.01,2013-02-08 19:20:00,
2013-02-08 14:21:00,31.7,21.7,30.20,NNW,329,4.0,9.0,66,0.00,,---,0.00,VWS V14.01,2013-02-08 19:21:00,
2013-02-08 14:22:00,31.8,22.1,30.20,North,4,8.0,9.0,67,0.00,,---,0.00,VWS V14.01,2013-02-08 19:22:00,
2013-02-08 14:23:00,31.9,21.9,30.20,North,350,2.0,9.0,66,0.00,,---,0.00,VWS V14.01,2013-02-08 19:23:00,
2013-02-08 14:24:00,32.0,21.9,30.20,North,351,5.0,9.0,66,0.00,,---,0.00,VWS V14.01,2013-02-08 19:24:00,
2013-02-08 14:25:00,32.0,21.9,30.20,North,354,3.0,9.0,66,0.00,,---,0.00,VWS V14.01,2013-02-08 19:25:00,
2013-02-08 14:26:00,32.1,22.0,30.20,NNE,26,1.0,3.0,66,0.00,,---,0.00,VWS V14.01,2013-02-08 19:26:00,
2013-02-08 14:27:00,32.1,22.0,30.20,North,349,3.0,5.0,66,0.00,,---,0.00,VWS V14.01,2013-02-08 19:27:00,
2013-02-08 14:28:00,32.1,22.0,30.20,NNE,23,4.0,6.0,66,0.00,,---,0.00,VWS V14.01,2013-02-08 19:28:00,
2013-02-08 14:29:00,32.2,22.1,30.20,NNW,343,2.0,6.0,66,0.00,,---,0.00,VWS V14.01,2013-02-08 19:29:00,
2013-02-08 14:30:00,32.2,22.1,30.20,North,6,10.0,10.0,66,0.00,,---,0.00,VWS V14.01,2013-02-08 19:30:00,
2013-02-08 14:31:00,32.1,22.0,30.21,North,354,6.0,10.0,66,0.00,,---,0.00,VWS V14.01,2013-02-08 19:31:00,
2013-02-08 14:32:00,32.0,21.2,30.20,NW,313,5.0,13.0,64,0.00,,---,0.00,VWS V14.01,2013-02-08 19:32:00,
2013-02-08 14:33:00,31.8,21.0,30.21,NE,41,1.0,13.0,64,0.00,,---,0.00,VWS V14.01,2013-02-08 19:33:00,
2013-02-08 14:34:00,31.7,20.9,30.21,NE,48,9.0,13.0,64,0.00,,---,0.00,VWS V14.01,2013-02-08 19:34:00,
2013-02-08 14:35:00,31.4,21.0,30.20,NNE,26,2.0,12.0,66,0.00,,,0.00,weatherlink.com 1.10,2013-02-08 19:35:00,
2013-02-08 14:36:00,31.4,20.3,30.21,NNE,32,9.0,9.0,63,0.00,,---,0.00,VWS V14.01,2013-02-08 19:36:00,
2013-02-08 14:37:00,31.3,20.2,30.21,North,356,9.0,13.0,63,0.00,,---,0.00,VWS V14.01,2013-02-08 19:37:00,
2013-02-08 14:38:00,31.1,20.0,30.21,NNE,19,8.0,13.0,63,0.00,,---,0.00,VWS V14.01,2013-02-08 19:38:00,
2013-02-08 14:39:00,31.0,20.3,30.21,ENE,62,6.0,13.0,64,0.00,,---,0.00,VWS V14.01,2013-02-08 19:39:00,
2013-02-08 14:40:00,30.9,20.2,30.21,North,11,12.0,13.0,64,0.00,,---,0.00,VWS V14.01,2013-02-08 19:40:00,
2013-02-08 14:41:00,30.8,20.1,30.21,North,8,4.0,13.0,64,0.00,,---,0.00,VWS V14.01,2013-02-08 19:41:00,
2013-02-08 14:42:00,30.7,20.0,30.21,NNE,32,6.0,13.0,64,0.00,,---,0.00,VWS V14.01,2013-02-08 19:42:00,
2013-02-08 14:43:00,30.7,20.0,30.21,NW,325,8.0,13.0,64,0.00,,---,0.00,VWS V14.01,2013-02-08 19:43:00,
2013-02-08 14:44:00,30.7,20.0,30.21,NNW,348,4.0,13.0,64,0.00,,---,0.00,VWS V14.01,2013-02-08 19:44:00,
2013-02-08 14:45:00,30.8,20.1,30.21,NW,307,3.0,13.0,64,0.00,,---,0.00,VWS V14.01,2013-02-08 19:45:00,
2013-02-08 14:46:00,30.9,20.5,30.21,NNW,333,2.0,4.0,65,0.00,,---,0.00,VWS V14.01,2013-02-08 19:46:00,
2013-02-08 14:47:00,31.0,20.6,30.21,ESE,115,3.0,5.0,65,0.00,,---,0.00,VWS V14.01,2013-02-08 19:47:00,
2013-02-08 14:48:00,31.0,20.6,30.21,ENE,72,3.0,9.0,65,0.00,,---,0.00,VWS V14.01,2013-02-08 19:48:00,
2013-02-08 14:49:00,31.1,20.7,30.21,NW,319,5.0,9.0,65,0.00,,---,0.00,VWS V14.01,2013-02-08 19:49:00,
2013-02-08 14:50:00,31.2,20.8,30.21,NE,54,5.0,9.0,65,0.00,,---,0.00,VWS V14.01,2013-02-08 19:50:00,
2013-02-08 14:51:00,31.3,20.9,30.21,North,358,7.0,10.0,65,0.00,,---,0.00,VWS V14.01,2013-02-08 19:51:00,
2013-02-08 14:52:00,32.0,22.0,30.20,NE,46,3.0,13.0,66,0.00,,,0.00,weatherlink.com 1.10,2013-02-08 19:52:00,
2013-02-08 14:53:00,31.3,20.5,30.21,North,356,8.0,16.0,64,0.00,,---,0.00,VWS V14.01,2013-02-08 19:53:00,
2013-02-08 14:54:00,31.3,20.2,30.21,North,356,3.0,16.0,63,0.00,,---,0.00,VWS V14.01,2013-02-08 19:54:00,
2013-02-08 14:55:00,31.3,20.5,30.21,North,4,4.0,16.0,64,0.00,,---,0.00,VWS V14.01,2013-02-08 19:55:00,
2013-02-08 14:56:00,31.3,20.5,30.21,East,82,4.0,5.0,64,0.00,,---,0.00,VWS V14.01,2013-02-08 19:56:00,
2013-02-08 14:57:00,31.3,20.5,30.22,ENE,68,15.0,15.0,64,0.00,,---,0.00,VWS V14.01,2013-02-08 19:57:00,
2013-02-08 14:58:00,31.4,20.6,30.22,NE,51,9.0,15.0,64,0.00,,---,0.00,VWS V14.01,2013-02-08 19:58:00,
2013-02-08 14:59:00,31.4,20.6,30.22,NE,41,5.0,15.0,64,0.00,,---,0.00,VWS V14.01,2013-02-08 19:59:00,
2013-02-08 15:00:00,31.4,20.6,30.22,NNE,33,3.0,15.0,64,0.00,,---,0.00,VWS V14.01,2013-02-08 20:00:00,
2013-02-08 15:01:00,31.3,20.5,30.22,NNE,17,7.0,13.0,64,0.00,,---,0.00,VWS V14.01,2013-02-08 20:01:00,
2013-02-08 15:02:00,31.3,20.2,30.22,NE,51,6.0,13.0,63,0.00,,---,0.00,VWS V14.01,2013-02-08 20:02:00,
2013-02-08 15:03:00,31.3,20.5,30.22,ENE,72,8.0,13.0,64,0.00,,---,0.00,VWS V14.01,2013-02-08 20:03:00,
2013-02-08 15:04:00,31.3,20.2,30.22,NNE,18,7.0,13.0,63,0.00,,---,0.00,VWS V14.01,2013-02-08 20:04:00,
2013-02-08 15:05:00,31.2,20.1,30.22,NNW,330,8.0,13.0,63,0.00,,---,0.00,VWS V14.01,2013-02-08 20:05:00,
2013-02-08 15:06:00,31.2,20.1,30.22,NE,46,3.0,12.0,63,0.00,,---,0.00,VWS V14.01,2013-02-08 20:06:00,
2013-02-08 15:07:00,31.2,20.5,30.22,NNE,17,9.0,12.0,64,0.00,,---,0.00,VWS V14.01,2013-02-08 20:07:00,
2013-02-08 15:08:00,31.2,20.1,30.22,NNE,27,7.0,12.0,63,0.00,,---,0.00,VWS V14.01,2013-02-08 20:08:00,
2013-02-08 15:09:00,30.7,20.0,30.21,NE,51,8.0,14.0,64,0.00,,,0.00,weatherlink.com 1.10,2013-02-08 20:09:00,
2013-02-08 15:10:00,31.0,20.3,30.22,ENE,57,10.0,12.0,64,0.00,,---,0.00,VWS V14.01,2013-02-08 20:10:00,
2013-02-08 15:11:00,30.9,20.2,30.22,NNE,19,6.0,14.0,64,0.00,,---,0.00,VWS V14.01,2013-02-08 20:11:00,
2013-02-08 15:12:00,30.9,20.2,30.22,North,354,6.0,14.0,64,0.00,,---,0.00,VWS V14.01,2013-02-08 20:12:00,
2013-02-08 15:13:00,30.9,20.2,30.22,North,356,5.0,14.0,64,0.00,,---,0.00,VWS V14.01,2013-02-08 20:13:00,
2013-02-08 15:14:00,30.9,20.2,30.22,NNW,347,7.0,14.0,64,0.00,,---,0.00,VWS V14.01,2013-02-08 20:14:00,
2013-02-08 15:15:00,30.9,20.2,30.22,NNW,337,5.0,14.0,64,0.00,,---,0.00,VWS V14.01,2013-02-08 20:15:00,
2013-02-08 15:16:00,30.9,20.5,30.22,NE,49,1.0,6.0,65,0.00,,---,0.00,VWS V14.01,2013-02-08 20:16:00,
2013-02-08 15:17:00,30.9,20.5,30.22,NE,41,8.0,9.0,65,0.00,,---,0.00,VWS V14.01,2013-02-08 20:17:00,
2013-02-08 15:18:00,30.8,20.4,30.22,NE,39,8.0,13.0,65,0.00,,---,0.00,VWS V14.01,2013-02-08 20:18:00,
2013-02-08 15:19:00,30.7,20.0,30.23,North,354,9.0,13.0,64,0.00,,---,0.00,VWS V14.01,2013-02-08 20:19:00,
2013-02-08 15:20:00,30.6,19.9,30.23,North,11,7.0,13.0,64,0.00,,---,0.00,VWS V14.01,2013-02-08 20:20:00,
2013-02-08 15:21:00,30.5,19.8,30.23,NNE,15,5.0,10.0,64,0.00,,---,0.00,VWS V14.01,2013-02-08 20:21:00,
2013-02-08 15:22:00,30.5,19.8,30.23,NNW,333,9.0,10.0,64,0.00,,---,0.00,VWS V14.01,2013-02-08 20:22:00,
2013-02-08 15:23:00,30.4,20.1,30.23,NNE,17,8.0,12.0,65,0.00,,---,0.00,VWS V14.01,2013-02-08 20:23:00,
2013-02-08 15:24:00,30.3,20.0,30.23,NE,50,6.0,12.0,65,0.00,,---,0.00,VWS V14.01,2013-02-08 20:24:00,
2013-02-08 15:25:00,30.3,20.0,30.23,NNE,13,4.0,12.0,65,0.00,,---,0.00,VWS V14.01,2013-02-08 20:25:00,
2013-02-08 15:26:00,31.4,20.0,30.21,NNE,32,8.0,16.0,64,0.00,,,0.00,weatherlink.com 1.10,2013-02-08 20:26:00,
2013-02-08 15:27:00,30.2,19.9,30.23,North,354,6.0,8.0,65,0.00,,---,0.00,VWS V14.01,2013-02-08 20:27:00,
2013-02-08 15:28:00,30.2,19.9,30.23,NNE,21,3.0,8.0,65,0.00,,---,0.00,VWS V14.01,2013-02-08 20:28:00,
2013-02-08 15:29:00,30.1,19.8,30.23,North,8,1.0,8.0,65,0.00,,---,0.00,VWS V14.01,2013-02-08 20:29:00,
2013-02-08 15:30:00,30.1,20.1,30.23,NNE,26,2.0,8.0,66,0.00,,---,0.00,VWS V14.01,2013-02-08 20:30:00,
2013-02-08 15:31:00,30.1,20.1,30.23,NNE,21,8.0,8.0,66,0.00,,---,0.00,VWS V14.01,2013-02-08 20:31:00,
2013-02-08 15:32:00,30.1,20.1,30.23,NNE,20,1.0,8.0,66,0.00,,---,0.00,VWS V14.01,2013-02-08 20:32:00,
2013-02-08 15:33:00,30.1,19.8,30.23,NNW,333,3.0,8.0,65,0.00,,---,0.00,VWS V14.01,2013-02-08 20:33:00,
2013-02-08 15:34:00,30.0,20.0,30.23,NNW,340,5.0,8.0,66,0.00,,---,0.00,VWS V14.01,2013-02-08 20:34:00,
2013-02-08 15:35:00,30.0,20.0,30.23,NE,48,3.0,9.0,66,0.00,,---,0.00,VWS V14.01,2013-02-08 20:35:00,
2013-02-08 15:36:00,30.0,20.0,30.23,NE,49,4.0,8.0,66,0.00,,---,0.00,VWS V14.01,2013-02-08 20:36:00,
2013-02-08 15:37:00,30.0,19.7,30.23,NE,54,3.0,8.0,65,0.00,,---,0.00,VWS V14.01,2013-02-08 20:37:00,
2013-02-08 15:38:00,29.9,19.9,30.23,North,8,3.0,8.0,66,0.00,,---,0.00,VWS V14.01,2013-02-08 20:38:00,
2013-02-08 15:39:00,29.9,19.6,30.23,NW,323,5.0,8.0,65,0.00,,---,0.00,VWS V14.01,2013-02-08 20:39:00,
2013-02-08 15:40:00,29.8,19.5,30.23,NNE,20,11.0,11.0,65,0.00,,---,0.00,VWS V14.01,2013-02-08 20:40:00,
2013-02-08 15:41:00,29.8,19.5,30.23,NE,48,2.0,11.0,65,0.00,,---,0.00,VWS V14.01,2013-02-08 20:41:00,
2013-02-08 15:42:00,29.8,19.5,30.23,NNE,17,4.0,11.0,65,0.00,,---,0.00,VWS V14.01,2013-02-08 20:42:00,
2013-02-08 15:43:00,30.8,20.0,30.22,NE,34,5.0,13.0,65,0.00,,,0.00,weatherlink.com 1.10,2013-02-08 20:43:00,
2013-02-08 15:44:00,29.8,19.8,30.23,NNE,23,4.0,11.0,66,0.00,,---,0.00,VWS V14.01,2013-02-08 20:44:00,
2013-02-08 15:45:00,29.8,19.8,30.24,North,11,4.0,11.0,66,0.00,,---,0.00,VWS V14.01,2013-02-08 20:45:00,
2013-02-08 15:46:00,29.7,19.8,30.24,NNE,13,6.0,6.0,66,0.00,,---,0.00,VWS V14.01,2013-02-08 20:46:00,
2013-02-08 15:47:00,29.7,19.8,30.24,NNE,23,4.0,7.0,66,0.00,,---,0.00,VWS V14.01,2013-02-08 20:47:00,
2013-02-08 15:48:00,29.7,19.8,30.24,North,352,3.0,7.0,66,0.00,,---,0.00,VWS V14.01,2013-02-08 20:48:00,
2013-02-08 15:49:00,29.7,19.8,30.24,NNE,32,5.0,9.0,66,0.00,,---,0.00,VWS V14.01,2013-02-08 20:49:00,
2013-02-08 15:50:00,29.7,19.8,30.24,NNE,25,6.0,9.0,66,0.00,,---,0.00,VWS V14.01,2013-02-08 20:50:00,
2013-02-08 15:51:00,29.7,19.8,30.24,NNE,21,3.0,6.0,66,0.00,,---,0.00,VWS V14.01,2013-02-08 20:51:00,
2013-02-08 15:52:00,29.7,19.8,30.24,North,5,4.0,8.0,66,0.00,,---,0.00,VWS V14.01,2013-02-08 20:52:00,
2013-02-08 15:53:00,29.7,19.8,30.24,ENE,63,3.0,8.0,66,0.00,,---,0.00,VWS V14.01,2013-02-08 20:53:00,
2013-02-08 15:54:00,29.7,19.8,30.24,NNE,25,4.0,8.0,66,0.00,,---,0.00,VWS V14.01,2013-02-08 20:54:00,
2013-02-08 15:55:00,29.7,19.8,30.24,NNE,20,5.0,8.0,66,0.00,,---,0.00,VWS V14.01,2013-02-08 20:55:00,
2013-02-08 15:56:00,29.7,19.8,30.24,NE,50,2.0,7.0,66,0.00,,---,0.00,VWS V14.01,2013-02-08 20:56:00,
2013-02-08 15:57:00,29.7,19.8,30.24,NNE,30,4.0,7.0,66,0.00,,---,0.00,VWS V14.01,2013-02-08 20:57:00,
2013-02-08 15:58:00,29.7,19.8,30.24,NNE,20,4.0,7.0,66,0.00,,---,0.00,VWS V14.01,2013-02-08 20:58:00,
2013-02-08 15:59:00,29.8,19.8,30.24,NNE,19,3.0,7.0,66,0.00,,---,0.00,VWS V14.01,2013-02-08 20:59:00,
2013-02-08 16:00:00,30.0,20.0,30.23,NNE,25,6.0,8.0,66,0.00,,,0.00,weatherlink.com 1.10,2013-02-08 21:00:00,
2013-02-08 16:01:00,29.8,19.8,30.24,North,351,4.0,6.0,66,0.00,,---,0.00,VWS V14.01,2013-02-08 21:01:00,
2013-02-08 16:02:00,29.8,19.8,30.24,NNW,335,3.0,6.0,66,0.00,,---,0.00,VWS V14.01,2013-02-08 21:02:00,
2013-02-08 16:03:00,29.8,19.8,30.24,NNE,26,2.0,7.0,66,0.00,,---,0.00,VWS V14.01,2013-02-08 21:03:00,
2013-02-08 16:04:00,29.8,19.8,30.24,NNE,23,4.0,8.0,66,0.00,,---,0.00,VWS V14.01,2013-02-08 21:04:00,
2013-02-08 16:05:00,30.0,20.0,30.24,NNE,20,4.0,8.0,66,0.00,,---,0.00,VWS V14.01,2013-02-08 21:05:00,
2013-02-08 16:06:00,30.0,20.0,30.25,NNE,32,3.0,4.0,66,0.00,,---,0.00,VWS V14.01,2013-02-08 21:06:00,
2013-02-08 16:07:00,30.2,20.2,30.25,NE,54,0.0,4.0,66,0.00,,---,0.00,VWS V14.01,2013-02-08 21:07:00,
2013-02-08 16:08:00,30.3,20.7,30.25,NNW,343,1.0,4.0,67,0.00,,---,0.00,VWS V14.01,2013-02-08 21:08:00,
2013-02-08 16:09:00,30.4,20.8,30.25,NE,50,6.0,6.0,67,0.00,,---,0.00,VWS V14.01,2013-02-08 21:09:00,
2013-02-08 16:10:00,30.4,20.4,30.25,NE,34,6.0,9.0,66,0.00,,---,0.00,VWS V14.01,2013-02-08 21:10:00,
2013-02-08 16:11:00,30.5,20.5,30.25,North,11,5.0,5.0,66,0.00,,---,0.00,VWS V14.01,2013-02-08 21:11:00,
2013-02-08 16:12:00,30.5,20.5,30.25,NNE,15,1.0,5.0,66,0.00,,---,0.00,VWS V14.01,2013-02-08 21:12:00,
2013-02-08 16:13:00,30.5,20.5,30.25,NE,49,4.0,5.0,66,0.00,,---,0.00,VWS V14.01,2013-02-08 21:13:00,
2013-02-08 16:14:00,30.5,20.5,30.25,NNE,18,3.0,5.0,66,0.00,,---,0.00,VWS V14.01,2013-02-08 21:14:00,
2013-02-08 16:15:00,30.5,20.5,30.25,NNE,13,5.0,5.0,66,0.00,,---,0.00,VWS V14.01,2013-02-08 21:15:00,
2013-02-08 16:16:00,30.5,20.5,30.25,ENE,63,4.0,7.0,66,0.00,,---,0.00,VWS V14.01,2013-02-08 21:16:00,
2013-02-08 16:17:00,30.5,20.5,30.25,North,353,3.0,7.0,66,0.00,,---,0.00,VWS V14.01,2013-02-08 21:17:00,
2013-02-08 16:18:00,29.7,20.0,30.23,NNE,29,3.0,8.0,66,0.00,,,0.00,weatherlink.com 1.10,2013-02-08 21:18:00,
2013-02-08 16:19:00,30.5,20.5,30.25,NE,36,6.0,11.0,66,0.00,,---,0.00,VWS V14.01,2013-02-08 21:19:00,
2013-02-08 16:20:00,30.4,20.4,30.25,NNW,328,6.0,11.0,66,0.00,,---,0.00,VWS V14.01,2013-02-08 21:20:00,
2013-02-08 16:21:00,30.4,20.4,30.25,NNW,342,6.0,6.0,66,0.00,,---,0.00,VWS V14.01,2013-02-08 21:21:00,
2013-02-08 16:22:00,30.4,20.4,30.25,NNE,32,4.0,6.0,66,0.00,,---,0.00,VWS V14.01,2013-02-08 21:22:00,
2013-02-08 16:23:00,30.4,20.4,30.25,NNW,339,4.0,6.0,66,0.00,,---,0.00,VWS V14.01,2013-02-08 21:23:00,
2013-02-08 16:24:00,30.4,20.4,30.25,NNE,26,2.0,6.0,66,0.00,,---,0.00,VWS V14.01,2013-02-08 21:24:00,
2013-02-08 16:25:00,30.4,20.8,30.25,NNW,338,2.0,6.0,67,0.00,,---,0.00,VWS V14.01,2013-02-08 21:25:00,
2013-02-08 16:26:00,30.4,20.4,30.25,North,6,6.0,7.0,66,0.00,,---,0.00,VWS V14.01,2013-02-08 21:26:00,
2013-02-08 16:28:00,30.6,20.6,30.25,NNW,345,2.0,7.0,66,0.00,,---,0.00,VWS V14.01,2013-02-08 21:28:00,
2013-02-08 16:29:00,30.6,20.6,30.25,NNW,339,4.0,7.0,66,0.00,,---,0.00,VWS V14.01,2013-02-08 21:29:00,
2013-02-08 16:30:00,30.7,20.7,30.25,NNE,29,3.0,7.0,66,0.00,,---,0.00,VWS V14.01,2013-02-08 21:30:00,
2013-02-08 16:31:00,30.7,21.1,30.25,NNE,17,2.0,3.0,67,0.00,,---,0.00,VWS V14.01,2013-02-08 21:31:00,
2013-02-08 16:32:00,30.8,20.8,30.25,NNE,29,2.0,3.0,66,0.00,,---,0.00,VWS V14.01,2013-02-08 21:32:00,
2013-02-08 16:33:00,30.8,20.8,30.25,NW,316,4.0,6.0,66,0.00,,---,0.00,VWS V14.01,2013-02-08 21:33:00,
2013-02-08 16:34:00,30.8,20.8,30.25,East,90,0.0,6.0,66,0.00,,---,0.00,VWS V14.01,2013-02-08 21:34:00,
2013-02-08 16:35:00,30.3,20.0,30.25,NNE,18,4.0,7.0,67,0.00,,,0.00,weatherlink.com 1.10,2013-02-08 21:35:00,
2013-02-08 16:36:00,30.8,20.4,30.26,NW,318,6.0,9.0,65,0.00,,---,0.00,VWS V14.01,2013-02-08 21:36:00,
2013-02-08 16:37:00,30.6,19.9,30.26,NNW,333,2.0,9.0,64,0.00,,---,0.00,VWS V14.01,2013-02-08 21:37:00,
2013-02-08 16:38:00,30.6,19.9,30.26,NNE,27,6.0,9.0,64,0.00,,---,0.00,VWS V14.01,2013-02-08 21:38:00,
2013-02-08 16:39:00,30.5,19.8,30.26,NNE,32,6.0,9.0,64,0.00,,---,0.00,VWS V14.01,2013-02-08 21:39:00,
2013-02-08 16:40:00,30.5,19.8,30.26,NNE,23,6.0,9.0,64,0.00,,---,0.00,VWS V14.01,2013-02-08 21:40:00,
2013-02-08 16:41:00,30.5,19.8,30.26,NNW,347,5.0,7.0,64,0.00,,---,0.00,VWS V14.01,2013-02-08 21:41:00,
2013-02-08 16:42:00,30.4,19.7,30.26,NNW,338,1.0,7.0,64,0.00,,---,0.00,VWS V14.01,2013-02-08 21:42:00,
2013-02-08 16:43:00,30.4,19.7,30.26,NNE,25,2.0,7.0,64,0.00,,---,0.00,VWS V14.01,2013-02-08 21:43:00,
2013-02-08 16:44:00,30.3,19.6,30.26,North,3,3.0,7.0,64,0.00,,---,0.00,VWS V14.01,2013-02-08 21:44:00,
2013-02-08 16:45:00,30.3,19.6,30.26,NE,39,5.0,9.0,64,0.00,,---,0.00,VWS V14.01,2013-02-08 21:45:00,
2013-02-08 16:46:00,30.2,19.5,30.26,NNE,12,3.0,6.0,64,0.00,,---,0.00,VWS V14.01,2013-02-08 21:46:00,
2013-02-08 16:47:00,30.2,19.5,30.26,NNW,344,5.0,8.0,64,0.00,,---,0.00,VWS V14.01,2013-02-08 21:47:00,
2013-02-08 16:48:00,30.2,19.5,30.26,North,356,4.0,8.0,64,0.00,,---,0.00,VWS V14.01,2013-02-08 21:48:00,
2013-02-08 16:49:00,30.1,19.4,30.26,North,11,5.0,8.0,64,0.00,,---,0.00,VWS V14.01,2013-02-08 21:49:00,
2013-02-08 16:50:00,30.1,19.4,30.26,NNE,25,9.0,9.0,64,0.00,,---,0.00,VWS V14.01,2013-02-08 21:50:00,
2013-02-08 16:51:00,30.1,19.4,30.26,NNW,329,5.0,9.0,64,0.00,,---,0.00,VWS V14.01,2013-02-08 21:51:00,
2013-02-08 16:52:00,30.0,19.3,30.26,NNW,339,6.0,9.0,64,0.00,,---,0.00,VWS V14.01,2013-02-08 21:52:00,
2013-02-08 16:53:00,30.0,19.3,30.26,NW,325,4.0,9.0,64,0.00,,---,0.00,VWS V14.01,2013-02-08 21:53:00,
2013-02-08 16:54:00,30.4,20.0,30.25,North,11,4.0,7.0,66,0.00,,,0.00,weatherlink.com 1.10,2013-02-08 21:54:00,
2013-02-08 16:55:00,29.9,19.6,30.26,NNE,20,5.0,9.0,65,0.00,,---,0.00,VWS V14.01,2013-02-08 21:55:00,
2013-02-08 16:56:00,29.9,19.6,30.26,NNE,21,2.0,4.0,65,0.00,,---,0.00,VWS V14.01,2013-02-08 21:56:00,
2013-02-08 16:57:00,29.8,19.5,30.26,North,6,5.0,5.0,65,0.00,,---,0.00,VWS V14.01,2013-02-08 21:57:00,
2013-02-08 16:58:00,29.8,19.5,30.26,North,6,3.0,7.0,65,0.00,,---,0.00,VWS V14.01,2013-02-08 21:58:00,
2013-02-08 16:59:00,29.8,19.5,30.26,NNE,21,2.0,7.0,65,0.00,,---,0.00,VWS V14.01,2013-02-08 21:59:00,
2013-02-08 17:00:00,29.7,19.4,30.27,NNE,22,3.0,7.0,65,0.00,,---,0.00,VWS V14.01,2013-02-08 22:00:00,
2013-02-08 17:01:00,29.6,19.3,30.26,North,8,4.0,5.0,65,0.00,,---,0.00,VWS V14.01,2013-02-08 22:01:00,
2013-02-08 17:02:00,29.6,19.3,30.27,North,354,4.0,5.0,65,0.00,,---,0.00,VWS V14.01,2013-02-08 22:02:00,
2013-02-08 17:03:00,29.5,19.2,30.27,ENE,58,4.0,5.0,65,0.00,,---,0.00,VWS V14.01,2013-02-08 22:03:00,
2013-02-08 17:04:00,29.4,19.5,30.27,North,11,2.0,5.0,66,0.00,,---,0.00,VWS V14.01,2013-02-08 22:04:00,
2013-02-08 17:05:00,29.4,19.5,30.27,North,359,0.0,5.0,66,0.00,,---,0.00,VWS V14.01,2013-02-08 22:05:00,
2013-02-08 17:06:00,29.3,19.4,30.27,NE,36,1.0,2.0,66,0.00,,---,0.00,VWS V14.01,2013-02-08 22:06:00,
2013-02-08 17:07:00,29.2,19.3,30.27,North,3,1.0,2.0,66,0.00,,---,0.00,VWS V14.01,2013-02-08 22:07:00,
2013-02-08 17:08:00,29.2,19.3,30.27,NW,323,2.0,2.0,66,0.00,,---,0.00,VWS V14.01,2013-02-08 22:08:00,
2013-02-08 17:09:00,29.2,19.6,30.27,North,353,1.0,3.0,67,0.00,,---,0.00,VWS V14.01,2013-02-08 22:09:00,
2013-02-08 17:10:00,30.3,19.0,30.26,NNE,32,4.0,8.0,64,0.00,,,0.00,weatherlink.com 1.10,2013-02-08 22:10:00,
2013-02-08 17:11:00,29.0,19.4,30.27,North,356,3.0,4.0,67,0.00,,---,0.00,VWS V14.01,2013-02-08 22:11:00,
2013-02-08 17:12:00,29.0,19.4,30.27,North,351,3.0,4.0,67,0.00,,---,0.00,VWS V14.01,2013-02-08 22:12:00,
2013-02-08 17:13:00,28.9,19.3,30.27,North,9,3.0,4.0,67,0.00,,---,0.00,VWS V14.01,2013-02-08 22:13:00,
2013-02-08 17:14:00,28.9,19.3,30.27,NW,325,1.0,4.0,67,0.00,,---,0.00,VWS V14.01,2013-02-08 22:14:00,
2013-02-08 17:15:00,28.9,19.3,30.27,NE,53,1.0,4.0,67,0.00,,---,0.00,VWS V14.01,2013-02-08 22:15:00,
2013-02-08 17:16:00,28.8,19.2,30.27,North,11,0.0,2.0,67,0.00,,---,0.00,VWS V14.01,2013-02-08 22:16:00,
2013-02-08 17:17:00,28.8,19.6,30.27,ENE,68,1.0,2.0,68,0.00,,---,0.00,VWS V14.01,2013-02-08 22:17:00,
2013-02-08 17:18:00,28.7,19.5,30.27,North,360,4.0,4.0,68,0.00,,---,0.00,VWS V14.01,2013-02-08 22:18:00,
2013-02-08 17:19:00,28.7,19.5,30.27,NNE,22,3.0,4.0,68,0.00,,---,0.00,VWS V14.01,2013-02-08 22:19:00,
2013-02-08 17:20:00,28.6,19.4,30.27,NE,43,3.0,4.0,68,0.00,,---,0.00,VWS V14.01,2013-02-08 22:20:00,
2013-02-08 17:21:00,28.6,19.4,30.27,North,1,2.0,3.0,68,0.00,,---,0.00,VWS V14.01,2013-02-08 22:21:00,
2013-02-08 17:22:00,28.5,19.3,30.27,North,5,1.0,3.0,68,0.00,,---,0.00,VWS V14.01,2013-02-08 22:22:00,
2013-02-08 17:23:00,28.4,19.2,30.27,NE,37,2.0,3.0,68,0.00,,---,0.00,VWS V14.01,2013-02-08 22:23:00,
2013-02-08 17:24:00,28.4,19.5,30.27,North,5,2.0,3.0,69,0.00,,---,0.00,VWS V14.01,2013-02-08 22:24:00,
2013-02-08 17:25:00,28.4,19.5,30.27,NNW,345,2.0,4.0,69,0.00,,---,0.00,VWS V14.01,2013-02-08 22:25:00,
2013-02-08 17:26:00,29.7,19.0,30.27,North,11,3.0,7.0,65,0.00,,,0.00,weatherlink.com 1.10,2013-02-08 22:26:00,
2013-02-08 17:27:00,28.3,19.5,30.27,NNE,13,2.0,3.0,69,0.00,,---,0.00,VWS V14.01,2013-02-08 22:27:00,
2013-02-08 17:28:00,28.3,19.5,30.27,NNE,23,2.0,4.0,69,0.00,,---,0.00,VWS V14.01,2013-02-08 22:28:00,
2013-02-08 17:29:00,28.3,19.5,30.27,NNE,33,3.0,4.0,69,0.00,,---,0.00,VWS V14.01,2013-02-08 22:29:00,
2013-02-08 17:30:00,28.3,19.5,30.27,North,350,0.0,4.0,69,0.00,,---,0.00,VWS V14.01,2013-02-08 22:30:00,
2013-02-08 17:31:00,28.2,19.4,30.27,NE,37,0.0,2.0,69,0.00,,---,0.00,VWS V14.01,2013-02-08 22:31:00,
2013-02-08 17:32:00,28.1,19.3,30.27,NE,37,0.0,2.0,69,0.00,,---,0.00,VWS V14.01,2013-02-08 22:32:00,
2013-02-08 17:33:00,28.1,19.3,30.28,NE,38,1.0,2.0,69,0.00,,---,0.00,VWS V14.01,2013-02-08 22:33:00,
2013-02-08 17:34:00,28.0,19.2,30.28,NNE,26,0.0,2.0,69,0.00,,---,0.00,VWS V14.01,2013-02-08 22:34:00,
2013-02-08 17:35:00,28.0,19.5,30.28,North,9,3.0,3.0,70,0.00,,---,0.00,VWS V14.01,2013-02-08 22:35:00,
2013-02-08 17:36:00,28.0,19.5,30.28,North,9,1.0,2.0,70,0.00,,---,0.00,VWS V14.01,2013-02-08 22:36:00,
2013-02-08 17:37:00,28.0,19.5,30.28,North,8,1.0,2.0,70,0.00,,---,0.00,VWS V14.01,2013-02-08 22:37:00,
2013-02-08 17:38:00,28.0,19.5,30.28,North,9,0.0,2.0,70,0.00,,---,0.00,VWS V14.01,2013-02-08 22:38:00,
2013-02-08 17:39:00,27.9,19.4,30.28,North,359,0.0,2.0,70,0.00,,---,0.00,VWS V14.01,2013-02-08 22:39:00,
2013-02-08 17:40:00,27.8,19.3,30.28,SW,236,1.0,2.0,70,0.00,,---,0.00,VWS V14.01,2013-02-08 22:40:00,
2013-02-08 17:41:00,27.8,19.3,30.28,WNW,295,1.0,1.0,70,0.00,,---,0.00,VWS V14.01,2013-02-08 22:41:00,
2013-02-08 17:42:00,27.7,19.5,30.28,WNW,296,0.0,2.0,71,0.00,,---,0.00,VWS V14.01,2013-02-08 22:42:00,
2013-02-08 17:43:00,27.7,19.5,30.28,WNW,296,0.0,2.0,71,0.00,,---,0.00,VWS V14.01,2013-02-08 22:43:00,
2013-02-08 17:44:00,28.7,19.0,30.27,NNE,27,2.0,4.0,68,0.00,,,0.00,weatherlink.com 1.10,2013-02-08 22:44:00,
2013-02-08 17:45:00,27.5,19.4,30.28,NNW,345,2.0,2.0,71,0.00,,---,0.00,VWS V14.01,2013-02-08 22:45:00,
2013-02-08 17:46:00,27.5,19.4,30.28,North,11,0.0,2.0,71,0.00,,---,0.00,VWS V14.01,2013-02-08 22:46:00,
2013-02-08 17:47:00,27.5,19.4,30.28,NNW,329,5.0,5.0,71,0.00,,---,0.00,VWS V14.01,2013-02-08 22:47:00,
2013-02-08 17:48:00,27.5,19.4,30.28,NNW,328,0.0,5.0,71,0.00,,---,0.00,VWS V14.01,2013-02-08 22:48:00,
2013-02-08 17:49:00,27.5,19.4,30.28,NNW,328,0.0,5.0,71,0.00,,---,0.00,VWS V14.01,2013-02-08 22:49:00,
2013-02-08 17:50:00,27.5,19.4,30.28,NNE,20,0.0,5.0,71,0.00,,---,0.00,VWS V14.01,2013-02-08 22:50:00,
2013-02-08 17:51:00,27.4,19.2,30.28,NNW,327,3.0,3.0,71,0.00,,---,0.00,VWS V14.01,2013-02-08 22:51:00,
2013-02-08 17:52:00,27.3,19.1,30.28,NE,38,1.0,3.0,71,0.00,,---,0.00,VWS V14.01,2013-02-08 22:52:00,
2013-02-08 17:53:00,27.3,19.1,30.28,NNW,346,1.0,3.0,71,0.00,,---,0.00,VWS V14.01,2013-02-08 22:53:00,
2013-02-08 17:54:00,27.3,19.1,30.28,NW,321,2.0,3.0,71,0.00,,---,0.00,VWS V14.01,2013-02-08 22:54:00,
2013-02-08 17:55:00,27.3,19.5,30.28,North,1,0.0,3.0,72,0.00,,---,0.00,VWS V14.01,2013-02-08 22:55:00,
2013-02-08 17:56:00,27.3,19.5,30.28,NNE,18,1.0,1.0,72,0.00,,---,0.00,VWS V14.01,2013-02-08 22:56:00,
2013-02-08 17:57:00,27.2,19.4,30.28,NNW,340,1.0,3.0,72,0.00,,---,0.00,VWS V14.01,2013-02-08 22:57:00,
2013-02-08 17:58:00,27.2,19.4,30.28,NNW,327,1.0,3.0,72,0.00,,---,0.00,VWS V14.01,2013-02-08 22:58:00,
2013-02-08 17:59:00,27.1,19.3,30.28,North,11,1.0,3.0,72,0.00,,---,0.00,VWS V14.01,2013-02-08 22:59:00,
2013-02-08 18:00:00,27.1,19.3,30.28,North,353,1.0,3.0,72,0.00,,---,0.00,VWS V14.01,2013-02-08 23:00:00,
2013-02-08 18:01:00,28.0,19.0,30.28,NNW,343,3.0,4.0,69,0.00,,,0.00,weatherlink.com 1.10,2013-02-08 23:01:00,
2013-02-08 18:02:00,27.1,19.3,30.28,NNE,32,3.0,3.0,72,0.00,,---,0.00,VWS V14.01,2013-02-08 23:02:00,
2013-02-08 18:03:00,27.0,19.2,30.28,NW,323,1.0,3.0,72,0.00,,---,0.00,VWS V14.01,2013-02-08 23:03:00,
2013-02-08 18:04:00,27.0,19.2,30.28,NNW,348,3.0,6.0,72,0.00,,---,0.00,VWS V14.01,2013-02-08 23:04:00,
2013-02-08 18:05:00,27.0,19.2,30.28,NNE,17,1.0,6.0,72,0.00,,---,0.00,VWS V14.01,2013-02-08 23:05:00,
2013-02-08 18:06:00,26.9,19.1,30.28,North,359,0.0,1.0,72,0.00,,---,0.00,VWS V14.01,2013-02-08 23:06:00,
2013-02-08 18:07:00,26.9,19.1,30.28,NNE,26,3.0,4.0,72,0.00,,---,0.00,VWS V14.01,2013-02-08 23:07:00,
2013-02-08 18:08:00,26.8,19.3,30.29,NW,321,1.0,4.0,73,0.00,,---,0.00,VWS V14.01,2013-02-08 23:08:00,
2013-02-08 18:09:00,26.8,19.3,30.29,NW,315,1.0,4.0,73,0.00,,---,0.00,VWS V14.01,2013-02-08 23:09:00,
2013-02-08 18:10:00,26.7,19.2,30.29,NNW,331,1.0,4.0,73,0.00,,---,0.00,VWS V14.01,2013-02-08 23:10:00,
2013-02-08 18:11:00,26.7,19.2,30.29,NW,314,1.0,2.0,73,0.00,,---,0.00,VWS V14.01,2013-02-08 23:11:00,
2013-02-08 18:12:00,26.7,19.2,30.29,WNW,293,3.0,3.0,73,0.00,,---,0.00,VWS V14.01,2013-02-08 23:12:00,
2013-02-08 18:13:00,26.7,19.2,30.29,WNW,293,2.0,3.0,73,0.00,,---,0.00,VWS V14.01,2013-02-08 23:13:00,
2013-02-08 18:14:00,26.7,19.2,30.29,NNW,330,0.0,3.0,73,0.00,,---,0.00,VWS V14.01,2013-02-08 23:14:00,
2013-02-08 18:15:00,26.7,19.2,30.29,WNW,300,0.0,3.0,73,0.00,,---,0.00,VWS V14.01,2013-02-08 23:15:00,
2013-02-08 18:16:00,26.7,19.2,30.29,WNW,293,1.0,2.0,73,0.00,,---,0.00,VWS V14.01,2013-02-08 23:16:00,
2013-02-08 18:17:00,26.7,19.5,30.29,North,352,0.0,2.0,74,0.00,,---,0.00,VWS V14.01,2013-02-08 23:17:00,
2013-02-08 18:18:00,26.6,19.4,30.29,NW,307,0.0,2.0,74,0.00,,---,0.00,VWS V14.01,2013-02-08 23:18:00,
2013-02-08 18:19:00,27.3,19.0,30.28,NNW,346,2.0,5.0,71,0.00,,,0.00,weatherlink.com 1.10,2013-02-08 23:19:00,
2013-02-08 18:20:00,26.5,19.4,30.29,NW,308,0.0,2.0,74,0.00,,---,0.00,VWS V14.01,2013-02-08 23:20:00,
2013-02-08 18:21:00,26.5,19.4,30.29,NW,308,0.0,0.0,74,0.00,,---,0.00,VWS V14.01,2013-02-08 23:21:00,
2013-02-08 18:22:00,26.4,19.2,30.29,NW,308,0.0,0.0,74,0.00,,---,0.00,VWS V14.01,2013-02-08 23:22:00,
2013-02-08 18:23:00,26.3,19.1,30.29,NW,308,0.0,0.0,74,0.00,,---,0.00,VWS V14.01,2013-02-08 23:23:00,
2013-02-08 18:24:00,26.3,19.1,30.29,NW,308,0.0,0.0,74,0.00,,---,0.00,VWS V14.01,2013-02-08 23:24:00,
2013-02-08 18:25:00,26.2,19.1,30.29,North,5,0.0,0.0,74,0.00,,---,0.00,VWS V14.01,2013-02-08 23:25:00,
2013-02-08 18:26:00,26.1,19.3,30.29,NNW,335,1.0,1.0,75,0.00,,---,0.00,VWS V14.01,2013-02-08 23:26:00,
2013-02-08 18:27:00,26.0,19.2,30.30,NW,308,1.0,2.0,75,0.00,,---,0.00,VWS V14.01,2013-02-08 23:27:00,
2013-02-08 18:28:00,26.0,19.2,30.30,NW,314,3.0,3.0,75,0.00,,---,0.00,VWS V14.01,2013-02-08 23:28:00,
2013-02-08 18:29:00,26.0,19.5,30.30,NW,322,1.0,3.0,76,0.00,,---,0.00,VWS V14.01,2013-02-08 23:29:00,
2013-02-08 18:30:00,26.0,19.5,30.30,WNW,288,1.0,3.0,76,0.00,,---,0.00,VWS V14.01,2013-02-08 23:30:00,
2013-02-08 18:31:00,25.9,19.4,30.30,NW,316,2.0,2.0,76,0.00,,---,0.00,VWS V14.01,2013-02-08 23:31:00,
2013-02-08 18:32:00,25.9,19.4,30.30,North,1,0.0,2.0,76,0.00,,---,0.00,VWS V14.01,2013-02-08 23:32:00,
2013-02-08 18:33:00,25.9,19.4,30.30,NW,325,0.0,2.0,76,0.00,,---,0.00,VWS V14.01,2013-02-08 23:33:00,
2013-02-08 18:34:00,25.9,19.4,30.30,NNE,32,0.0,2.0,76,0.00,,---,0.00,VWS V14.01,2013-02-08 23:34:00,
2013-02-08 18:35:00,26.7,19.0,30.29,NW,321,1.0,6.0,73,0.00,,,0.00,weatherlink.com 1.10,2013-02-08 23:35:00,
2013-02-08 18:36:00,25.8,19.3,30.30,WNW,285,1.0,1.0,76,0.00,,---,0.00,VWS V14.01,2013-02-08 23:36:00,
2013-02-08 18:37:00,25.7,19.2,30.30,North,356,2.0,4.0,76,0.00,,---,0.00,VWS V14.01,2013-02-08 23:37:00,
2013-02-08 18:38:00,25.7,19.2,30.30,NW,304,1.0,4.0,76,0.00,,---,0.00,VWS V14.01,2013-02-08 23:38:00,
2013-02-08 18:39:00,25.6,19.1,30.30,NW,326,1.0,4.0,76,0.00,,---,0.00,VWS V14.01,2013-02-08 23:39:00,
2013-02-08 18:40:00,25.6,19.4,30.30,NW,325,1.0,4.0,77,0.00,,---,0.00,VWS V14.01,2013-02-08 23:40:00,
2013-02-08 18:41:00,25.6,19.4,30.30,North,350,1.0,3.0,77,0.00,,---,0.00,VWS V14.01,2013-02-08 23:41:00,
2013-02-08 18:42:00,25.6,19.4,30.30,North,349,0.0,3.0,77,0.00,,---,0.00,VWS V14.01,2013-02-08 23:42:00,
2013-02-08 18:43:00,25.6,19.4,30.30,NW,308,0.0,3.0,77,0.00,,---,0.00,VWS V14.01,2013-02-08 23:43:00,
2013-02-08 18:44:00,25.5,19.3,30.30,SE,133,0.0,3.0,77,0.00,,---,0.00,VWS V14.01,2013-02-08 23:44:00,
2013-02-08 18:45:00,25.4,19.2,30.30,NW,318,1.0,3.0,77,0.00,,---,0.00,VWS V14.01,2013-02-08 23:45:00,
2013-02-08 18:46:00,25.4,19.2,30.31,NNE,17,2.0,3.0,77,0.00,,---,0.00,VWS V14.01,2013-02-08 23:46:00,
2013-02-08 18:47:00,25.4,19.2,30.31,NNW,342,1.0,3.0,77,0.00,,---,0.00,VWS V14.01,2013-02-08 23:47:00,
2013-02-08 18:48:00,25.4,19.2,30.31,NNW,335,0.0,3.0,77,0.00,,---,0.00,VWS V14.01,2013-02-08 23:48:00,
2013-02-08 18:49:00,25.3,19.1,30.31,WNW,300,1.0,3.0,77,0.00,,---,0.00,VWS V14.01,2013-02-08 23:49:00,
2013-02-08 18:50:00,25.3,19.1,30.31,NW,305,0.0,3.0,77,0.00,,---,0.00,VWS V14.01,2013-02-08 23:50:00,
2013-02-08 18:51:00,25.3,19.1,30.31,NW,311,2.0,2.0,77,0.00,,---,0.00,VWS V14.01,2013-02-08 23:51:00,
2013-02-08 18:52:00,25.3,19.1,30.31,WNW,290,2.0,2.0,77,0.00,,---,0.00,VWS V14.01,2013-02-08 23:52:00,
2013-02-08 18:53:00,26.0,19.0,30.30,NW,308,1.0,2.0,75,0.00,,,0.00,weatherlink.com 1.10,2013-02-08 23:53:00,
2013-02-08 18:54:00,25.3,19.1,30.31,NNW,333,1.0,2.0,77,0.00,,---,0.00,VWS V14.01,2013-02-08 23:54:00,
2013-02-08 18:55:00,25.3,19.1,30.31,NNW,339,1.0,2.0,77,0.00,,---,0.00,VWS V14.01,2013-02-08 23:55:00,
2013-02-08 18:56:00,25.2,19.0,30.31,WNW,300,0.0,1.0,77,0.00,,---,0.00,VWS V14.01,2013-02-08 23:56:00,
2013-02-08 18:57:00,25.2,19.0,30.31,NNE,22,3.0,3.0,77,0.00,,---,0.00,VWS V14.01,2013-02-08 23:57:00,
2013-02-08 18:58:00,25.1,18.9,30.31,NW,325,1.0,3.0,77,0.00,,---,0.00,VWS V14.01,2013-02-08 23:58:00,
2013-02-08 18:59:00,25.1,18.9,30.31,North,9,4.0,4.0,77,0.00,,---,0.00,VWS V14.01,2013-02-08 23:59:00,
2013-02-08 19:00:00,25.1,18.9,30.31,North,11,3.0,4.0,77,0.00,,---,0.00,VWS V14.01,2013-02-09 00:00:00,
2013-02-08 19:01:00,25.1,18.9,30.31,North,9,3.0,3.0,77,0.00,,---,0.00,VWS V14.01,2013-02-09 00:01:00,
2013-02-08 19:02:00,25.0,18.8,30.31,NNE,12,1.0,3.0,77,0.00,,---,0.00,VWS V14.01,2013-02-09 00:02:00,
2013-02-08 19:03:00,25.0,18.8,30.31,NNW,342,6.0,6.0,77,0.00,,---,0.00,VWS V14.01,2013-02-09 00:03:00,
2013-02-08 19:04:00,25.0,18.8,30.31,NW,326,3.0,6.0,77,0.00,,---,0.00,VWS V14.01,2013-02-09 00:04:00,
2013-02-08 19:05:00,25.0,18.8,30.31,NNW,337,3.0,6.0,77,0.00,,---,0.00,VWS V14.01,2013-02-09 00:05:00,
2013-02-08 19:06:00,25.0,18.8,30.31,WNW,290,2.0,3.0,77,0.00,,---,0.00,VWS V14.01,2013-02-09 00:06:00,
2013-02-08 19:07:00,25.0,18.8,30.31,North,6,1.0,3.0,77,0.00,,---,0.00,VWS V14.01,2013-02-09 00:07:00,
2013-02-08 19:08:00,25.0,18.8,30.31,NE,51,3.0,3.0,77,0.00,,---,0.00,VWS V14.01,2013-02-09 00:08:00,
2013-02-08 19:09:00,24.9,18.7,30.31,WNW,296,3.0,3.0,77,0.00,,---,0.00,VWS V14.01,2013-02-09 00:09:00,
2013-02-08 19:10:00,25.5,19.0,30.30,SW,214,1.0,3.0,77,0.00,,,0.00,weatherlink.com 1.10,2013-02-09 00:10:00,
2013-02-08 19:11:00,24.9,18.7,30.31,North,352,1.0,3.0,77,0.00,,---,0.00,VWS V14.01,2013-02-09 00:11:00,
2013-02-08 19:12:00,24.8,18.6,30.31,NE,34,0.0,3.0,77,0.00,,---,0.00,VWS V14.01,2013-02-09 00:12:00,
2013-02-08 19:13:00,24.8,18.6,30.31,NNW,347,2.0,3.0,77,0.00,,---,0.00,VWS V14.01,2013-02-09 00:13:00,
2013-02-08 19:14:00,24.8,18.6,30.31,NE,36,1.0,3.0,77,0.00,,---,0.00,VWS V14.01,2013-02-09 00:14:00,
2013-02-08 19:15:00,24.7,18.5,30.31,NNW,341,2.0,4.0,77,0.00,,---,0.00,VWS V14.01,2013-02-09 00:15:00,
2013-02-08 19:16:00,24.7,18.5,30.31,NNE,15,1.0,1.0,77,0.00,,---,0.00,VWS V14.01,2013-02-09 00:16:00,
2013-02-08 19:17:00,24.7,18.5,30.31,NE,44,0.0,2.0,77,0.00,,---,0.00,VWS V14.01,2013-02-09 00:17:00,
2013-02-08 19:18:00,24.6,18.4,30.31,WNW,295,0.0,2.0,77,0.00,,---,0.00,VWS V14.01,2013-02-09 00:18:00,
2013-02-08 19:19:00,24.6,18.4,30.31,WNW,284,0.0,2.0,77,0.00,,---,0.00,VWS V14.01,2013-02-09 00:19:00,
2013-02-08 19:20:00,24.6,18.4,30.31,WNW,284,0.0,2.0,77,0.00,,---,0.00,VWS V14.01,2013-02-09 00:20:00,
2013-02-08 19:21:00,24.5,18.3,30.31,NW,310,2.0,2.0,77,0.00,,---,0.00,VWS V14.01,2013-02-09 00:21:00,
2013-02-08 19:22:00,24.4,18.5,30.31,NW,307,0.0,2.0,78,0.00,,---,0.00,VWS V14.01,2013-02-09 00:22:00,
2013-02-08 19:23:00,24.4,18.5,30.32,WNW,289,0.0,2.0,78,0.00,,---,0.00,VWS V14.01,2013-02-09 00:23:00,
2013-02-08 19:24:00,24.4,18.5,30.32,WNW,290,1.0,2.0,78,0.00,,---,0.00,VWS V14.01,2013-02-09 00:24:00,
2013-02-08 19:25:00,24.4,18.5,30.32,WSW,249,1.0,2.0,78,0.00,,---,0.00,VWS V14.01,2013-02-09 00:25:00,
2013-02-08 19:26:00,24.3,18.4,30.32,WNW,301,0.0,1.0,78,0.00,,---,0.00,VWS V14.01,2013-02-09 00:26:00,
2013-02-08 19:27:00,25.1,19.0,30.31,North,11,2.0,4.0,77,0.00,,,0.00,weatherlink.com 1.10,2013-02-09 00:27:00,
2013-02-08 19:28:00,24.2,18.3,30.32,West,280,0.0,1.0,78,0.00,,---,0.00,VWS V14.01,2013-02-09 00:28:00,
2013-02-08 19:29:00,24.1,18.2,30.32,West,280,1.0,1.0,78,0.00,,---,0.00,VWS V14.01,2013-02-09 00:29:00,
2013-02-08 19:30:00,24.0,18.1,30.32,West,280,0.0,1.0,78,0.00,,---,0.00,VWS V14.01,2013-02-09 00:30:00,
2013-02-08 19:31:00,24.0,18.5,30.32,West,281,1.0,1.0,79,0.00,,---,0.00,VWS V14.01,2013-02-09 00:31:00,
2013-02-08 19:32:00,23.9,18.4,30.32,West,281,0.0,1.0,79,0.00,,---,0.00,VWS V14.01,2013-02-09 00:32:00,
2013-02-08 19:33:00,23.9,18.4,30.32,WNW,283,0.0,1.0,79,0.00,,---,0.00,VWS V14.01,2013-02-09 00:33:00,
2013-02-08 19:34:00,23.8,18.2,30.32,WNW,292,0.0,1.0,79,0.00,,---,0.00,VWS V14.01,2013-02-09 00:34:00,
2013-02-08 19:35:00,23.8,18.2,30.32,WNW,292,0.0,1.0,79,0.00,,---,0.00,VWS V14.01,2013-02-09 00:35:00,
2013-02-08 19:36:00,23.8,18.2,30.32,WNW,290,0.0,1.0,79,0.00,,---,0.00,VWS V14.01,2013-02-09 00:36:00,
2013-02-08 19:37:00,23.8,18.2,30.32,WNW,293,0.0,1.0,79,0.00,,---,0.00,VWS V14.01,2013-02-09 00:37:00,
2013-02-08 19:38:00,23.7,18.1,30.33,WNW,293,0.0,1.0,79,0.00,,---,0.00,VWS V14.01,2013-02-09 00:38:00,
2013-02-08 19:39:00,23.6,18.1,30.33,North,354,3.0,4.0,79,0.00,,---,0.00,VWS V14.01,2013-02-09 00:39:00,
2013-02-08 19:40:00,23.6,18.1,30.33,WNW,296,3.0,4.0,79,0.00,,---,0.00,VWS V14.01,2013-02-09 00:40:00,
2013-02-08 19:41:00,23.5,18.0,30.33,North,1,0.0,4.0,79,0.00,,---,0.00,VWS V14.01,2013-02-09 00:41:00,
2013-02-08 19:42:00,23.5,18.0,30.33,WNW,297,2.0,4.0,79,0.00,,---,0.00,VWS V14.01,2013-02-09 00:42:00,
2013-02-08 19:43:00,23.4,17.9,30.33,NW,319,0.0,4.0,79,0.00,,---,0.00,VWS V14.01,2013-02-09 00:43:00,
2013-02-08 19:44:00,23.4,17.9,30.33,ESE,108,0.0,4.0,79,0.00,,---,0.00,VWS V14.01,2013-02-09 00:44:00,
2013-02-08 19:45:00,24.6,18.0,30.31,WNW,284,0.0,4.0,77,0.00,,,0.00,weatherlink.com 1.10,2013-02-09 00:45:00,
2013-02-08 19:46:00,23.3,17.8,30.33,NE,56,0.0,0.0,79,0.00,,---,0.00,VWS V14.01,2013-02-09 00:46:00,
2013-02-08 19:47:00,23.3,17.8,30.32,NW,323,3.0,3.0,79,0.00,,---,0.00,VWS V14.01,2013-02-09 00:47:00,
2013-02-08 19:48:00,23.3,17.8,30.33,NNW,347,3.0,4.0,79,0.00,,---,0.00,VWS V14.01,2013-02-09 00:48:00,
2013-02-08 19:49:00,23.3,17.8,30.33,North,350,1.0,4.0,79,0.00,,---,0.00,VWS V14.01,2013-02-09 00:49:00,
2013-02-08 19:50:00,23.2,17.7,30.33,NW,315,0.0,4.0,79,0.00,,---,0.00,VWS V14.01,2013-02-09 00:50:00,
2013-02-08 19:51:00,23.2,17.7,30.33,North,4,0.0,2.0,79,0.00,,---,0.00,VWS V14.01,2013-02-09 00:51:00,
2013-02-08 19:52:00,23.2,17.7,30.33,NW,325,2.0,2.0,79,0.00,,---,0.00,VWS V14.01,2013-02-09 00:52:00,
2013-02-08 19:53:00,23.2,17.7,30.33,West,269,1.0,2.0,79,0.00,,---,0.00,VWS V14.01,2013-02-09 00:53:00,
2013-02-08 19:54:00,23.2,17.7,30.33,NW,319,0.0,2.0,79,0.00,,---,0.00,VWS V14.01,2013-02-09 00:54:00,
2013-02-08 19:55:00,23.2,17.7,30.33,ENE,57,1.0,3.0,79,0.00,,---,0.00,VWS V14.01,2013-02-09 00:55:00,
2013-02-08 19:56:00,23.1,17.6,30.33,NW,323,2.0,2.0,79,0.00,,---,0.00,VWS V14.01,2013-02-09 00:56:00,
2013-02-08 19:57:00,23.1,17.6,30.33,NNW,335,0.0,3.0,79,0.00,,---,0.00,VWS V14.01,2013-02-09 00:57:00,
2013-02-08 19:58:00,23.1,17.6,30.33,NE,46,2.0,3.0,79,0.00,,---,0.00,VWS V14.01,2013-02-09 00:58:00,
2013-02-08 19:59:00,23.0,17.5,30.33,NNE,25,0.0,3.0,79,0.00,,---,0.00,VWS V14.01,2013-02-09 00:59:00,
2013-02-08 20:00:00,23.0,17.5,30.32,NNW,342,1.0,3.0,79,0.00,,---,0.00,VWS V14.01,2013-02-09 01:00:00,
2013-02-08 20:01:00,22.9,17.7,30.33,NE,34,2.0,3.0,80,0.00,,---,0.00,VWS V14.01,2013-02-09 01:01:00,
2013-02-08 20:02:00,23.8,18.0,30.32,WNW,290,0.0,2.0,79,0.00,,,0.00,weatherlink.com 1.10,2013-02-09 01:02:00,
2013-02-08 20:03:00,22.9,17.7,30.33,NE,36,0.0,3.0,80,0.00,,---,0.00,VWS V14.01,2013-02-09 01:03:00,
2013-02-08 20:04:00,22.8,17.6,30.33,North,11,0.0,3.0,80,0.00,,---,0.00,VWS V14.01,2013-02-09 01:04:00,
2013-02-08 20:05:00,22.8,17.6,30.32,North,356,1.0,5.0,80,0.00,,---,0.00,VWS V14.01,2013-02-09 01:05:00,
2013-02-08 20:06:00,22.8,17.6,30.32,NE,44,2.0,4.0,80,0.00,,---,0.00,VWS V14.01,2013-02-09 01:06:00,
2013-02-08 20:07:00,22.7,17.5,30.33,North,360,1.0,4.0,80,0.00,,---,0.00,VWS V14.01,2013-02-09 01:07:00,
2013-02-08 20:08:00,22.7,17.5,30.33,NNW,339,2.0,6.0,80,0.00,,---,0.00,VWS V14.01,2013-02-09 01:08:00,
2013-02-08 20:09:00,22.7,17.5,30.33,NNW,347,0.0,6.0,80,0.00,,---,0.00,VWS V14.01,2013-02-09 01:09:00,
2013-02-08 20:10:00,22.7,17.5,30.33,NNW,337,3.0,6.0,80,0.00,,---,0.00,VWS V14.01,2013-02-09 01:10:00,
2013-02-08 20:11:00,22.7,17.5,30.33,NNE,27,0.0,4.0,80,0.00,,---,0.00,VWS V14.01,2013-02-09 01:11:00,
2013-02-08 20:12:00,22.7,17.5,30.33,NNE,30,0.0,4.0,80,0.00,,---,0.00,VWS V14.01,2013-02-09 01:12:00,
2013-02-08 20:13:00,22.6,17.4,30.33,NNE,29,0.0,4.0,80,0.00,,---,0.00,VWS V14.01,2013-02-09 01:13:00,
2013-02-08 20:14:00,22.6,17.4,30.33,NNW,344,1.0,4.0,80,0.00,,---,0.00,VWS V14.01,2013-02-09 01:14:00,
2013-02-08 20:15:00,22.5,17.3,30.33,North,3,0.0,4.0,80,0.00,,---,0.00,VWS V14.01,2013-02-09 01:15:00,
2013-02-08 20:16:00,22.5,17.3,30.33,North,1,0.0,2.0,80,0.00,,---,0.00,VWS V14.01,2013-02-09 01:16:00,
2013-02-08 20:17:00,22.5,17.3,30.33,WNW,300,0.0,4.0,80,0.00,,---,0.00,VWS V14.01,2013-02-09 01:17:00,
2013-02-08 20:18:00,22.4,17.2,30.33,North,352,2.0,4.0,80,0.00,,---,0.00,VWS V14.01,2013-02-09 01:18:00,
2013-02-08 20:19:00,22.4,17.2,30.33,NE,38,1.0,4.0,80,0.00,,---,0.00,VWS V14.01,2013-02-09 01:19:00,
2013-02-08 20:20:00,23.2,18.0,30.33,West,280,1.0,4.0,79,0.00,,,0.00,weatherlink.com 1.10,2013-02-09 01:20:00,
2013-02-08 20:21:00,22.4,17.5,30.33,North,353,2.0,3.0,81,0.00,,---,0.00,VWS V14.01,2013-02-09 01:21:00,
2013-02-08 20:22:00,22.3,17.4,30.33,NNW,341,0.0,3.0,81,0.00,,---,0.00,VWS V14.01,2013-02-09 01:22:00,
2013-02-08 20:23:00,22.3,17.4,30.33,NW,316,1.0,4.0,81,0.00,,---,0.00,VWS V14.01,2013-02-09 01:23:00,
2013-02-08 20:24:00,22.3,17.4,30.33,North,6,1.0,4.0,81,0.00,,---,0.00,VWS V14.01,2013-02-09 01:24:00,
2013-02-08 20:25:00,22.3,17.4,30.33,North,5,0.0,4.0,81,0.00,,---,0.00,VWS V14.01,2013-02-09 01:25:00,
2013-02-08 20:26:00,22.2,17.3,30.33,NNW,342,1.0,1.0,81,0.00,,---,0.00,VWS V14.01,2013-02-09 01:26:00,
2013-02-08 20:27:00,22.2,17.3,30.33,NNW,330,1.0,1.0,81,0.00,,---,0.00,VWS V14.01,2013-02-09 01:27:00,
2013-02-08 20:28:00,22.1,17.2,30.33,WNW,294,2.0,4.0,81,0.00,,---,0.00,VWS V14.01,2013-02-09 01:28:00,
2013-02-08 20:29:00,22.1,17.2,30.33,NW,326,0.0,4.0,81,0.00,,---,0.00,VWS V14.01,2013-02-09 01:29:00,
2013-02-08 20:30:00,22.1,17.2,30.33,NE,34,1.0,4.0,81,0.00,,---,0.00,VWS V14.01,2013-02-09 01:30:00,
2013-02-08 20:31:00,22.0,17.1,30.33,NE,40,0.0,2.0,81,0.00,,---,0.00,VWS V14.01,2013-02-09 01:31:00,
2013-02-08 20:32:00,22.0,17.1,30.34,NNE,32,0.0,2.0,81,0.00,,---,0.00,VWS V14.01,2013-02-09 01:32:00,
2013-02-08 20:33:00,21.9,17.0,30.34,NNW,335,2.0,2.0,81,0.00,,---,0.00,VWS V14.01,2013-02-09 01:33:00,
2013-02-08 20:34:00,21.9,17.0,30.34,NNE,23,0.0,2.0,81,0.00,,---,0.00,VWS V14.01,2013-02-09 01:34:00,
2013-02-08 20:35:00,21.9,17.0,30.34,NNE,26,0.0,2.0,81,0.00,,---,0.00,VWS V14.01,2013-02-09 01:35:00,
2013-02-08 20:36:00,22.7,17.0,30.33,NNE,27,1.0,6.0,80,0.00,,,0.00,weatherlink.com 1.10,2013-02-09 01:36:00,
2013-02-08 20:37:00,21.8,16.9,30.33,NNW,347,0.0,1.0,81,0.00,,---,0.00,VWS V14.01,2013-02-09 01:37:00,
2013-02-08 20:38:00,21.8,16.9,30.33,NNE,32,0.0,2.0,81,0.00,,---,0.00,VWS V14.01,2013-02-09 01:38:00,
2013-02-08 20:39:00,21.7,16.8,30.33,NNE,26,1.0,2.0,81,0.00,,---,0.00,VWS V14.01,2013-02-09 01:39:00,
2013-02-08 20:40:00,21.7,16.8,30.33,NNE,12,1.0,2.0,81,0.00,,---,0.00,VWS V14.01,2013-02-09 01:40:00,
2013-02-08 20:41:00,21.7,16.8,30.34,North,11,0.0,1.0,81,0.00,,---,0.00,VWS V14.01,2013-02-09 01:41:00,
2013-02-08 20:42:00,21.7,16.8,30.33,NNE,32,1.0,1.0,81,0.00,,---,0.00,VWS V14.01,2013-02-09 01:42:00,
2013-02-08 20:43:00,21.6,17.0,30.34,NNE,32,2.0,4.0,82,0.00,,---,0.00,VWS V14.01,2013-02-09 01:43:00,
2013-02-08 20:44:00,21.6,17.0,30.34,North,360,2.0,4.0,82,0.00,,---,0.00,VWS V14.01,2013-02-09 01:44:00,
2013-02-08 20:45:00,21.6,17.0,30.34,NNE,28,1.0,4.0,82,0.00,,---,0.00,VWS V14.01,2013-02-09 01:45:00,
2013-02-08 20:46:00,21.6,17.0,30.34,NNE,20,0.0,1.0,82,0.00,,---,0.00,VWS V14.01,2013-02-09 01:46:00,
2013-02-08 20:47:00,21.6,17.0,30.34,NNE,22,0.0,1.0,82,0.00,,---,0.00,VWS V14.01,2013-02-09 01:47:00,
2013-02-08 20:48:00,21.5,16.9,30.34,NNW,343,0.0,1.0,82,0.00,,---,0.00,VWS V14.01,2013-02-09 01:48:00,
2013-02-08 20:49:00,21.5,16.9,30.34,NNW,335,0.0,1.0,82,0.00,,---,0.00,VWS V14.01,2013-02-09 01:49:00,
2013-02-08 20:50:00,21.5,16.9,30.34,NNW,346,0.0,1.0,82,0.00,,---,0.00,VWS V14.01,2013-02-09 01:50:00,
2013-02-08 20:51:00,21.4,16.8,30.34,NNE,27,0.0,1.0,82,0.00,,---,0.00,VWS V14.01,2013-02-09 01:51:00,
2013-02-08 20:52:00,21.4,16.8,30.34,NNE,27,0.0,1.0,82,0.00,,---,0.00,VWS V14.01,2013-02-09 01:52:00,
2013-02-08 20:53:00,21.3,16.7,30.34,NNE,26,0.0,1.0,82,0.00,,---,0.00,VWS V14.01,2013-02-09 01:53:00,
2013-02-08 20:54:00,22.1,17.0,30.34,WNW,288,1.0,5.0,81,0.00,,,0.00,weatherlink.com 1.10,2013-02-09 01:54:00,
2013-02-08 20:55:00,21.3,16.7,30.34,NE,47,0.0,1.0,82,0.00,,---,0.00,VWS V14.01,2013-02-09 01:55:00,
2013-02-08 20:56:00,21.2,16.6,30.34,NE,47,1.0,1.0,82,0.00,,---,0.00,VWS V14.01,2013-02-09 01:56:00,
2013-02-08 20:57:00,21.2,16.6,30.34,NNW,346,0.0,1.0,82,0.00,,---,0.00,VWS V14.01,2013-02-09 01:57:00,
2013-02-08 20:58:00,21.1,16.5,30.34,NE,34,0.0,3.0,82,0.00,,---,0.00,VWS V14.01,2013-02-09 01:58:00,
2013-02-08 20:59:00,21.1,16.5,30.34,NNE,23,1.0,3.0,82,0.00,,---,0.00,VWS V14.01,2013-02-09 01:59:00,
2013-02-08 21:00:00,21.1,16.5,30.34,NNE,32,1.0,3.0,82,0.00,,---,0.00,VWS V14.01,2013-02-09 02:00:00,
2013-02-08 21:01:00,21.1,16.5,30.34,NNE,32,0.0,1.0,82,0.00,,---,0.00,VWS V14.01,2013-02-09 02:01:00,
2013-02-08 21:02:00,21.0,16.4,30.34,NNW,339,0.0,1.0,82,0.00,,---,0.00,VWS V14.01,2013-02-09 02:02:00,
2013-02-08 21:03:00,21.0,16.4,30.34,NNW,339,0.0,1.0,82,0.00,,---,0.00,VWS V14.01,2013-02-09 02:03:00,
2013-02-08 21:04:00,20.9,16.3,30.34,NNE,26,0.0,1.0,82,0.00,,---,0.00,VWS V14.01,2013-02-09 02:04:00,
2013-02-08 21:05:00,20.8,16.5,30.34,NNE,24,0.0,1.0,83,0.00,,---,0.00,VWS V14.01,2013-02-09 02:05:00,
2013-02-08 21:06:00,20.8,16.5,30.34,NNW,346,3.0,3.0,83,0.00,,---,0.00,VWS V14.01,2013-02-09 02:06:00,
2013-02-08 21:07:00,20.8,16.5,30.34,NNE,32,0.0,3.0,83,0.00,,---,0.00,VWS V14.01,2013-02-09 02:07:00,
2013-02-08 21:08:00,20.7,16.4,30.34,ENE,57,1.0,3.0,83,0.00,,---,0.00,VWS V14.01,2013-02-09 02:08:00,
2013-02-08 21:09:00,20.7,16.4,30.34,ENE,57,0.0,3.0,83,0.00,,---,0.00,VWS V14.01,2013-02-09 02:09:00,
2013-02-08 21:10:00,20.7,16.4,30.34,ENE,57,0.0,3.0,83,0.00,,---,0.00,VWS V14.01,2013-02-09 02:10:00,
2013-02-08 21:11:00,21.6,17.0,30.34,NNE,13,1.0,5.0,82,0.00,,,0.00,weatherlink.com 1.10,2013-02-09 02:11:00,
2013-02-08 21:12:00,20.6,16.3,30.34,ENE,57,0.0,0.0,83,0.00,,---,0.00,VWS V14.01,2013-02-09 02:12:00,
2013-02-08 21:13:00,20.5,16.2,30.34,ENE,57,0.0,0.0,83,0.00,,---,0.00,VWS V14.01,2013-02-09 02:13:00,
2013-02-08 21:14:00,20.5,16.2,30.34,ENE,60,0.0,0.0,83,0.00,,---,0.00,VWS V14.01,2013-02-09 02:14:00,
2013-02-08 21:15:00,20.5,16.4,30.34,NE,56,0.0,0.0,84,0.00,,---,0.00,VWS V14.01,2013-02-09 02:15:00,
2013-02-08 21:16:00,20.4,16.4,30.34,NE,56,0.0,0.0,84,0.00,,---,0.00,VWS V14.01,2013-02-09 02:16:00,
2013-02-08 21:17:00,20.4,16.4,30.34,NE,39,0.0,0.0,84,0.00,,---,0.00,VWS V14.01,2013-02-09 02:17:00,
2013-02-08 21:18:00,20.4,16.4,30.34,NE,37,0.0,1.0,84,0.00,,---,0.00,VWS V14.01,2013-02-09 02:18:00,
2013-02-08 21:19:00,20.3,16.2,30.34,NE,44,2.0,2.0,84,0.00,,---,0.00,VWS V14.01,2013-02-09 02:19:00,
2013-02-08 21:20:00,20.3,16.2,30.34,NE,52,0.0,3.0,84,0.00,,---,0.00,VWS V14.01,2013-02-09 02:20:00,
2013-02-08 21:21:00,20.3,16.2,30.34,NE,53,0.0,0.0,84,0.00,,---,0.00,VWS V14.01,2013-02-09 02:21:00,
2013-02-08 21:22:00,20.3,16.2,30.34,NNE,13,0.0,2.0,84,0.00,,---,0.00,VWS V14.01,2013-02-09 02:22:00,
2013-02-08 21:23:00,20.2,16.1,30.34,NNE,13,0.0,2.0,84,0.00,,---,0.00,VWS V14.01,2013-02-09 02:23:00,
2013-02-08 21:24:00,20.2,16.1,30.35,NE,42,0.0,2.0,84,0.00,,---,0.00,VWS V14.01,2013-02-09 02:24:00,
2013-02-08 21:25:00,20.2,16.1,30.35,NE,42,0.0,2.0,84,0.00,,---,0.00,VWS V14.01,2013-02-09 02:25:00,
2013-02-08 21:26:00,20.2,16.1,30.35,NE,43,0.0,0.0,84,0.00,,---,0.00,VWS V14.01,2013-02-09 02:26:00,
2013-02-08 21:27:00,20.1,16.0,30.35,NE,42,0.0,0.0,84,0.00,,---,0.00,VWS V14.01,2013-02-09 02:27:00,
2013-02-08 21:28:00,21.0,16.0,30.34,NNW,339,0.0,2.0,82,0.00,,,0.00,weatherlink.com 1.10,2013-02-09 02:28:00,
2013-02-08 21:29:00,20.1,16.0,30.35,North,356,0.0,1.0,84,0.00,,---,0.00,VWS V14.01,2013-02-09 02:29:00,
2013-02-08 21:30:00,20.1,16.0,30.35,North,356,0.0,1.0,84,0.00,,---,0.00,VWS V14.01,2013-02-09 02:30:00,
2013-02-08 21:31:00,20.0,15.9,30.35,North,360,0.0,1.0,84,0.00,,---,0.00,VWS V14.01,2013-02-09 02:31:00,
2013-02-08 21:32:00,20.0,15.9,30.35,NNE,18,0.0,1.0,84,0.00,,---,0.00,VWS V14.01,2013-02-09 02:32:00,
2013-02-08 21:33:00,19.9,15.9,30.35,NNE,17,0.0,1.0,84,0.00,,---,0.00,VWS V14.01,2013-02-09 02:33:00,
2013-02-08 21:34:00,19.9,15.9,30.35,NNE,18,1.0,1.0,84,0.00,,---,0.00,VWS V14.01,2013-02-09 02:34:00,
2013-02-08 21:35:00,19.8,16.0,30.35,NNE,22,0.0,1.0,85,0.00,,---,0.00,VWS V14.01,2013-02-09 02:35:00,
2013-02-08 21:36:00,19.8,15.8,30.35,NNE,32,0.0,1.0,84,0.00,,---,0.00,VWS V14.01,2013-02-09 02:36:00,
2013-02-08 21:37:00,19.8,15.8,30.35,North,1,0.0,1.0,84,0.00,,---,0.00,VWS V14.01,2013-02-09 02:37:00,
2013-02-08 21:38:00,19.7,15.7,30.35,NE,47,0.0,1.0,84,0.00,,---,0.00,VWS V14.01,2013-02-09 02:38:00,
2013-02-08 21:39:00,19.7,15.9,30.35,NE,48,0.0,1.0,85,0.00,,---,0.00,VWS V14.01,2013-02-09 02:39:00,
2013-02-08 21:40:00,19.7,15.9,30.35,East,79,0.0,3.0,85,0.00,,---,0.00,VWS V14.01,2013-02-09 02:40:00,
2013-02-08 21:41:00,19.7,15.9,30.35,NNE,17,2.0,2.0,85,0.00,,---,0.00,VWS V14.01,2013-02-09 02:41:00,
2013-02-08 21:42:00,19.6,15.8,30.35,NNE,33,0.0,2.0,85,0.00,,---,0.00,VWS V14.01,2013-02-09 02:42:00,
2013-02-08 21:43:00,19.6,15.8,30.35,North,1,0.0,2.0,85,0.00,,---,0.00,VWS V14.01,2013-02-09 02:43:00,
2013-02-08 21:44:00,19.6,15.8,30.35,NNE,25,1.0,2.0,85,0.00,,---,0.00,VWS V14.01,2013-02-09 02:44:00,
2013-02-08 21:45:00,19.6,15.8,30.35,North,1,0.0,4.0,85,0.00,,---,0.00,VWS V14.01,2013-02-09 02:45:00,
2013-02-08 21:46:00,20.3,16.0,30.34,NE,52,0.0,3.0,84,0.00,,,0.00,weatherlink.com 1.10,2013-02-09 02:46:00,
2013-02-08 21:47:00,19.5,15.7,30.35,NNE,15,0.0,1.0,85,0.00,,---,0.00,VWS V14.01,2013-02-09 02:47:00,
2013-02-08 21:48:00,19.4,15.6,30.35,North,11,0.0,1.0,85,0.00,,---,0.00,VWS V14.01,2013-02-09 02:48:00,
2013-02-08 21:49:00,19.4,15.6,30.35,NNE,12,0.0,1.0,85,0.00,,---,0.00,VWS V14.01,2013-02-09 02:49:00,
2013-02-08 21:50:00,19.3,15.5,30.35,NE,46,0.0,1.0,85,0.00,,---,0.00,VWS V14.01,2013-02-09 02:50:00,
2013-02-08 21:51:00,19.3,15.5,30.35,NE,46,0.0,1.0,85,0.00,,---,0.00,VWS V14.01,2013-02-09 02:51:00,
2013-02-08 21:52:00,19.3,15.5,30.36,East,94,0.0,1.0,85,0.00,,---,0.00,VWS V14.01,2013-02-09 02:52:00,
2013-02-08 21:53:00,19.2,15.4,30.36,East,87,0.0,1.0,85,0.00,,---,0.00,VWS V14.01,2013-02-09 02:53:00,
2013-02-08 21:54:00,19.2,15.4,30.36,East,88,0.0,1.0,85,0.00,,---,0.00,VWS V14.01,2013-02-09 02:54:00,
2013-02-08 21:55:00,19.1,15.3,30.36,East,86,0.0,1.0,85,0.00,,---,0.00,VWS V14.01,2013-02-09 02:55:00,
2013-02-08 21:56:00,19.1,15.3,30.36,East,87,0.0,0.0,85,0.00,,---,0.00,VWS V14.01,2013-02-09 02:56:00,
2013-02-08 21:57:00,19.0,15.2,30.36,NNE,29,0.0,0.0,85,0.00,,---,0.00,VWS V14.01,2013-02-09 02:57:00,
2013-02-08 21:58:00,19.0,15.5,30.36,NNE,26,0.0,0.0,86,0.00,,---,0.00,VWS V14.01,2013-02-09 02:58:00,
2013-02-08 21:59:00,18.9,15.4,30.36,NNE,26,0.0,0.0,86,0.00,,---,0.00,VWS V14.01,2013-02-09 02:59:00,
2013-02-08 22:00:00,18.9,15.4,30.36,NNE,26,0.0,0.0,86,0.00,,---,0.00,VWS V14.01,2013-02-09 03:00:00,
2013-02-08 22:01:00,18.8,15.3,30.36,NNE,27,0.0,0.0,86,0.00,,---,0.00,VWS V14.01,2013-02-09 03:01:00,
2013-02-08 22:02:00,18.8,15.3,30.36,NNE,26,0.0,0.0,86,0.00,,---,0.00,VWS V14.01,2013-02-09 03:02:00,
2013-02-08 22:03:00,19.8,16.0,30.35,North,1,1.0,1.0,84,0.00,,,0.00,weatherlink.com 1.10,2013-02-09 03:03:00,
2013-02-08 22:04:00,18.6,15.1,30.36,NNE,26,0.0,0.0,86,0.00,,---,0.00,VWS V14.01,2013-02-09 03:04:00,
2013-02-08 22:05:00,18.6,15.1,30.36,NNE,26,0.0,0.0,86,0.00,,---,0.00,VWS V14.01,2013-02-09 03:05:00,
2013-02-08 22:06:00,18.5,15.0,30.36,NNE,26,0.0,0.0,86,0.00,,---,0.00,VWS V14.01,2013-02-09 03:06:00,
2013-02-08 22:07:00,18.4,14.9,30.36,NNE,26,0.0,0.0,86,0.00,,---,0.00,VWS V14.01,2013-02-09 03:07:00,
2013-02-08 22:08:00,18.3,15.1,30.36,NNE,26,0.0,0.0,87,0.00,,---,0.00,VWS V14.01,2013-02-09 03:08:00,
2013-02-08 22:09:00,18.3,15.1,30.36,NNE,26,0.0,0.0,87,0.00,,---,0.00,VWS V14.01,2013-02-09 03:09:00,
2013-02-08 22:10:00,18.2,15.0,30.36,NNE,26,0.0,0.0,87,0.00,,---,0.00,VWS V14.01,2013-02-09 03:10:00,
2013-02-08 22:11:00,18.1,14.9,30.36,NNE,27,0.0,0.0,87,0.00,,---,0.00,VWS V14.01,2013-02-09 03:11:00,
2013-02-08 22:12:00,18.0,14.8,30.36,NNE,27,0.0,0.0,87,0.00,,---,0.00,VWS V14.01,2013-02-09 03:12:00,
2013-02-08 22:13:00,17.9,14.7,30.36,NNE,26,0.0,0.0,87,0.00,,---,0.00,VWS V14.01,2013-02-09 03:13:00,
2013-02-08 22:14:00,17.8,14.6,30.36,NNE,26,0.0,0.0,87,0.00,,---,0.00,VWS V14.01,2013-02-09 03:14:00,
2013-02-08 22:15:00,17.8,14.6,30.36,NNE,26,0.0,0.0,87,0.00,,---,0.00,VWS V14.01,2013-02-09 03:15:00,
2013-02-08 22:16:00,17.7,14.5,30.36,NNE,27,0.0,0.0,87,0.00,,---,0.00,VWS V14.01,2013-02-09 03:16:00,
2013-02-08 22:17:00,17.6,14.7,30.36,NNE,26,0.0,0.0,88,0.00,,---,0.00,VWS V14.01,2013-02-09 03:17:00,
2013-02-08 22:18:00,17.6,14.7,30.37,West,262,0.0,0.0,88,0.00,,---,0.00,VWS V14.01,2013-02-09 03:18:00,
2013-02-08 22:19:00,17.7,14.8,30.37,West,262,0.0,0.0,88,0.00,,---,0.00,VWS V14.01,2013-02-09 03:19:00,
2013-02-08 22:20:00,17.7,15.0,30.37,West,262,0.0,0.0,89,0.00,,---,0.00,VWS V14.01,2013-02-09 03:20:00,
2013-02-08 22:21:00,19.1,15.0,30.36,East,87,0.0,1.0,85,0.00,,,0.00,weatherlink.com 1.10,2013-02-09 03:21:00,
2013-02-08 22:22:00,17.7,15.0,30.37,West,262,0.0,0.0,89,0.00,,---,0.00,VWS V14.01,2013-02-09 03:22:00,
2013-02-08 22:23:00,17.8,15.1,30.37,West,262,0.0,0.0,89,0.00,,---,0.00,VWS V14.01,2013-02-09 03:23:00,
2013-02-08 22:24:00,17.8,15.1,30.37,West,262,0.0,0.0,89,0.00,,---,0.00,VWS V14.01,2013-02-09 03:24:00,
2013-02-08 22:25:00,17.7,14.8,30.37,West,262,0.0,0.0,88,0.00,,---,0.00,VWS V14.01,2013-02-09 03:25:00,
2013-02-08 22:26:00,17.7,14.8,30.38,West,262,0.0,0.0,88,0.00,,---,0.00,VWS V14.01,2013-02-09 03:26:00,
2013-02-08 22:27:00,17.6,14.7,30.38,West,262,0.0,0.0,88,0.00,,---,0.00,VWS V14.01,2013-02-09 03:27:00,
2013-02-08 22:28:00,17.6,14.7,30.38,West,262,0.0,0.0,88,0.00,,---,0.00,VWS V14.01,2013-02-09 03:28:00,
2013-02-08 22:29:00,17.5,14.6,30.38,West,262,0.0,0.0,88,0.00,,---,0.00,VWS V14.01,2013-02-09 03:29:00,
2013-02-08 22:30:00,17.4,14.5,30.38,West,262,0.0,0.0,88,0.00,,---,0.00,VWS V14.01,2013-02-09 03:30:00,
2013-02-08 22:31:00,17.3,14.4,30.38,West,262,0.0,0.0,88,0.00,,---,0.00,VWS V14.01,2013-02-09 03:31:00,
2013-02-08 22:32:00,17.3,14.4,30.38,West,262,0.0,0.0,88,0.00,,---,0.00,VWS V14.01,2013-02-09 03:32:00,
2013-02-08 22:33:00,17.2,14.5,30.38,West,261,0.0,0.0,89,0.00,,---,0.00,VWS V14.01,2013-02-09 03:33:00,
2013-02-08 22:34:00,17.1,14.4,30.38,West,262,0.0,0.0,89,0.00,,---,0.00,VWS V14.01,2013-02-09 03:34:00,
2013-02-08 22:35:00,17.1,14.4,30.38,West,262,0.0,0.0,89,0.00,,---,0.00,VWS V14.01,2013-02-09 03:35:00,
2013-02-08 22:36:00,17.0,14.3,30.38,West,262,0.0,0.0,89,0.00,,---,0.00,VWS V14.01,2013-02-09 03:36:00,
2013-02-08 22:37:00,18.0,15.0,30.36,NNE,26,0.0,0.0,87,0.00,,,0.00,weatherlink.com 1.10,2013-02-09 03:37:00,
2013-02-08 22:38:00,16.8,14.1,30.37,West,262,0.0,0.0,89,0.00,,---,0.00,VWS V14.01,2013-02-09 03:38:00,
2013-02-08 22:39:00,16.7,13.8,30.37,West,262,0.0,0.0,88,0.00,,---,0.00,VWS V14.01,2013-02-09 03:39:00,
2013-02-08 22:40:00,16.6,13.7,30.37,West,262,0.0,0.0,88,0.00,,---,0.00,VWS V14.01,2013-02-09 03:40:00,
2013-02-08 22:41:00,16.4,13.5,30.37,West,262,0.0,0.0,88,0.00,,---,0.00,VWS V14.01,2013-02-09 03:41:00,
2013-02-08 22:42:00,16.3,13.4,30.37,West,262,0.0,0.0,88,0.00,,---,0.00,VWS V14.01,2013-02-09 03:42:00,
2013-02-08 22:43:00,16.1,13.2,30.37,West,262,0.0,0.0,88,0.00,,---,0.00,VWS V14.01,2013-02-09 03:43:00,
2013-02-08 22:44:00,16.0,13.3,30.37,West,262,0.0,0.0,89,0.00,,---,0.00,VWS V14.01,2013-02-09 03:44:00,
2013-02-08 22:45:00,15.8,13.1,30.37,West,262,0.0,0.0,89,0.00,,---,0.00,VWS V14.01,2013-02-09 03:45:00,
2013-02-08 22:46:00,15.8,13.1,30.37,West,262,0.0,0.0,89,0.00,,---,0.00,VWS V14.01,2013-02-09 03:46:00,
2013-02-08 22:47:00,15.6,12.9,30.37,West,262,0.0,0.0,89,0.00,,---,0.00,VWS V14.01,2013-02-09 03:47:00,
2013-02-08 22:48:00,15.5,12.8,30.37,West,262,0.0,0.0,89,0.00,,---,0.00,VWS V14.01,2013-02-09 03:48:00,
2013-02-08 22:49:00,15.4,12.7,30.37,West,262,0.0,0.0,89,0.00,,---,0.00,VWS V14.01,2013-02-09 03:49:00,
2013-02-08 22:50:00,15.3,12.6,30.37,West,262,0.0,0.0,89,0.00,,---,0.00,VWS V14.01,2013-02-09 03:50:00,
2013-02-08 22:51:00,15.2,12.8,30.37,West,262,0.0,0.0,90,0.00,,---,0.00,VWS V14.01,2013-02-09 03:51:00,
2013-02-08 22:52:00,15.1,12.7,30.37,West,262,0.0,0.0,90,0.00,,---,0.00,VWS V14.01,2013-02-09 03:52:00,
2013-02-08 22:53:00,15.0,12.6,30.37,West,262,0.0,0.0,90,0.00,,---,0.00,VWS V14.01,2013-02-09 03:53:00,
2013-02-08 22:54:00,15.0,12.6,30.37,West,262,0.0,0.0,90,0.00,,---,0.00,VWS V14.01,2013-02-09 03:54:00,
2013-02-08 22:55:00,17.4,15.0,30.38,West,262,0.0,1.0,88,0.00,,,0.00,weatherlink.com 1.10,2013-02-09 03:55:00,
2013-02-08 22:56:00,14.9,12.8,30.37,West,262,0.0,0.0,91,0.00,,---,0.00,VWS V14.01,2013-02-09 03:56:00,
2013-02-08 22:57:00,14.8,12.6,30.38,West,262,0.0,0.0,91,0.00,,---,0.00,VWS V14.01,2013-02-09 03:57:00,
2013-02-08 22:58:00,14.8,12.6,30.38,West,262,0.0,0.0,91,0.00,,---,0.00,VWS V14.01,2013-02-09 03:58:00,
2013-02-08 22:59:00,14.8,12.6,30.37,West,262,0.0,0.0,91,0.00,,---,0.00,VWS V14.01,2013-02-09 03:59:00,
2013-02-08 23:00:00,14.7,12.6,30.37,West,262,0.0,0.0,91,0.00,,---,0.00,VWS V14.01,2013-02-09 04:00:00,
2013-02-08 23:01:00,14.6,12.5,30.37,West,262,0.0,0.0,91,0.00,,---,0.00,VWS V14.01,2013-02-09 04:01:00,
2013-02-08 23:02:00,14.4,12.0,30.37,West,262,0.0,0.0,90,0.00,,---,0.00,VWS V14.01,2013-02-09 04:02:00,
2013-02-08 23:03:00,14.3,11.9,30.37,West,262,0.0,0.0,90,0.00,,---,0.00,VWS V14.01,2013-02-09 04:03:00,
2013-02-08 23:04:00,14.1,11.7,30.37,West,262,0.0,0.0,90,0.00,,---,0.00,VWS V14.01,2013-02-09 04:04:00,
2013-02-08 23:05:00,13.9,11.5,30.37,West,262,0.0,0.0,90,0.00,,---,0.00,VWS V14.01,2013-02-09 04:05:00,
2013-02-08 23:06:00,13.8,11.4,30.37,West,262,0.0,0.0,90,0.00,,---,0.00,VWS V14.01,2013-02-09 04:06:00,
2013-02-08 23:07:00,13.6,11.2,30.37,West,262,0.0,0.0,90,0.00,,---,0.00,VWS V14.01,2013-02-09 04:07:00,
2013-02-08 23:08:00,13.5,11.1,30.37,West,262,0.0,0.0,90,0.00,,---,0.00,VWS V14.01,2013-02-09 04:08:00,
2013-02-08 23:09:00,13.4,11.0,30.37,West,262,0.0,0.0,90,0.00,,---,0.00,VWS V14.01,2013-02-09 04:09:00,
2013-02-08 23:10:00,13.3,10.9,30.37,West,262,0.0,0.0,90,0.00,,---,0.00,VWS V14.01,2013-02-09 04:10:00,
2013-02-08 23:11:00,13.3,11.2,30.37,West,262,0.0,0.0,91,0.00,,---,0.00,VWS V14.01,2013-02-09 04:11:00,
2013-02-08 23:12:00,15.8,13.0,30.37,West,262,0.0,0.0,89,0.00,,,0.00,weatherlink.com 1.10,2013-02-09 04:12:00,
2013-02-08 23:13:00,13.2,11.1,30.37,West,262,0.0,0.0,91,0.00,,---,0.00,VWS V14.01,2013-02-09 04:13:00,
2013-02-08 23:14:00,13.0,10.9,30.37,West,262,0.0,0.0,91,0.00,,---,0.00,VWS V14.01,2013-02-09 04:14:00,
2013-02-08 23:15:00,13.0,10.9,30.37,West,262,0.0,0.0,91,0.00,,---,0.00,VWS V14.01,2013-02-09 04:15:00,
2013-02-08 23:16:00,12.9,10.8,30.37,West,262,0.0,0.0,91,0.00,,---,0.00,VWS V14.01,2013-02-09 04:16:00,
2013-02-08 23:17:00,12.7,10.6,30.37,West,262,0.0,0.0,91,0.00,,---,0.00,VWS V14.01,2013-02-09 04:17:00,
2013-02-08 23:18:00,12.7,10.6,30.37,West,262,0.0,0.0,91,0.00,,---,0.00,VWS V14.01,2013-02-09 04:18:00,
2013-02-08 23:19:00,12.6,10.5,30.37,West,262,0.0,0.0,91,0.00,,---,0.00,VWS V14.01,2013-02-09 04:19:00,
2013-02-08 23:20:00,12.6,10.5,30.37,West,262,0.0,0.0,91,0.00,,---,0.00,VWS V14.01,2013-02-09 04:20:00,
2013-02-08 23:21:00,12.6,10.5,30.37,West,262,0.0,0.0,91,0.00,,---,0.00,VWS V14.01,2013-02-09 04:21:00,
2013-02-08 23:22:00,12.7,10.8,30.37,West,262,0.0,0.0,92,0.00,,---,0.00,VWS V14.01,2013-02-09 04:22:00,
2013-02-08 23:23:00,12.7,10.8,30.37,West,262,0.0,0.0,92,0.00,,---,0.00,VWS V14.01,2013-02-09 04:23:00,
2013-02-08 23:24:00,12.7,10.8,30.37,West,262,0.0,0.0,92,0.00,,---,0.00,VWS V14.01,2013-02-09 04:24:00,
2013-02-08 23:25:00,12.7,10.8,30.37,West,262,0.0,0.0,92,0.00,,---,0.00,VWS V14.01,2013-02-09 04:25:00,
2013-02-08 23:26:00,12.7,10.8,30.37,West,262,0.0,0.0,92,0.00,,---,0.00,VWS V14.01,2013-02-09 04:26:00,
2013-02-08 23:27:00,12.7,10.8,30.37,West,262,0.0,0.0,92,0.00,,---,0.00,VWS V14.01,2013-02-09 04:27:00,
2013-02-08 23:28:00,12.6,10.7,30.37,West,262,0.0,0.0,92,0.00,,---,0.00,VWS V14.01,2013-02-09 04:28:00,
2013-02-08 23:29:00,14.2,12.0,30.37,West,262,0.0,0.0,90,0.00,,,0.00,weatherlink.com 1.10,2013-02-09 04:29:00,
2013-02-08 23:30:00,12.5,10.6,30.37,West,262,0.0,0.0,92,0.00,,---,0.00,VWS V14.01,2013-02-09 04:30:00,
2013-02-08 23:31:00,12.4,10.5,30.37,West,262,0.0,0.0,92,0.00,,---,0.00,VWS V14.01,2013-02-09 04:31:00,
2013-02-08 23:32:00,12.4,10.3,30.37,West,262,0.0,0.0,91,0.00,,---,0.00,VWS V14.01,2013-02-09 04:32:00,
2013-02-08 23:33:00,12.3,10.2,30.37,West,261,0.0,0.0,91,0.00,,---,0.00,VWS V14.01,2013-02-09 04:33:00,
2013-02-08 23:34:00,12.2,10.1,30.38,West,262,0.0,0.0,91,0.00,,---,0.00,VWS V14.01,2013-02-09 04:34:00,
2013-02-08 23:35:00,12.1,10.0,30.38,West,262,0.0,0.0,91,0.00,,---,0.00,VWS V14.01,2013-02-09 04:35:00,
2013-02-08 23:36:00,12.1,10.0,30.38,West,262,0.0,0.0,91,0.00,,---,0.00,VWS V14.01,2013-02-09 04:36:00,
2013-02-08 23:37:00,11.9,9.8,30.38,West,262,0.0,0.0,91,0.00,,---,0.00,VWS V14.01,2013-02-09 04:37:00,
2013-02-08 23:38:00,11.9,9.8,30.38,West,262,0.0,0.0,91,0.00,,---,0.00,VWS V14.01,2013-02-09 04:38:00,
2013-02-08 23:39:00,11.8,9.9,30.38,West,262,0.0,0.0,92,0.00,,---,0.00,VWS V14.01,2013-02-09 04:39:00,
2013-02-08 23:40:00,11.8,9.9,30.38,West,262,0.0,0.0,92,0.00,,---,0.00,VWS V14.01,2013-02-09 04:40:00,
2013-02-08 23:41:00,11.8,9.9,30.38,West,262,0.0,0.0,92,0.00,,---,0.00,VWS V14.01,2013-02-09 04:41:00,
2013-02-08 23:42:00,11.8,9.9,30.38,West,262,0.0,0.0,92,0.00,,---,0.00,VWS V14.01,2013-02-09 04:42:00,
2013-02-08 23:43:00,11.7,9.8,30.38,West,262,0.0,0.0,92,0.00,,---,0.00,VWS V14.01,2013-02-09 04:43:00,
2013-02-08 23:44:00,11.7,9.8,30.38,West,262,0.0,0.0,92,0.00,,---,0.00,VWS V14.01,2013-02-09 04:44:00,
2013-02-08 23:45:00,11.6,9.7,30.38,West,262,0.0,0.0,92,0.00,,---,0.00,VWS V14.01,2013-02-09 04:45:00,
2013-02-08 23:46:00,11.5,9.4,30.38,West,262,0.0,0.0,91,0.00,,---,0.00,VWS V14.01,2013-02-09 04:46:00,
2013-02-08 23:47:00,11.4,9.3,30.38,West,261,0.0,0.0,91,0.00,,---,0.00,VWS V14.01,2013-02-09 04:47:00,
2013-02-08 23:48:00,12.6,11.0,30.37,West,262,0.0,0.0,91,0.00,,,0.00,weatherlink.com 1.10,2013-02-09 04:48:00,
2013-02-08 23:49:00,11.2,9.1,30.38,West,262,0.0,0.0,91,0.00,,---,0.00,VWS V14.01,2013-02-09 04:49:00,
2013-02-08 23:50:00,11.1,9.0,30.38,West,262,0.0,0.0,91,0.00,,---,0.00,VWS V14.01,2013-02-09 04:50:00,
2013-02-08 23:51:00,11.0,8.9,30.38,West,262,0.0,0.0,91,0.00,,---,0.00,VWS V14.01,2013-02-09 04:51:00,
2013-02-08 23:52:00,10.9,8.8,30.38,West,262,0.0,0.0,91,0.00,,---,0.00,VWS V14.01,2013-02-09 04:52:00,
2013-02-08 23:53:00,10.9,8.8,30.38,West,262,0.0,0.0,91,0.00,,---,0.00,VWS V14.01,2013-02-09 04:53:00,
2013-02-08 23:54:00,10.8,8.7,30.39,West,262,0.0,0.0,91,0.00,,---,0.00,VWS V14.01,2013-02-09 04:54:00,
2013-02-08 23:55:00,10.8,8.7,30.39,West,262,0.0,0.0,91,0.00,,---,0.00,VWS V14.01,2013-02-09 04:55:00,
2013-02-08 23:56:00,10.7,8.6,30.39,West,262,0.0,0.0,91,0.00,,---,0.00,VWS V14.01,2013-02-09 04:56:00,
2013-02-08 23:57:00,10.6,8.5,30.39,West,262,0.0,0.0,91,0.00,,---,0.00,VWS V14.01,2013-02-09 04:57:00,
2013-02-08 23:58:00,10.6,8.5,30.39,West,262,0.0,0.0,91,0.00,,---,0.00,VWS V14.01,2013-02-09 04:58:00,
2013-02-08 23:59:00,10.4,8.3,30.39,West,262,0.0,0.0,91,0.00,,---,0.00,VWS V14.01,2013-02-09 04:59:00,